[[{"header":{"parameterUnit":"m.s-1","parameterCategory":1,"la1":31.0,"la2":29.5877,"lo1":-88.7671,"lo2":-86.6584,"dy":0.0162,"dx":0.0185,"nx":115,"ny":88,"refTime":"2024-03-11T12:00:00:Z","depth":0,"parameterNumber":2,"parameterNumberName":"U-component_of_WINDS"},"data":[0.0,0.0,0.0,0.0,0.0,0.0,0.0,0.0,0.0,0.0,0.0,0.0,0.0,0.0,0.0,0.0,0.0,0.0,0.0,0.0,0.0,0.0,0.0,0.0,0.0,0.0,0.0,0.0,0.0,0.0,0.0,0.0,0.0,0.0,0.0,0.0,0.0,0.0,0.0,0.0,0.0,0.0,0.0,0.0,0.0,0.0,0.0,0.0,0.0,0.0,0.0,0.0,0.0,0.0,0.0,0.0,0.0,0.0,0.0,0.0,0.0,0.0,0.0,0.0,0.0,0.0,0.0,0.0,0.0,0.0,0.0,0.0,0.0,0.0,0.0,0.0,0.0,0.0,0.0,0.0,0.0,0.0,0.0,0.0,0.0,0.0,0.0,0.0,0.0,0.0,0.0,0.0,0.0,0.0,0.0,0.0,0.0,0.0,0.0,0.0,0.0,0.0,0.0,0.0,0.0,0.0,0.0,0.0,0.0,0.0,0.0,0.0,0.0,0.0,0.0,0.0,0.0,0.0,0.0,0.0,0.0,0.0,0.0,0.0,0.0,0.0,0.0,0.0,0.0,0.0,0.0,0.0,0.0,0.0,0.0,0.0,0.0,0.0,0.0,0.0,0.0,0.0,0.0,0.0,0.0,0.0,0.0,0.0,0.0,0.0,0.0,0.0,0.0,0.0,0.0,0.0,0.0,0.0,0.0,0.0,0.0,0.0,0.0,0.0,0.0,0.0,0.0,0.0,0.0,0.0,0.0,0.0,0.0,0.0,0.0,0.0,0.0,0.0,0.0,0.0,0.0,0.0,0.0,0.0,0.0,0.0,0.0,0.0,0.0,0.0,0.0,0.0,0.0,0.0,0.0,0.0,0.0,0.0,0.0,0.0,0.0,0.0,0.0,0.0,0.0,0.0,0.0,0.0,0.0,0.0,0.0,0.0,0.0,0.0,0.0,0.0,0.0,0.0,0.0,0.0,0.0,0.0,0.0,0.0,0.0,0.0,0.0,0.0,0.0,0.0,0.0,0.0,0.0,0.0,0.0,0.0,0.0,0.0,0.0,0.0,0.0,0.0,0.0,0.0,0.0,0.0,0.0,0.0,0.0,0.0,0.0,0.0,0.0,0.0,0.0,0.0,0.0,0.0,0.0,0.0,0.0,0.0,0.0,0.0,0.0,0.0,0.0,0.0,0.0,0.0,0.0,0.0,0.0,0.0,0.0,0.0,0.0,0.0,0.0,0.0,0.0,0.0,0.0,0.0,0.0,0.0,0.0,0.0,0.0,0.0,0.0,0.0,0.0,0.0,0.0,0.0,0.0,0.0,0.0,0.0,0.0,0.0,0.0,0.0,0.0,0.0,0.0,0.0,0.0,0.0,0.0,0.0,0.0,0.0,0.0,0.0,0.0,0.0,0.0,0.0,0.0,0.0,0.0,0.0,0.0,0.0,0.0,0.0,0.0,0.0,0.0,0.0,0.0,0.0,0.0,0.0,0.0,0.0,0.0,0.0,0.0,0.0,0.0,0.0,0.0,0.0,0.0,0.0,0.0,0.0,0.0,0.0,0.0,0.0,0.0,0.0,0.0,0.0,0.0,0.0,0.0,0.0,0.0,0.0,0.0,0.0,0.0,0.0,0.0,0.0,0.0,0.0,0.0,0.0,0.0,0.0,0.0,0.0,0.0,0.0,0.0,0.0,0.0,0.0,0.0,0.0,0.0,0.0,0.0,0.0,0.0,0.0,0.0,0.0,0.0,0.0,0.0,0.0,0.0,0.0,0.0,0.0,0.0,0.0,0.0,0.0,0.0,0.0,0.0,0.0,0.0,0.0,0.0,0.0,0.0,0.0,0.0,0.0,0.0,0.0,0.0,0.0,0.0,0.0,0.0,0.0,0.0,0.0,0.0,0.0,0.0,0.0,0.0,0.0,0.0,0.0,0.0,0.0,0.0,0.0,0.0,0.0,0.0,0.0,0.0,0.0,0.0,0.0,0.0,0.0,0.0,0.0,0.0,0.0,0.0,0.0,0.0,0.0,0.0,0.0,0.0,0.0,0.0,0.0,0.0,0.0,0.0,0.0,0.0,0.0,0.0,0.0,0.0,0.0,0.0,0.0,0.0,0.0,0.0,0.0,0.0,0.0,0.0,0.0,0.0,0.0,0.0,0.0,0.0,0.0,0.0,0.0,0.0,0.0,0.0,0.0,0.0,0.0,0.0,0.0,0.0,0.0,0.0,0.0,0.0,0.0,0.0,0.0,0.0,0.0,0.0,0.0,0.0,0.0,0.0,0.0,0.0,0.0,0.0,0.0,0.0,0.0,0.0,0.0,0.0,0.0,0.0,0.0,0.0,0.0,0.0,0.0,0.0,0.0,0.0,0.0,0.0,0.0,0.0,0.0,0.0,0.0,0.0,0.0,0.0,0.0,0.0,0.0,0.0,0.0,0.0,0.0,0.0,0.0,0.0,0.0,0.0,0.0,0.0,0.0,0.0,0.0,0.0,0.0,0.0,0.0,0.0,0.0,0.0,0.0,0.0,0.0,0.0,0.0,0.0,0.0,0.0,0.0,0.0,0.0,0.0,0.0,0.0,0.0,0.0,0.0,0.0,0.0,0.0,0.0,0.0,0.0,0.0,0.0,0.0,0.0,0.0,0.0,0.0,0.0,0.0,0.0,0.0,0.0,0.0,0.0,0.0,0.0,0.0,0.0,0.0,0.0,0.0,0.0,0.0,0.0,0.0,0.0,0.0,0.0,0.0,0.0,0.0,0.0,0.0,0.0,0.0,0.0,0.0,0.0,0.0,0.0,0.0,0.0,0.0,0.0,0.0,0.0,0.0,0.0,0.0,0.0,0.0,0.0,0.0,0.0,0.0,0.0,0.0,0.0,0.0,0.0,0.0,0.0,0.0,0.0,0.0,0.0,0.0,0.0,0.0,0.0,0.0,0.0,0.0,0.0,0.0,0.0,0.0,0.0,0.0,0.0,0.0,0.0,0.0,0.0,0.0,0.0,0.0,0.0,0.0,0.0,0.0,0.0,0.0,0.0,0.0,0.0,0.0,0.0,0.0,0.0,0.0,0.0,0.0,0.0,0.0,0.0,0.0,0.0,0.0,0.0,0.0,0.0,0.0,0.0,0.0,0.0,0.0,0.0,0.0,0.0,0.0,0.0,0.0,0.0,0.0,0.0,0.0,0.0,0.0,0.0,0.0,0.0,0.0,0.0,0.0,0.0,0.0,0.0,0.0,0.0,0.0,0.0,0.0,0.0,0.0,0.0,0.0,0.0,0.0,0.0,0.0,0.0,0.0,0.0,0.0,0.0,0.0,0.0,0.0,0.0,0.0,0.0,0.0,0.0,0.0,0.0,0.0,0.0,0.0,0.0,0.0,0.0,0.0,0.0,0.0,0.0,0.0,0.0,0.0,0.0,0.0,0.0,0.0,0.0,0.0,0.0,0.0,0.0,0.0,0.0,0.0,0.0,0.0,0.0,0.0,0.0,0.0,0.0,0.0,0.0,0.0,0.0,0.0,0.0,0.0,0.0,0.0,0.0,0.0,0.0,0.0,0.0,0.0,0.0,0.0,0.0,0.0,0.0,0.0,0.0,0.0,0.0,0.0,0.0,0.0,0.0,0.0,0.0,0.0,0.0,0.0,0.0,0.0,0.0,0.0,0.0,0.0,0.0,0.0,0.0,0.0,0.0,0.0,0.0,0.0,0.0,0.0,0.0,0.0,0.0,0.0,0.0,0.0,0.0,0.0,0.0,0.0,0.0,0.0,0.0,0.0,0.0,0.0,0.0,0.0,0.0,0.0,0.0,0.0,0.0,0.0,0.0,0.0,0.0,0.0,0.0,0.0,0.0,0.0,0.0,0.0,0.0,0.0,0.0,0.0,0.0,0.0,0.0,0.0,0.0,0.0,0.0,0.0,0.0,0.0,0.0,0.0,0.0,0.0,0.0,0.0,0.0,0.0,0.0,0.0,0.0,0.0,0.0,0.0,0.0,0.0,0.0,0.0,0.0,0.0,0.0,0.0,0.0,0.0,0.0,0.0,0.0,0.0,0.0,0.0,0.0,0.0,0.0,0.0,0.0,0.0,0.0,0.0,0.0,0.0,0.0,0.0,0.0,0.0,0.0,0.0,0.0,0.0,0.0,0.0,0.0,0.0,0.0,0.0,0.0,0.0,0.0,0.0,0.0,0.0,0.0,0.0,0.0,0.0,0.0,0.0,0.0,0.0,0.0,0.0,0.0,0.0,0.0,0.0,0.0,0.0,0.0,0.0,0.0,-0.3709,0.0,0.0,0.0,0.0,0.0,0.0,0.0,0.0,0.0,0.0,0.0,0.0,0.0,0.0,0.0,0.0,0.0,0.0,0.0,0.0,0.0,0.0,0.0,0.0,0.0,0.0,0.0,0.0,0.0,0.0,0.0,0.0,0.0,0.0,0.0,0.0,0.0,0.0,0.0,0.0,0.0,0.0,0.0,0.0,0.0,0.0,0.0,0.0,0.0,0.0,0.0,0.0,0.0,0.0,0.0,0.0,0.0,0.0,0.0,0.0,0.0,0.0,0.0,0.0,0.0,0.0,0.0,0.0,0.0,0.0,0.0,0.0,0.0,0.0,0.0,0.0,0.0,0.0,0.0,0.0,0.0,0.0,0.0,0.0,0.0,0.0,0.0,0.0,0.0,0.0,0.0,0.0,0.0,0.0,0.0,0.0,0.0,0.0,0.0,0.0,0.0,0.0,0.0,0.0,0.0,0.0,0.0,0.0,0.0,0.0,-0.405,-0.4298,-0.4455,-0.4414,-0.4245,0.0,0.0,0.0,0.0,0.0,0.0,0.0,0.0,0.0,0.0,0.0,0.0,0.0,0.0,0.0,0.0,0.0,0.0,0.0,0.0,0.0,0.0,0.0,0.0,0.0,0.0,0.0,0.0,0.0,0.0,0.0,0.0,0.0,0.0,0.0,0.0,0.0,0.0,0.0,0.0,0.0,0.0,0.0,0.0,0.0,0.0,0.0,0.0,0.0,0.0,0.0,0.0,0.0,0.0,0.0,0.0,0.0,0.0,0.0,0.0,0.0,0.0,0.0,0.0,0.0,0.0,0.0,0.0,0.0,0.0,0.0,0.0,0.0,0.0,0.0,0.0,0.0,0.0,0.0,0.0,0.0,0.0,0.0,0.0,0.0,0.0,0.0,0.0,0.0,0.0,0.0,0.0,0.0,0.0,0.0,0.0,0.0,0.0,0.0,0.0,0.0,0.0,0.0,0.0,0.0,0.0,0.0,0.0,0.0,0.0,0.0,0.0,-0.4453,-0.4461,-0.4867,0.0,0.0,0.0,0.0,0.0,0.0,0.0,0.0,0.0,0.0,0.0,0.0,0.0,0.0,0.0,0.0,0.0,0.0,0.0,0.0,0.0,0.0,0.0,0.0,0.0,0.0,0.0,0.0,0.0,0.0,0.0,0.0,0.0,0.0,0.0,0.0,0.0,0.0,0.0,0.0,0.0,0.0,0.0,0.0,0.0,0.0,0.0,0.0,0.0,0.0,0.0,0.0,0.0,0.0,0.0,0.0,0.0,0.0,0.0,0.0,0.0,0.0,0.0,0.0,0.0,0.0,0.0,0.0,0.0,0.0,0.0,0.0,0.0,0.0,0.0,0.0,0.0,0.0,0.0,0.0,0.0,0.0,0.0,0.0,0.0,0.0,0.0,0.0,0.0,0.0,0.0,0.0,0.0,0.0,0.0,0.0,0.0,0.0,0.0,0.0,0.0,0.0,0.0,0.0,0.0,0.0,0.0,0.0,0.0,0.0,-0.4149,-0.4193,-0.4535,0.0,-0.4807,0.0,0.0,0.0,0.0,0.0,0.0,0.0,0.0,0.0,0.0,0.0,0.0,0.0,0.0,0.0,0.0,0.0,0.0,0.0,0.0,0.0,0.0,0.0,0.0,0.0,0.0,0.0,0.0,0.0,0.0,0.0,0.0,0.0,0.0,0.0,0.0,0.0,0.0,0.0,0.0,0.0,0.0,0.0,0.0,0.0,0.0,0.0,0.0,0.0,0.0,0.0,0.0,0.0,0.0,0.0,0.0,0.0,0.0,0.0,0.0,0.0,0.0,0.0,0.0,0.0,0.0,0.0,0.0,0.0,0.0,0.0,0.0,0.0,0.0,0.0,0.0,0.0,0.0,0.0,0.0,0.0,0.0,0.0,0.0,0.0,0.0,0.0,0.0,0.0,0.0,0.0,0.0,0.0,0.0,0.0,0.0,0.0,0.0,0.0,0.0,0.0,0.0,0.0,0.0,0.0,0.0,0.0,0.0,0.0,0.0,-0.428,-0.4572,-0.4377,-0.4419,0.0,0.0,0.0,0.0,0.0,0.0,0.0,0.0,0.0,0.0,0.0,0.0,0.0,0.0,0.0,0.0,0.0,0.0,0.0,0.0,0.0,0.0,0.0,0.0,0.0,0.0,0.0,0.0,0.0,0.0,0.0,0.0,0.0,0.0,0.0,0.0,0.0,0.0,0.0,0.0,0.0,0.0,0.0,0.0,0.0,0.0,0.0,0.0,0.0,0.0,0.0,0.0,0.0,0.0,0.0,0.0,0.0,0.0,0.0,0.0,0.0,0.0,0.0,0.0,0.0,0.0,0.0,0.0,0.0,0.0,0.0,0.0,0.0,0.0,0.0,0.0,0.0,0.0,0.0,0.0,0.0,0.0,0.0,0.0,0.0,0.0,0.0,0.0,0.0,0.0,0.0,0.0,0.0,0.0,0.0,0.0,0.0,0.0,0.0,0.0,0.0,0.0,0.0,0.0,0.0,0.0,0.0,0.0,0.0,0.0,-0.4253,-0.4324,-0.4766,-0.4334,-0.4196,-0.4408,0.0,0.0,0.0,0.0,0.0,0.0,0.0,0.0,0.0,0.0,0.0,0.0,0.0,0.0,0.0,0.0,0.0,0.0,0.0,0.0,0.0,0.0,0.0,0.0,0.0,0.0,0.0,0.0,0.0,0.0,0.0,0.0,0.0,0.0,0.0,0.0,0.0,0.0,0.0,0.0,0.0,0.0,0.0,0.0,0.0,0.0,0.0,0.0,0.0,0.0,0.0,0.0,0.0,0.0,0.0,0.0,0.0,0.0,0.0,0.0,0.0,0.0,0.0,0.0,0.0,0.0,0.0,0.0,0.0,0.0,0.0,0.0,0.0,0.0,0.0,0.0,0.0,0.0,0.0,0.0,0.0,0.0,0.0,0.0,0.0,0.0,0.0,0.0,0.0,0.0,0.0,0.0,0.0,0.0,0.0,0.0,0.0,0.0,0.0,0.0,0.0,0.0,0.0,0.0,0.0,0.0,0.0,0.0,-0.5068,-0.4455,-0.4267,-0.4609,-0.4516,-0.4248,0.0,0.0,0.0,0.0,0.0,0.0,0.0,0.0,0.0,0.0,0.0,0.0,0.0,0.0,0.0,0.0,0.0,0.0,0.0,0.0,0.0,0.0,0.0,0.0,0.0,0.0,0.0,0.0,0.0,0.0,0.0,0.0,0.0,0.0,0.0,0.0,0.0,0.0,0.0,0.0,0.0,0.0,0.0,0.0,0.0,0.0,0.0,0.0,0.0,0.0,0.0,0.0,0.0,0.0,0.0,0.0,0.0,0.0,0.0,0.0,0.0,0.0,0.0,0.0,0.0,0.0,0.0,0.0,0.0,0.0,0.0,0.0,0.0,0.0,0.0,0.0,0.0,0.0,0.0,0.0,0.0,0.0,0.0,0.0,0.0,0.0,0.0,0.0,0.0,0.0,0.0,0.0,0.0,0.0,0.0,0.0,0.0,0.0,0.0,0.0,0.0,0.0,0.0,0.0,0.0,0.0,0.0,0.0,0.0,-0.4035,-0.404,-0.4359,-0.5001,-0.439,-0.4053,0.0,0.0,0.0,0.0,0.0,0.0,0.0,0.0,0.0,0.0,0.0,0.0,0.0,0.0,0.0,0.0,0.0,0.0,0.0,0.0,0.0,0.0,0.0,0.0,0.0,0.0,0.0,0.0,0.0,0.0,0.0,0.0,0.0,0.0,0.0,0.0,0.0,0.0,0.0,0.0,0.0,0.0,0.0,0.0,0.0,0.0,0.0,0.0,0.0,0.0,0.0,0.0,0.0,0.0,0.0,0.0,0.0,0.0,0.0,0.0,0.0,0.0,0.0,0.0,0.0,0.0,0.0,0.0,0.0,0.0,0.0,0.0,0.0,0.0,0.0,0.0,0.0,0.0,0.0,0.0,0.0,0.0,0.0,0.0,0.0,0.0,0.0,0.0,0.0,0.0,0.0,0.0,0.0,0.0,0.0,0.0,0.0,0.0,0.0,0.0,0.0,0.0,0.0,0.0,0.0,0.0,0.0,0.0,0.0,-0.3856,0.0,-0.4719,-0.4998,-0.437,-0.3932,0.0,0.0,0.0,0.0,0.0,0.0,0.0,0.0,0.0,0.0,0.0,0.0,0.0,0.0,0.0,0.0,0.0,0.0,0.0,0.0,0.0,0.0,0.0,0.0,0.0,0.0,0.0,0.0,0.0,0.0,0.0,0.0,0.0,0.0,0.0,0.0,0.0,0.0,0.0,0.0,0.0,0.0,0.0,0.0,0.0,0.0,0.0,0.0,0.0,0.0,0.0,0.0,0.0,0.0,0.0,0.0,0.0,0.0,0.0,0.0,0.0,0.0,0.0,0.0,0.0,0.0,0.0,0.0,0.0,0.0,0.0,0.0,0.0,0.0,0.0,0.0,0.0,0.0,0.0,0.0,0.0,0.0,0.0,0.0,0.0,0.0,0.0,0.0,0.0,0.0,0.0,0.0,0.0,0.0,0.0,0.0,0.0,0.0,0.0,0.0,0.0,0.0,0.0,0.0,0.0,0.0,0.0,0.0,-0.3869,-0.475,-0.5381,-0.5328,-0.4558,-0.4434,-0.3901,0.0,0.0,0.0,0.0,0.0,0.0,0.0,0.0,0.0,0.0,0.0,0.0,0.0,0.0,0.0,0.0,0.0,0.0,0.0,0.0,0.0,0.0,0.0,0.0,0.0,0.0,0.0,0.0,0.0,0.0,0.0,0.0,0.0,0.0,0.0,0.0,0.0,0.0,0.0,0.0,0.0,0.0,0.0,0.0,0.0,0.0,0.0,0.0,0.0,0.0,0.0,0.0,0.0,0.0,0.0,0.0,0.0,0.0,0.0,0.0,0.0,0.0,0.0,0.0,0.0,0.0,0.0,0.0,0.0,0.0,0.0,0.0,0.0,0.0,0.0,0.0,0.0,0.0,0.0,0.0,0.0,0.0,0.0,0.0,0.0,0.0,0.0,0.0,0.0,0.0,0.0,0.0,0.0,0.0,0.0,0.0,0.0,0.0,0.0,0.0,0.0,0.0,0.0,0.0,0.0,0.0,0.0,0.0,0.0,-0.4197,-0.4786,-0.5003,-0.4791,-0.4442,-0.4053,0.0,0.0,0.0,0.0,0.0,0.0,0.0,0.0,0.0,0.0,0.0,0.0,0.0,0.0,0.0,0.0,0.0,0.0,0.0,0.0,0.0,0.0,0.0,0.0,0.0,0.0,0.0,0.0,0.0,0.0,0.0,0.0,0.0,0.0,0.0,0.0,0.0,0.0,0.0,0.0,0.0,0.0,0.0,0.0,0.0,0.0,0.0,0.0,0.0,0.0,0.0,0.0,0.0,0.0,0.0,0.0,0.0,0.0,0.0,0.0,0.0,0.0,0.0,0.0,0.0,0.0,0.0,0.0,0.0,0.0,0.0,0.0,0.0,0.0,0.0,0.0,0.0,0.0,0.0,0.0,0.0,0.0,0.0,0.0,0.0,0.0,0.0,0.0,0.0,0.0,0.0,0.0,0.0,0.0,0.0,0.0,0.0,0.0,0.0,0.0,0.0,0.0,0.0,0.0,0.0,0.0,0.0,0.0,0.0,-0.4709,-0.5249,-0.5482,-0.5405,-0.4896,-0.4508,-0.4245,0.0,0.0,0.0,0.0,0.0,0.0,0.0,0.0,0.0,0.0,0.0,0.0,0.0,0.0,0.0,0.0,0.0,0.0,0.0,0.0,0.0,0.0,0.0,0.0,0.0,0.0,0.0,0.0,0.0,0.0,0.0,0.0,0.0,0.0,0.0,0.0,0.0,0.0,0.0,0.0,0.0,0.0,0.0,0.0,0.0,0.0,0.0,0.0,0.0,0.0,0.0,0.0,0.0,0.0,0.0,0.0,0.0,0.0,0.0,0.0,0.0,0.0,0.0,0.0,0.0,0.0,0.0,0.0,0.0,0.0,0.0,0.0,0.0,0.0,0.0,0.0,0.0,0.0,0.0,0.0,0.0,0.0,0.0,0.0,0.0,0.0,0.0,0.0,0.0,0.0,0.0,0.0,0.0,0.0,0.0,0.0,0.0,0.0,0.0,0.0,0.0,0.0,0.0,0.0,0.0,0.0,0.0,0.0,-0.6078,-0.658,-0.6646,-0.6244,-0.5744,-0.5215,0.0,0.0,0.0,0.0,0.0,0.0,0.0,0.0,0.0,0.0,0.0,0.0,0.0,0.0,0.0,0.0,0.0,0.0,0.0,0.0,0.0,0.0,0.0,0.0,0.0,0.0,0.0,0.0,0.0,0.0,0.0,0.0,0.0,0.0,0.0,0.0,0.0,0.0,0.0,0.0,0.0,0.0,0.0,0.0,0.0,0.0,0.0,0.0,0.0,0.0,0.0,0.0,0.0,0.0,0.0,0.0,0.0,0.0,0.0,0.0,0.0,0.0,0.0,0.0,0.0,0.0,0.0,0.0,0.0,0.0,0.0,0.0,0.0,0.0,0.0,0.0,0.0,0.0,0.0,0.0,0.0,0.0,0.0,0.0,0.0,0.0,0.0,0.0,0.0,0.0,0.0,0.0,0.0,0.0,0.0,0.0,0.0,0.0,0.0,0.0,0.0,0.0,0.0,0.0,0.0,0.0,0.0,0.0,0.0,-0.7052,-0.7286,-0.7147,-0.6667,-0.6463,-0.5947,0.0,0.0,0.0,0.0,0.0,0.0,0.0,0.0,0.0,0.0,0.0,0.0,0.0,0.0,0.0,0.0,0.0,0.0,0.0,0.0,0.0,0.0,0.0,0.0,0.0,0.0,0.0,0.0,0.0,0.0,0.0,0.0,0.0,0.0,0.0,0.0,0.0,0.0,0.0,0.0,0.0,0.0,0.0,0.0,0.0,0.0,0.0,0.0,0.0,0.0,0.0,0.0,0.0,0.0,0.0,0.0,0.0,0.0,0.0,0.0,0.0,0.0,0.0,0.0,0.0,0.0,0.0,0.0,0.0,0.0,0.0,0.0,0.0,0.0,0.0,0.0,0.0,0.0,0.0,0.0,0.0,0.0,0.0,0.0,0.0,0.0,0.0,0.0,0.0,0.0,0.0,0.0,0.0,0.0,0.0,0.0,0.0,0.0,0.0,0.0,0.0,0.0,0.0,0.0,0.0,0.0,0.0,0.0,-0.6487,-0.752,-0.7676,-0.7585,-0.725,-0.7011,-0.6505,0.0,0.0,0.0,0.0,0.0,0.0,0.0,0.0,0.0,0.0,0.0,0.0,0.0,0.0,0.0,0.0,0.0,0.0,0.0,0.0,0.0,0.0,0.0,0.0,0.0,0.0,0.0,0.0,0.0,0.0,0.0,0.0,0.0,0.0,0.0,0.0,0.0,0.0,0.0,0.0,0.0,0.0,0.0,0.0,0.0,0.0,0.0,0.0,0.0,0.0,0.0,0.0,0.0,0.0,0.0,0.0,0.0,0.0,0.0,0.0,0.0,0.0,0.0,0.0,0.0,0.0,0.0,0.0,0.0,0.0,0.0,0.0,0.0,0.0,0.0,0.0,0.0,0.0,0.0,0.0,0.0,0.0,0.0,0.0,0.0,0.0,0.0,0.0,0.0,0.0,0.0,0.0,0.0,0.0,0.0,0.0,0.0,0.0,0.0,0.0,0.0,0.0,0.0,0.0,0.0,0.0,0.0,0.0,-0.7069,-0.7623,-0.7834,-0.7898,-0.7888,-0.7374,-0.6881,0.0,0.0,0.0,0.0,0.0,0.0,0.0,0.0,0.0,0.0,0.0,0.0,0.0,0.0,0.0,0.0,0.0,0.0,0.0,0.0,0.0,0.0,0.0,0.0,0.0,0.0,0.0,0.0,0.0,0.0,0.0,0.0,0.0,0.0,0.0,0.0,0.0,0.0,0.0,0.0,0.0,0.0,0.0,0.0,0.0,0.0,0.0,0.0,0.0,0.0,0.0,0.0,0.0,0.0,0.0,0.0,0.0,0.0,0.0,0.0,0.0,0.0,0.0,0.0,0.0,0.0,0.0,0.0,0.0,0.0,0.0,0.0,0.0,0.0,0.0,0.0,0.0,0.0,0.0,0.0,0.0,0.0,0.0,0.0,0.0,0.0,0.0,0.0,0.0,0.0,0.0,0.0,0.0,0.0,0.0,0.0,0.0,0.0,0.0,0.0,0.0,0.0,0.0,0.0,0.0,0.0,0.0,0.0,-0.7199,-0.7821,-0.798,-0.7971,-0.7821,-0.7305,-0.6849,0.0,0.0,0.0,0.0,0.0,0.0,0.0,0.0,0.0,0.0,0.0,0.0,0.0,0.0,0.0,0.0,0.0,0.0,0.0,0.0,0.0,0.0,0.0,0.0,0.0,0.0,0.0,0.0,0.0,0.0,0.0,0.0,0.0,0.0,0.0,0.0,0.0,0.0,0.0,0.0,0.0,0.0,0.0,0.0,0.0,0.0,0.0,0.0,0.2268,0.0,0.0,0.0,0.0,0.0,0.0,0.0,0.0,0.0,0.0,0.0,0.0,0.0,0.0,0.0,0.0,0.0,0.0,0.0,0.0,0.0,0.0,0.0,0.0,0.0,0.0,0.0,0.0,0.0,0.0,0.0,0.0,0.0,0.0,0.0,0.0,0.0,0.0,0.0,0.0,0.0,0.0,0.0,0.0,0.0,0.0,0.0,0.0,0.0,0.0,0.0,0.0,0.0,0.0,0.0,0.0,0.0,0.0,0.0,-0.7664,-0.8014,-0.8087,-0.801,-0.7782,-0.7249,-0.678,0.0,0.0,0.0,0.0,0.0,0.0,0.0,0.0,0.0,0.0,0.0,0.0,0.0,0.0,0.0,0.0,0.0,0.0,0.0,0.0,0.0,0.0,0.0,0.0,0.0,0.0,0.0,0.0,0.0,0.0,0.0,0.0,0.0,0.0,0.0,0.0,0.0,0.0,0.0,0.0,0.0,0.0,0.0,0.0,0.0,0.0,0.0,0.0,0.0,0.0,0.0,0.0,0.0,0.0,0.0,0.0,0.0,0.0,0.0,0.0,0.0,0.0,0.0,0.0,0.0,0.0,0.0,0.0,0.0,0.0,0.0,0.0,0.0,0.0,0.0,0.0,0.0,0.0,0.0,0.0,0.0,0.0,0.0,0.0,0.0,0.0,0.0,0.0,0.0,0.0,0.0,0.0,0.0,0.0,0.0,0.0,0.0,0.0,0.0,0.0,0.0,0.0,0.0,0.0,0.0,0.0,0.0,-0.7563,-0.8175,-0.8264,-0.8185,-0.8015,-0.7778,-0.7245,-0.6741,-0.6314,0.0,0.0,0.0,0.0,0.0,0.0,0.0,0.0,0.0,0.0,0.0,0.0,0.0,0.0,0.0,0.0,0.0,0.0,0.0,0.0,0.0,0.0,0.0,0.0,0.0,0.0,0.0,0.0,0.0,0.0,0.0,0.0,0.0,0.0,0.0,0.0,0.0,0.0,0.1464,0.2009,0.0,0.0,0.0,0.0,0.0,0.0,0.0,0.0,0.2795,0.0,0.0,0.0,0.0,0.0,0.0,0.0,0.0,0.0,0.0,0.0,0.0,0.0,0.0,0.0,0.0,0.0,0.0,0.0,0.0,0.0,0.0,0.0,0.0,0.0,0.0,0.0,0.0,0.0,0.0,0.0,0.0,0.0,0.0,0.0,0.0,0.0,0.0,0.0,0.0,0.0,0.0,0.0,0.0,0.0,0.0,0.0,0.0,0.0,0.0,0.0,0.0,0.0,0.0,0.0,0.0,-0.8232,-0.8257,-0.8391,-0.8603,-0.8403,-0.8105,-0.7729,-0.7346,-0.6898,-0.6285,0.0,0.0,0.0,0.0,0.0,0.0,0.0,0.0,0.0,0.0,0.0,0.0,0.0,0.0,0.0,0.0,0.0,0.0,0.0,0.0,0.0,0.0,0.0,0.0,0.0,0.0,0.0,0.0,0.0,0.0,0.0,0.0,0.0,0.0,0.0,0.0,0.0,0.0,0.0,0.2348,0.2632,0.0,0.0,0.0,0.0,0.0,0.0,0.0,0.0,0.3155,0.0,0.0,0.0,0.0,0.0,0.0,0.0,0.0,0.0,0.0,0.0,0.0,0.0,0.0,0.0,0.0,0.0,0.0,0.0,0.0,0.0,0.0,0.0,0.0,0.0,0.0,0.0,0.0,0.0,0.0,0.0,0.0,0.0,0.0,0.0,0.0,0.0,0.0,0.0,0.0,0.0,0.0,0.0,0.0,0.0,0.0,0.0,0.0,0.0,0.0,0.0,0.0,0.0,0.0,0.0,-0.8175,-0.8519,-0.8718,-0.8783,-0.8509,-0.817,-0.7807,-0.7446,-0.6982,0.0,0.0,0.0,0.0,0.0,0.0,0.0,0.0,0.0,0.0,0.0,0.0,0.0,0.0,0.0,0.0,0.0,0.0,0.0,0.0,0.0,0.0,0.0,0.0,0.0,0.0,0.0,0.0,0.0,0.0,0.0,0.0,0.0,0.0,0.0,0.0,0.0,0.0,0.0,0.0,0.2564,0.2912,0.3344,0.0,0.0,0.0,0.0,0.0,0.0,0.357,0.3366,0.0,0.0,0.0,0.0,0.0,0.0,0.0,0.0,0.0,0.0,0.0,0.0,0.0,0.0,0.0,0.0,0.0,0.0,0.0,0.0,0.0,0.0,0.0,0.0,0.0,0.0,0.0,0.0,0.0,0.0,0.0,0.0,0.0,0.0,0.0,0.0,0.0,0.0,0.0,0.0,0.0,0.0,0.0,0.0,0.0,0.0,0.0,0.0,0.0,0.0,0.0,0.0,0.0,0.0,0.0,-0.8044,-0.8722,-0.9034,-0.8946,-0.8634,-0.8284,-0.7945,-0.7491,-0.7006,0.0,0.0,0.0,0.0,0.0,0.0,0.0,0.0,0.0,0.0,0.0,0.0,0.0,0.0,0.0,0.0,0.0,0.0,0.0,0.0,0.0,0.0,0.0,0.0,0.0,0.0,0.0,0.0,0.0,0.0,0.0,0.0,0.0,0.0,0.0,0.0,0.0,0.0,0.0,0.0,0.0,0.3194,0.3682,0.381,0.0,0.0,0.0,0.0,0.3997,0.3736,0.0,0.0,0.0,0.0,0.0,0.0,0.0,0.0,0.0,0.0,0.0,0.0,0.0,0.0,0.0,0.0,0.0,0.0,0.0,0.0,0.0,0.0,0.0,0.0,0.0,0.0,0.0,0.0,0.0,0.0,0.0,0.0,0.0,0.0,0.0,0.0,0.0,0.0,0.0,0.0,0.0,0.0,0.0,0.0,0.0,0.0,0.0,0.0,0.0,0.0,0.0,0.0,0.0,0.0,0.0,0.0,-0.8887,-0.9225,-0.9279,-0.9157,-0.8784,-0.8407,-0.8074,-0.7413,-0.6872,0.0,0.0,0.0,0.0,0.0,0.0,0.0,0.0,0.0,0.0,0.0,0.0,0.0,0.0,0.0,0.0,0.0,0.0,0.0,0.0,0.0,0.0,0.0,0.0,0.0,0.0,0.0,0.0,0.0,0.0,0.0,0.0,0.0,0.0,0.0,0.0,0.0,0.0,0.0,0.0,0.0,0.3563,0.3929,0.3733,0.363,0.0,0.0,0.3797,0.3985,0.3821,0.0,0.0,0.0,0.0,0.0,0.0,0.0,0.0,0.0,0.0,0.0,0.0,0.0,0.0,0.0,0.0,0.0,0.0,0.0,0.0,0.0,0.0,0.0,0.0,0.0,0.0,0.0,0.0,0.0,0.0,0.0,0.0,0.0,0.0,0.0,0.0,0.0,0.0,0.0,0.0,0.0,0.0,0.0,0.0,0.0,0.0,0.0,0.0,0.0,0.0,0.0,0.0,0.0,0.0,0.0,-0.8207,-0.9184,-0.9595,-0.9667,-0.9369,-0.9006,-0.8659,-0.8284,-0.7564,-0.7022,0.0,0.0,0.0,0.0,0.0,0.0,0.0,0.0,0.0,0.0,0.0,0.0,0.0,0.0,0.0,0.0,0.0,0.0,0.0,0.0,0.0,0.0,0.0,0.0,0.0,0.0,0.0,0.0,0.0,0.0,0.0,0.0,0.0,0.0,0.0,0.0,0.0,0.0,0.0,0.0,0.0,0.0,0.3559,0.3447,0.0,0.0,0.0,0.3507,0.3653,0.0,0.0,0.0,0.0,0.0,0.0,0.0,0.0,0.0,0.0,0.0,0.0,0.0,0.0,0.0,0.0,0.0,0.0,0.0,0.0,0.0,0.0,0.0,0.0,0.0,0.0,0.0,0.0,0.0,0.0,0.0,0.0,0.0,0.0,0.0,0.0,0.0,0.0,0.0,0.0,0.0,0.0,0.0,0.0,0.0,0.0,0.0,0.0,0.0,0.0,0.0,0.0,0.0,0.0,0.0,0.0,0.0,-0.9337,-0.9895,-0.9983,-0.9594,-0.9261,-0.8896,-0.8484,-0.7796,0.0,0.0,0.0,0.0,0.0,0.0,0.0,0.0,0.0,0.0,0.0,0.0,0.0,0.0,0.0,0.0,0.0,0.0,0.0,0.0,0.0,0.0,0.0,0.0,0.0,0.0,0.0,0.0439,0.0,0.0,0.0,0.0,0.0,0.0,0.0,0.0,0.0,0.0,0.0,0.0,0.0,0.0,0.2141,0.2964,0.3029,0.2923,0.0,0.0,0.3003,0.3129,0.3024,0.2955,0.0,0.0,0.0,0.0,0.0,0.0,0.0,0.0,0.0,0.0,0.0,0.0,0.0,0.0,0.0,0.0,0.0,0.0,0.0,0.0,0.0,0.0,0.0,0.0,0.0,0.0,0.0,0.0,0.0,0.0,0.0,0.0,0.0,0.0,0.0,0.0,0.0,0.0,0.0,0.0,0.0,0.0,0.0,0.0,0.0,0.0,0.0,0.0,0.0,0.0,0.0,0.0,0.0,0.0,0.0,-0.9483,-1.0067,-1.0199,-0.9801,-0.9461,-0.9085,-0.869,-0.8086,-0.7521,0.0,0.0,0.0,0.0,0.0,0.0,0.0,0.0,0.0,0.0,0.0,0.0,0.0,0.0,0.0,0.0,0.0,0.0,0.0,0.0,0.0,0.0,0.0,0.0,0.0,0.0,0.0,0.0,0.0,0.0,0.0,0.0,0.0,0.0,0.0,0.0,0.0,0.0,0.0,0.0,0.0,0.141,0.2104,0.2489,0.2405,0.0,0.0,0.2172,0.2425,0.2301,0.22,0.2353,0.0,0.0,0.0,0.0,0.0,0.0,0.0,0.0,0.0,0.0,0.0,0.0,0.0,0.0,0.0,0.0,0.0,0.0,0.0,0.0,0.0,0.0,0.0,0.0,0.0,0.0,0.0,0.0,0.0,0.0,0.0,0.0,0.0,0.0,0.0,0.0,0.0,0.0,0.0,0.0,0.0,0.0,0.0,0.0,0.0,0.0,0.0,0.0,0.0,0.0,0.0,0.0,0.0,-0.9502,-0.9691,-1.0317,-1.0436,-0.9995,-0.9698,-0.9341,-0.8971,-0.8355,-0.7789,0.0,0.0,0.0,0.0,0.0,0.0,0.0,0.0,0.0,0.0,0.0,0.0,0.0,0.0,0.0,0.0,0.0,0.0,0.0,0.0,0.0,0.0,0.0,0.0,0.0,0.0,0.0,0.0,0.0495,0.0513,0.0455,0.0,0.0,0.0,0.0,0.0,0.0,0.0,0.0,0.0,0.0,0.0655,0.1117,0.1543,0.0,0.0,0.0733,0.109,0.1479,0.1566,0.1644,0.172,0.1934,0.0,0.0,0.0,0.0,0.0,0.0,0.0,0.0,0.0,0.0,0.0,0.0,0.0,0.0,0.0,0.0,0.0,0.0,0.0,0.0,0.0,0.0,0.0,0.0,0.0,0.0,0.0,0.0,0.0,0.0,0.0,0.0,0.0,0.0,0.0,0.0,0.0,0.0,0.0,0.0,0.0,0.0,0.0,0.0,0.0,0.0,0.0,0.0,0.0,0.0,0.0,0.0,-0.9889,-0.9865,-1.0501,-1.0631,-1.0223,-0.9944,-0.9593,-0.922,-0.8674,-0.8139,0.0,0.0,0.0,0.0,0.0,0.0,0.0,0.0,0.0,0.0,0.0,0.0,0.0,0.0,0.0,0.0,0.0,0.0,0.0,0.0,0.0,0.0,0.0,0.0,0.0,0.0,0.0,0.0,0.0339,0.037,0.0353,0.0,0.0,0.0,0.0,0.0,0.0,0.0,0.0,0.0,0.0,-0.0185,0.0027,0.0541,0.0594,-0.0322,-0.03,0.0,0.0508,0.0694,0.0842,0.0985,0.0,0.0,0.0,0.0,0.0,0.0,0.0,0.0,0.0,0.0,0.0,0.0,0.0,0.0,0.0,0.0,0.0,0.0,0.0,0.0,0.0,0.0,0.0,0.0,0.0,0.0,0.0,0.0,0.0,0.0,-0.6511,0.0,0.0,0.0,0.0,0.0,0.0,0.0,0.0,0.0,0.0,0.0,0.0,0.0,0.0,0.0,0.0,0.0,0.0,0.0,0.0,0.0,0.0,-0.9936,-1.0014,-1.061,-1.0765,-1.0497,-1.016,-0.9841,-0.9502,-0.9025,-0.8557,-0.8087,0.0,0.0,0.0,0.0,0.0,0.0,0.0,0.0,0.0,0.0,0.0,0.0,0.0,0.0,0.0,0.0,0.0,0.0,0.0,0.0,0.0,0.0,0.0,0.0,0.0,0.0,0.0097,0.0106,0.0128,0.0,0.0,0.0,0.0,0.0,0.0,0.0,0.0,0.0,0.0,-0.1135,-0.1096,-0.1122,-0.0486,-0.0285,-0.1177,-0.1291,-0.1063,-0.0477,-0.0364,-0.0257,0.0,0.0,0.0,0.0,0.0,0.0,0.0,0.0,0.0,0.0,0.0,0.0,0.0,0.0,0.0,0.0,0.0,0.0,0.0,0.0,0.0,0.0,0.0,0.0,0.0,0.0,0.0,-0.9756,-0.9475,0.0,0.0,0.0,0.0,0.0,0.0,0.0,0.0,0.0,0.0,0.0,-1.2846,-1.3383,0.0,0.0,0.0,0.0,0.0,0.0,0.0,0.0,0.0,0.0,0.0,0.0,-1.0159,-1.0158,-1.0833,-1.1029,-1.0718,-1.0411,-1.0085,-0.9724,-0.9316,-0.8697,-0.7803,0.0,0.0,0.0,0.0,0.0,0.0,0.0,0.0,0.0,0.0,0.0,0.0,0.0,0.0,0.0,0.0,0.0,0.0,0.0,0.0,0.0,0.0,0.0,0.0,0.0,-0.0183,0.0,0.0,0.0,0.0,0.0,0.0,0.0,0.0,0.0,0.0,0.0,-0.2209,-0.2494,-0.2344,-0.2003,-0.1365,-0.1183,-0.1542,0.0,0.0,0.0,0.0,0.0,0.0,0.0,0.0,0.0,0.0,0.0,0.0,0.0,0.0,0.0431,0.1315,0.1547,0.1644,0.1778,0.0,0.0,0.0,0.0,0.0,0.0,0.0,0.0,0.0,0.0,0.0,0.0,0.0,0.0,-1.1646,0.0,-1.176,0.0,0.0,0.0,0.0,0.0,0.0,0.0,0.0,-1.3951,-1.4622,-1.4971,-1.5446,-1.5689,0.0,-1.4908,-1.3891,0.0,0.0,0.0,0.0,0.0,0.0,0.0,0.0,-1.1026,-1.1015,-1.1656,-1.1866,-1.1593,-1.1303,-1.0978,-1.0564,-0.9901,-0.904,-0.7986,-0.707,-0.6164,0.0,0.0,0.0,0.0,0.0,0.0,0.0,0.0,0.0,0.0,0.0,0.0,0.0,0.0,0.0,0.0,0.0,0.0,0.0,0.0,0.0,0.0,0.0,-0.047,0.0,0.0,0.0,0.0,0.0,0.0,0.0,0.0,0.0,-0.1685,-0.2274,-0.2918,-0.3318,-0.308,-0.273,-0.2359,0.0,0.0,0.0,0.0,0.0,0.0,0.0,-0.2245,-0.2036,-0.1745,-0.1491,-0.1235,-0.0613,-0.0326,-0.0896,0.0,0.0,0.042,0.0816,0.0969,0.1082,0.1193,0.1283,0.1442,0.1548,0.1568,0.0,0.0,0.0,0.0,0.0,0.0,0.0,0.0,-1.2411,-1.2654,0.0,-1.2822,0.0,0.0,0.0,0.0,0.0,-1.3385,0.0,0.0,-1.667,-1.7597,-1.7694,-1.7694,-1.7725,-1.7676,-1.6602,-1.6074,-1.5942,-1.3938,0.0,0.0,0.0,0.0,0.0,0.0,-1.2451,-1.2506,-1.3011,-1.3235,-1.3073,-1.2761,-1.2397,-1.1939,-1.0692,-0.9586,-0.8675,-0.7917,-0.7197,-0.6498,-0.5185,0.0,0.0,0.0,0.0,0.0,0.0,0.0,0.0,0.0,0.0,0.0,0.0,0.0,0.0,0.0,0.0,0.0,0.0,0.0,0.0,-0.0836,0.0,0.0,0.0,0.0,0.0,0.0,0.0,0.0,0.0,0.0,-0.2845,-0.3004,-0.3313,-0.3737,0.0,0.0,0.0,0.0,-0.2838,-0.457,-0.5115,-0.5045,-0.4169,-0.3871,-0.3592,-0.3207,0.0,0.0,-0.2423,-0.1781,-0.1446,-0.1776,-0.2215,-0.2099,-0.0654,-0.0205,0.0017,0.0169,0.0304,0.0405,0.049,0.0758,0.0863,-1.66,0.0,0.0,0.0,0.0,-1.4934,-1.5247,-1.5708,-1.5854,-1.5931,-1.6009,-1.6106,0.0,0.0,0.0,0.0,0.0,0.0,-1.6621,-1.719,-1.7644,-1.8077,-1.8481,-1.8497,-1.8468,-1.8407,-1.8068,-1.792,-1.7874,-1.7305,-1.5546,-1.2796,0.0,0.0,0.0,0.0,-1.2697,-1.3008,-1.3279,-1.3368,-1.3182,-1.2899,-1.2425,-1.1805,-1.0806,-1.0023,-0.9467,-0.8619,-0.766,-0.6625,-0.5959,0.0,0.0,0.0,0.0,0.0,0.0,0.0,0.0,0.0,0.0,0.0,0.0,0.0,0.0,0.0,0.0,0.0,0.0,0.0,-0.1574,-0.1625,-0.1636,0.0,0.0,0.0,0.0,0.0,0.0,0.0,0.0,0.0,-0.4285,-0.4173,-0.4391,0.0,0.0,-0.473,-0.4647,-0.457,-0.5031,-0.6504,-0.6647,0.0,0.0,-0.4877,-0.4516,-0.4219,-0.3797,-0.3438,-0.3253,-0.2804,-0.2513,-0.2686,-0.3156,-0.3203,-0.2336,-0.1394,-0.0763,-0.055,-0.0357,-0.0188,-0.0038,0.0094,0.0112,-1.963,-1.839,-1.6998,-1.6528,-1.6693,-1.6733,-1.7049,-1.7517,-1.7682,-1.7815,-1.7947,-1.7993,-1.7797,-1.7481,-1.728,0.0,0.0,0.0,-1.8075,-1.8849,-1.8806,-1.9119,-1.97,-1.9716,-1.9685,-1.9623,-1.9322,-1.9165,-1.9165,-1.864,-1.7247,-1.5016,0.0,0.0,-1.3202,-1.3559,-1.3836,-1.4039,-1.4294,-1.4316,-1.4066,-1.367,-1.3048,-1.2275,-1.158,-1.0943,-1.0295,-0.9406,-0.8474,-0.7548,-0.6702,-0.571,0.0,0.0,0.0,0.0,0.0,0.0,0.0,0.0,0.0,0.0,0.0,-0.2074,0.0,0.0,0.0,0.0,-0.226,-0.2188,-0.2207,-0.2251,0.0,0.0,0.0,0.0,0.0,0.0,0.0,-0.5344,-0.5295,-0.5268,-0.5539,-0.5485,-0.5559,-0.596,-0.6087,-0.5999,-0.5636,0.0,-0.6818,-0.7453,-0.7498,-0.7197,-0.6432,-0.5945,-0.5514,-0.5097,-0.461,-0.4253,-0.4152,-0.3771,-0.3502,-0.3587,-0.3899,-0.4008,-0.342,-0.2642,-0.1897,-0.1413,-0.1158,-0.0973,-0.0787,-0.0715,-0.0666,-2.2098,-2.177,-1.8484,-1.7327,-1.7668,-1.7697,-1.7992,-1.8435,-1.8593,-1.8827,-1.9095,-1.8947,-1.877,-1.8591,-1.7892,0.0,-1.8445,-1.8494,-1.9174,-2.019,-2.0269,-2.0638,-2.1295,-2.1231,-2.1215,-2.1183,-2.0384,-1.9987,-1.9924,-1.8756,-1.8063,-1.7878,-1.7284,-1.637,-1.525,-1.5464,-1.5565,-1.5479,-1.5707,-1.5668,-1.5359,-1.4763,-1.4031,-1.3185,-1.2752,-1.2074,-1.1119,-1.0243,-0.9522,-0.892,-0.7478,-0.6481,-0.6037,0.0,0.0,0.0,0.0,0.0,0.0,0.0,0.0,0.0,0.0,0.0,0.0,0.0,0.0,0.0,-0.305,0.0,-0.2829,-0.2856,0.0,0.0,0.0,-0.3253,-0.2923,-0.404,-0.5218,-0.6195,0.0,0.0,-0.6614,-0.6827,-0.6808,-0.6445,-0.6833,-0.7097,-0.6913,-0.76,-0.8073,-0.7815,-0.794,-0.7872,-0.7367,-0.6943,-0.6485,-0.587,-0.5453,-0.5173,-0.5038,-0.4657,-0.4408,-0.4425,-0.4552,-0.4556,-0.417,-0.3822,-0.3385,-0.2465,-0.2069,-0.1847,-0.169,-0.158,-0.1498,-2.2921,-2.2378,-2.1526,-2.1056,-2.0901,-2.0992,-2.1157,-2.1298,-2.144,-2.1338,-2.1026,-2.1044,-2.0846,-2.0517,-2.0341,-2.0372,-2.058,-2.1192,-2.163,-2.194,-2.259,-2.2997,-2.3111,-2.2492,-2.2135,-2.2037,-2.1279,-2.0815,-2.0639,-2.0337,-1.9712,-1.8833,-1.8563,-1.7829,-1.6654,-1.6632,-1.6753,-1.6964,-1.6399,-1.5781,-1.5119,-1.4794,-1.4363,-1.3803,-1.3092,-1.2456,-1.1854,-1.0987,-1.0098,-0.9171,-0.8518,-0.7586,-0.629,-0.561,0.0,0.0,0.0,0.0,0.0,0.0,0.0,0.0,0.0,-0.3114,-0.2841,0.0,-0.3405,0.0,-0.4114,-0.4218,-0.3935,-0.4095,0.0,0.0,-0.4646,-0.4518,-0.38,-0.4582,-0.5756,-0.7173,-0.7078,-0.6994,-0.7312,-0.7798,-0.8103,-0.8117,-0.7913,-0.7773,-0.7738,-0.7892,-0.8263,-0.8744,-0.8673,-0.8436,-0.8103,-0.7617,-0.7051,-0.655,-0.6209,-0.5932,-0.5658,-0.5301,-0.5133,-0.5306,-0.5215,-0.5089,-0.4932,-0.4622,-0.4268,-0.3825,-0.3183,-0.261,-0.2462,-0.2328,-0.2225,-2.4131,-2.3507,-2.3491,-2.3371,-2.3128,-2.2601,-2.2396,-2.2437,-2.258,-2.2491,-2.224,-2.2401,-2.2334,-2.2148,-2.2198,-2.2248,-2.2362,-2.2785,-2.303,-2.3112,-2.3571,-2.3801,-2.3785,-2.3309,-2.3014,-2.2914,-2.2458,-2.2132,-2.1916,-2.1579,-2.1005,-2.021,-1.9845,-1.9207,-1.8265,-1.7475,-1.7132,-1.7228,-1.6764,-1.6217,-1.5658,-1.5361,-1.4854,-1.4022,-1.3448,-1.285,-1.2206,-1.1447,-1.0631,-0.9763,-0.9244,-0.8477,-0.7379,-0.6966,-0.6363,0.0,0.0,0.0,0.0,0.0,0.0,0.0,0.0,0.0,0.0,0.0,-0.4471,0.0,-0.5211,-0.5342,-0.503,-0.517,-0.5336,-0.5465,-0.5477,-0.5354,-0.5006,-0.5595,-0.6592,-0.8096,-0.8055,-0.7986,-0.82,-0.857,-0.8865,-0.9024,-0.8957,-0.8828,-0.8655,-0.854,-0.8689,-0.9308,-0.9268,-0.8955,-0.8529,-0.8049,-0.7614,-0.7217,-0.6888,-0.6607,-0.6386,-0.5922,-0.5701,-0.5938,-0.5895,-0.5717,-0.5539,-0.5193,-0.4862,-0.4622,-0.418,-0.3649,-0.3236,-0.3103,-0.3025,-2.5498,-2.4931,-2.4936,-2.4936,-2.4842,-2.3599,-2.302,-2.2908,-2.3035,-2.308,-2.3095,-2.3234,-2.3325,-2.3342,-2.3461,-2.353,-2.3583,-2.3698,-2.3814,-2.3932,-2.4064,-2.4097,-2.4114,-2.4015,-2.3899,-2.3747,-2.3597,-2.3409,-2.3168,-2.2505,-2.1936,-2.1523,-2.0908,-2.027,-1.9607,-1.8173,-1.7308,-1.702,-1.7017,-1.6803,-1.6313,-1.5975,-1.5201,-1.3984,-1.3669,-1.3159,-1.2399,-1.1736,-1.1118,-1.0502,-0.9814,-0.9224,-0.8734,-0.8434,-0.7958,0.0,-0.6933,0.0,0.0,0.0,0.0,0.0,0.0,0.0,0.0,-0.575,-0.5841,-0.6075,-0.6316,-0.636,-0.6135,-0.6174,-0.6318,-0.6497,-0.6218,-0.614,-0.6458,-0.69,-0.7663,-0.8947,-0.8996,-0.8975,-0.905,-0.9217,-0.9377,-0.9558,-0.9797,-0.9818,-0.9549,-0.9293,-0.9273,-0.9648,-0.9695,-0.9415,-0.8785,-0.8451,-0.8193,-0.785,-0.751,-0.7273,-0.7112,-0.6611,-0.6282,-0.6432,-0.6453,-0.6319,-0.6034,-0.5653,-0.5371,-0.5231,-0.5014,-0.4644,-0.4027,-0.3781,-0.3691,-2.6751,-2.664,-2.6699,-2.6709,-2.6646,-2.5922,-2.5215,-2.4567,-2.4571,-2.4404,-2.4069,-2.3531,-2.3343,-2.3479,-2.3496,-2.3497,-2.3546,-2.4254,-2.4603,-2.4653,-2.5385,-2.5753,-2.5703,-2.5072,-2.4706,-2.4537,-2.3911,-2.3462,-2.32,-2.3039,-2.2364,-2.1229,-2.1038,-2.0414,-1.935,0.0,0.0,0.0,-1.7743,-1.7151,-1.5891,-1.5395,-1.464,-1.3569,-1.3353,0.0,-1.272,-1.2208,-1.162,-1.0931,-1.0445,0.0,0.0,0.0,0.0,0.0,0.0,0.0,0.0,0.0,0.0,0.0,-0.8632,-0.7898,-0.677,-0.6896,-0.7055,-0.7103,-0.7253,-0.7315,-0.7199,-0.741,-0.7592,-0.7728,-0.7679,-0.7728,-0.7966,-0.8338,-0.887,-0.9468,-0.9645,-0.9617,-0.9529,-0.9686,-0.9882,-0.9981,-1.0167,-1.0273,-1.0147,-0.9932,-0.9892,-1.0108,-0.998,-0.9636,-0.9228,-0.8958,-0.8704,-0.8398,-0.8062,-0.7801,-0.76,-0.7377,-0.7097,-0.6943,-0.6802,-0.6675,-0.6511,-0.6126,-0.5847,-0.5847,-0.5674,-0.535,-0.4731,-0.4371,-0.4173,-2.7593,0.0,-2.729,-2.7295,0.0,-2.6974,-2.6622,-2.6246,-2.5484,-2.5032,-2.4866,-2.4586,-2.4495,-2.4515,-2.4531,-2.476,-2.5139,-2.5589,-2.5828,-2.5954,-2.6424,-2.6497,-2.6169,-2.5734,-2.543,-2.5324,-2.4837,-2.4461,-2.4225,-2.3816,-2.3199,-2.2327,-2.2013,-2.1268,-2.0161,-1.9687,-1.9139,-1.8541,-1.8531,-1.8028,-1.7124,-1.6753,-1.6024,-1.4892,0.0,0.0,0.0,0.0,0.0,0.0,0.0,0.0,0.0,0.0,0.0,-1.0348,-1.0108,-0.9853,-0.9658,-1.0026,-1.0446,-1.0841,-1.0663,-0.9921,-0.843,-0.873,-0.8884,-0.8706,-0.8744,-0.8679,-0.8425,-0.8511,-0.8629,-0.8675,-0.8596,-0.859,-0.8732,-0.9368,-0.9863,-1.0098,-1.0118,-1.0079,-1.0099,-1.0244,-1.039,-1.0476,-1.064,-1.0727,-1.0602,-1.0419,-1.0341,-1.0428,-1.0225,-0.9951,-0.9695,-0.9408,-0.9188,-0.8918,-0.8594,-0.8329,-0.8214,-0.7974,-0.7725,-0.7496,-0.7273,-0.7105,-0.6956,-0.6611,-0.6328,-0.6334,-0.619,-0.5933,-0.5529,-0.5057,-0.4646,-2.8308,-2.7785,-2.7806,-2.7806,-2.7806,-2.7682,-2.7632,-2.7533,0.0,0.0,0.0,-2.5915,-2.5969,-2.5988,-2.5969,-2.6335,-2.6964,-2.6981,-2.7078,-2.7235,-2.7254,-2.6916,-2.633,-2.6224,-2.6051,-2.5862,-2.5691,-2.5502,-2.5278,-2.4605,-2.403,-2.3573,-2.3054,-2.2263,-2.1274,-2.0419,-1.9834,-1.9545,-1.9198,-1.8812,-1.8414,-1.8145,-1.746,-1.6253,-1.6035,-1.5619,-1.5012,-1.4749,-1.4495,-1.4203,-1.3832,-1.348,-1.3101,-1.2853,-1.2602,-1.233,-1.217,-1.2195,-1.2405,-1.2299,-1.2319,-1.2547,-1.2328,-1.1608,-1.0255,-1.0536,-1.0635,-1.0307,-1.0267,-1.0094,-0.9652,-0.9607,-0.9551,-0.9507,-0.9288,-0.9177,-0.9297,-1.0079,-1.0678,-1.0697,-1.0544,-1.0505,-1.0668,-1.0753,-1.0859,-1.1002,-1.121,-1.1189,-1.1004,-1.0783,-1.0697,-1.0708,-1.0525,-1.0303,-1.0108,-0.9813,-0.9578,-0.9439,-0.9059,-0.8825,-0.8756,-0.8472,-0.818,-0.8002,-0.778,-0.7572,-0.7419,-0.7097,-0.6838,-0.6831,-0.6632,-0.6447,-0.631,-0.5792,-0.5209,-2.9272,-2.9214,-2.9325,-2.9376,-2.9327,-2.8839,-2.8267,-2.7668,-2.7454,-2.7357,-2.7373,-2.7377,-2.7413,-2.7393,-2.7397,-2.7478,-2.7579,-2.7692,-2.7753,-2.7793,-2.7856,-2.7506,-2.6817,-2.6784,-2.64,-2.5768,-2.5637,-2.5502,-2.5294,-2.5008,-2.4445,-2.3678,-2.3445,-2.2863,-2.1881,-2.1061,-2.0591,-2.0486,-1.9554,-1.8719,-1.8008,-1.7577,-1.6908,-1.5992,-1.5787,-1.5565,-1.5344,-1.4934,-1.4641,-1.4511,-1.4105,-1.3814,-1.3764,-1.3428,-1.3166,-1.3128,-1.2949,-1.297,-1.3312,-1.3379,-1.3586,-1.3882,-1.3784,-1.3074,-1.1669,-1.1494,-1.1446,-1.1378,-1.1356,-1.1213,-1.0826,-1.0758,-1.0612,-1.0312,-1.003,-0.9941,-1.0079,-1.0688,-1.1139,-1.1191,-1.1002,-1.0983,-1.1179,-1.1233,-1.1378,-1.1483,-1.1885,-1.1914,-1.1431,-1.1069,-1.1069,-1.1061,-1.085,-1.064,-1.0486,-1.0244,-1.0,-0.9921,-0.9507,-0.9219,-0.9219,-0.8878,-0.8561,-0.8345,-0.8111,-0.7938,-0.7884,-0.7579,-0.7328,-0.7265,-0.7013,-0.6829,-0.6781,-0.6391,-0.5906,-2.972,-2.972,-2.9786,-2.9808,-2.9776,-2.9518,-2.92,-2.8887,-2.8823,-2.8354,-2.7737,-2.7721,-2.7643,-2.7598,-2.7582,-2.7771,-2.8083,-2.8125,-2.822,-2.8299,-2.8325,-2.7977,-2.7367,-2.7279,-2.6814,-2.6163,-2.5988,-2.5659,-2.5155,-2.4962,-2.461,-2.4062,-2.3522,-2.2969,-2.243,-2.1663,-2.1105,-2.0673,-1.9863,-1.923,-1.8839,-1.8543,-1.8145,-1.7631,-1.741,-1.7219,-1.7084,-1.6665,-1.6359,-1.6177,-1.58,-1.5479,-1.5201,-1.4849,-1.4607,-1.4492,-1.4277,-1.4204,-1.4361,-1.4362,-1.4406,-1.4501,-1.4418,-1.4059,-1.3381,-1.2921,-1.2592,-1.2392,-1.2339,-1.2189,-1.1753,-1.1724,-1.1643,-1.1552,-1.0924,-1.0535,-1.0649,-1.1164,-1.1738,-1.2184,-1.1977,-1.1893,-1.2243,-1.2404,-1.2522,-1.2595,-1.2867,-1.2869,-1.2419,-1.2375,-1.2127,-1.151,-1.1145,-1.0983,-1.0869,-1.0582,-1.039,-1.0341,-0.9971,-0.9686,-0.9596,-0.9268,-0.8967,-0.8753,-0.8529,-0.8357,-0.8234,-0.7946,-0.7725,-0.7566,-0.7391,-0.7223,-0.7064,-0.6739,-0.6162,-2.9896,-2.9896,-2.9896,-2.9896,-2.9896,-2.9896,-2.988,-2.9852,-2.9748,-2.9091,-2.8204,-2.8123,-2.8044,-2.7939,-2.7939,-2.8201,-2.8606,-2.8654,-2.8714,-2.8795,-2.8795,-2.8469,-2.7883,-2.774,-2.735,-2.672,-2.6504,-2.5964,-2.5266,-2.5058,-2.476,-2.4385,-2.3611,-2.3167,-2.3013,-2.2294,-2.1665,-2.1141,-2.0333,-1.9836,-1.9629,-1.9501,-1.9358,-1.9176,-1.8912,-1.8725,-1.8537,-1.8149,-1.7848,-1.7591,-1.724,-1.6863,-1.6454,-1.6095,-1.5822,-1.5625,-1.5379,-1.5233,-1.5176,-1.5096,-1.5006,-1.4926,-1.4811,-1.4765,-1.4708,-1.4257,-1.3757,-1.3394,-1.3308,-1.3109,-1.2731,-1.2625,-1.2648,-1.2594,-1.1906,-1.1341,-1.1217,-1.1799,-1.2555,-1.3279,-1.3028,-1.2889,-1.3245,-1.3481,-1.3627,-1.3707,-1.387,-1.3861,-1.3807,-1.3836,-1.3297,-1.2639,-1.1913,-1.1497,-1.1359,-1.1016,-1.0775,-1.0678,-1.0361,-1.0108,-0.9932,-0.9646,-0.9408,-0.9205,-0.8955,-0.8744,-0.8549,-0.8283,-0.8049,-0.7899,-0.7725,-0.751,-0.7294,-0.6943,-0.6386,-2.9935,-2.9896,-2.9929,-2.9896,-2.9896,-2.9896,-2.983,-2.9742,-2.9681,-2.9582,-2.9269,-2.9326,-2.9278,-2.9326,-2.9278,-2.931,-2.9345,-2.9384,-2.9368,-2.9368,-2.9422,-2.9022,-2.8366,-2.8318,-2.795,-2.7332,-2.7026,-2.6551,-2.5904,-2.5529,-2.5018,-2.4305,-2.4006,-2.3803,-2.3616,-2.2969,-2.2583,-2.2493,-2.1261,-2.0318,-1.9735,-1.9629,-1.952,-1.9376,-1.9157,-1.8946,-1.8673,-1.8361,-1.8083,-1.7862,-1.7427,-1.7086,-1.6842,-1.6454,-1.6173,-1.5979,-1.5748,-1.5582,-1.539,-1.5401,-1.5401,-1.5345,-1.5255,-1.521,-1.5222,-1.504,-1.4777,-1.4378,-1.425,-1.4034,-1.3641,-1.3565,-1.3499,-1.3307,-1.2982,-1.2533,-1.2135,-1.2958,-1.385,-1.3897,-1.3799,-1.3712,-1.3839,-1.3968,-1.4178,-1.4587,-1.4634,-1.4751,-1.498,-1.4799,-1.4712,-1.4576,-1.3606,-1.2412,-1.2121,-1.158,-1.1181,-1.0947,-1.0697,-1.0467,-1.0264,-1.0069,-0.9862,-0.9585,-0.9375,-0.9116,-0.8874,-0.8651,-0.8373,-0.825,-0.8036,-0.7787,-0.7515,-0.72,-0.6718,-3.0878,-3.0483,-3.049,-3.0202,-2.9824,-2.9786,-2.972,-2.9586,-2.9502,-2.9418,-2.9366,-2.9213,-2.9236,-2.9389,-2.9389,-2.9298,-2.9144,-2.9167,-2.9137,-2.9084,-2.9099,-2.8926,-2.8674,-2.8642,-2.828,-2.7611,-2.7453,-2.7042,-2.6293,-2.5657,-2.4888,-2.4143,-2.394,-2.3818,-2.3666,-2.3362,-2.3077,-2.2688,-2.2164,-2.1365,-2.0378,-1.9823,-1.9538,-1.9395,-1.9209,-1.9007,-1.8774,-1.8517,-1.8248,-1.7975,-1.7733,-1.744,-1.7073,-1.682,-1.6552,-1.6328,-1.61,-1.5893,-1.5647,-1.5659,-1.5625,-1.5524,-1.5458,-1.5401,-1.5424,-1.5379,-1.5232,-1.5085,-1.4915,-1.471,-1.4541,-1.4519,-1.4484,-1.4425,-1.4215,-1.4013,-1.4067,-1.4584,-1.505,-1.5026,-1.4588,-1.4476,-1.4858,-1.506,-1.5271,-1.5519,-1.5577,-1.5608,-1.5678,-1.5465,-1.5475,-1.547,-1.4539,-1.3501,-1.274,-1.2177,-1.1732,-1.1335,-1.0983,-1.0717,-1.0563,-1.0332,-1.0108,-0.9921,-0.9645,-0.9346,-0.9024,-0.8915,-0.872,-0.8549,-0.8291,-0.8023,-0.7814,-0.7669,-0.7454,-3.1681,-3.1195,-3.0962,-3.0393,-2.9697,-2.9675,-2.957,-2.9434,-2.9328,-2.9259,-2.919,-2.899,-2.899,-2.9144,-2.9144,-2.9052,-2.8889,-2.8873,-2.8858,-2.8794,-2.881,-2.8794,-2.881,-2.8794,-2.8529,-2.8069,-2.7968,-2.7519,-2.6663,-2.5623,-2.4828,-2.4258,-2.3945,-2.3739,-2.3595,-2.3595,-2.3385,-2.2987,-2.2808,-2.2224,-2.1276,-2.0382,-1.9749,-1.9424,-1.9265,-1.9082,-1.8855,-1.8659,-1.8406,-1.8088,-1.7955,-1.772,-1.7274,-1.7086,-1.6842,-1.6522,-1.6371,-1.6166,-1.5925,-1.5903,-1.5881,-1.578,-1.5714,-1.5703,-1.5691,-1.5669,-1.5669,-1.5669,-1.5491,-1.5356,-1.521,-1.5187,-1.5244,-1.5335,-1.5154,-1.5222,-1.5399,-1.5714,-1.5866,-1.5854,-1.5367,-1.5217,-1.5704,-1.592,-1.6017,-1.6107,-1.6154,-1.6156,-1.5959,-1.5881,-1.5883,-1.5792,-1.5282,-1.455,-1.3405,-1.2896,-1.2441,-1.1894,-1.1482,-1.1218,-1.0872,-1.0534,-1.0312,-1.0127,-0.9902,-0.9654,-0.9346,-0.9185,-0.8935,-0.8651,-0.8427,-0.827,-0.8118,-0.8082,-0.8062,-3.1972,-3.1843,-3.1071,-3.0341,-2.9691,-2.9579,-2.945,-2.9305,-2.9282,-2.9152,-2.8951,-2.8881,-2.8865,-2.8873,-2.8904,-2.8834,-2.881,-2.8888,-2.8919,-2.8911,-2.8864,-2.8841,-2.881,-2.881,-2.8794,-2.8685,-2.8497,-2.799,-2.7071,-2.5757,-2.494,-2.4731,-2.4158,-2.3732,-2.3595,-2.3595,-2.358,-2.3445,-2.3032,-2.2643,-2.2433,-2.1286,-2.0295,-1.9564,-1.9376,-1.9261,-1.8998,-1.8803,-1.8562,-1.8285,-1.8069,-1.774,-1.7425,-1.724,-1.6989,-1.6573,-1.65,-1.6371,-1.621,-1.6178,-1.6166,-1.6156,-1.6122,-1.6156,-1.6113,-1.6069,-1.6047,-1.6156,-1.6047,-1.5859,-1.557,-1.5513,-1.5501,-1.5536,-1.5659,-1.5659,-1.5536,-1.5935,-1.6156,-1.6156,-1.6027,-1.5969,-1.6144,-1.62,-1.621,-1.6222,-1.6222,-1.62,-1.62,-1.6186,-1.6064,-1.5905,-1.5722,-1.5411,-1.4522,-1.3803,-1.3153,-1.2549,-1.2171,-1.1908,-1.1269,-1.0745,-1.0544,-1.0312,-1.0049,-0.9823,-0.9634,-0.9366,-0.9036,-0.8765,-0.8622,-0.8488,-0.8386,-0.827,-0.8258,-3.2991,-3.2402,-3.1194,-3.0475,-3.0089,-2.9619,-2.9298,-2.9167,-2.9082,-2.899,-2.8881,-2.8771,-2.8941,-2.9313,-2.9215,-2.9215,-2.9359,-2.9748,-2.989,-2.9855,-2.983,-2.983,-2.9784,-2.9398,-2.9141,-2.899,-2.8572,-2.7922,-2.712,-2.6416,-2.5681,-2.4874,-2.447,-2.4081,-2.3684,-2.3595,-2.3595,-2.3565,-2.3355,-2.3107,-2.2718,-2.2203,-2.1396,-2.0156,-1.9657,-1.9284,-1.9093,-1.887,-1.8644,-1.8431,-1.8222,-1.7983,-1.772,-1.7399,-1.7086,-1.6791,-1.6663,-1.6556,-1.6414,-1.6362,-1.6297,-1.6253,-1.621,-1.6222,-1.62,-1.6178,-1.6178,-1.62,-1.6178,-1.6069,-1.6003,-1.5947,-1.5935,-1.5935,-1.5969,-1.6003,-1.6057,-1.6219,-1.6371,-1.6297,-1.6275,-1.6318,-1.634,-1.6371,-1.6392,-1.6371,-1.6392,-1.6405,-1.6383,-1.6318,-1.6244,-1.621,-1.5991,-1.5688,-1.5423,-1.459,-1.3872,-1.3241,-1.2745,-1.2274,-1.1698,-1.111,-1.0817,-1.0535,-1.0244,-0.9961,-0.9763,-0.9486,-0.9157,-0.8955,-0.8805,-0.8744,-0.8622,-0.8549,-0.8537,-3.3539,-3.2699,-3.1694,-3.0918,-3.037,-2.9815,-2.9396,-2.9107,-2.8967,-2.8897,-2.8873,-2.8886,-2.9137,-2.9568,-2.9858,-3.0033,-3.0135,-3.0397,-3.0412,-3.0334,-3.0297,-3.0271,-3.0195,-2.9797,-2.9434,-2.9068,-2.8408,-2.7771,-2.7279,-2.6901,-2.6257,-2.5423,-2.4881,-2.438,-2.3969,-2.3714,-2.3595,-2.3595,-2.3595,-2.3385,-2.2996,-2.2793,-2.2243,-2.1267,-2.0463,-1.975,-1.9201,-1.8969,-1.8774,-1.8576,-1.84,-1.8183,-1.7902,-1.7502,-1.7191,-1.6989,-1.6876,-1.6705,-1.6522,-1.6491,-1.6457,-1.6371,-1.634,-1.6297,-1.6297,-1.6297,-1.6309,-1.6309,-1.6297,-1.6297,-1.6297,-1.6297,-1.6275,-1.621,-1.62,-1.6222,-1.6275,-1.6414,-1.6436,-1.6392,-1.6392,-1.6436,-1.6436,-1.6479,-1.65,-1.6513,-1.6513,-1.6513,-1.6479,-1.6432,-1.6398,-1.6457,-1.6241,-1.6035,-1.5808,-1.5257,-1.4557,-1.3937,-1.3403,-1.2844,-1.2186,-1.1577,-1.1042,-1.0768,-1.0458,-1.0137,-0.9842,-0.9576,-0.9357,-0.9157,-0.9068,-0.9019,-0.8947,-0.8866,-0.8834,-3.3496,-3.2842,-3.2563,-3.1667,-3.0617,-3.0236,-2.9753,-2.9233,-2.8959,-2.8873,-2.8982,-2.9335,-2.9521,-2.975,-3.0573,-3.1117,-3.1056,-3.0658,-3.0418,-3.0418,-3.0255,-3.0186,-3.0217,-3.0137,-2.97,-2.9113,-2.8243,-2.7861,-2.7775,-2.7105,-2.6611,-2.6342,-2.533,-2.4739,-2.4575,-2.3984,-2.364,-2.361,-2.3595,-2.3565,-2.352,-2.3047,-2.2703,-2.2482,-2.1747,-2.0749,-1.9463,-1.9179,-1.8956,-1.8711,-1.8556,-1.8288,-1.7922,-1.7577,-1.735,-1.7212,-1.7073,-1.6842,-1.6573,-1.662,-1.662,-1.6522,-1.65,-1.6479,-1.6479,-1.6479,-1.6479,-1.6457,-1.6479,-1.6491,-1.6479,-1.6457,-1.6392,-1.6253,-1.6318,-1.634,-1.6297,-1.6383,-1.6513,-1.6491,-1.65,-1.6513,-1.6513,-1.65,-1.6513,-1.6513,-1.6513,-1.6513,-1.6513,-1.65,-1.65,-1.6513,-1.6414,-1.6262,-1.61,-1.5866,-1.5237,-1.4617,-1.414,-1.3601,-1.2774,-1.2087,-1.1395,-1.0996,-1.0506,-1.0196,-0.9941,-0.9704,-0.9565,-0.9397,-0.9348,-0.9259,-0.9148,-0.9096,-0.9116,-3.3668,-3.3233,-3.2695,-3.2206,-3.1582,-3.0655,-2.999,-2.9658,-2.9116,-2.9044,-2.9319,-2.9444,-2.994,-3.0663,-3.1125,-3.1442,-3.1839,-3.1478,-3.1331,-3.1384,-3.1371,-3.1344,-3.1253,-3.0888,-3.0288,-2.9531,-2.8737,-2.8329,-2.8195,-2.7615,-2.7091,-2.6557,-2.6183,-2.548,-2.4694,-2.438,-2.4103,-2.364,-2.3595,-2.3595,-2.3595,-2.3415,-2.3116,-2.2697,-2.2334,-2.1706,-2.0789,-2.0035,-1.9358,-1.8836,-1.8615,-1.8321,-1.7942,-1.7625,-1.744,-1.7316,-1.7128,-1.6981,-1.6876,-1.6812,-1.6769,-1.6697,-1.6654,-1.6577,-1.6522,-1.65,-1.65,-1.65,-1.6513,-1.6513,-1.6513,-1.6513,-1.647,-1.6414,-1.6436,-1.6436,-1.6426,-1.6457,-1.6513,-1.6513,-1.6513,-1.6513,-1.6513,-1.6513,-1.6513,-1.6513,-1.6513,-1.6513,-1.6513,-1.6513,-1.6513,-1.6513,-1.6479,-1.6436,-1.6231,-1.6025,-1.5592,-1.5082,-1.4635,-1.4102,-1.3318,-1.2661,-1.1923,-1.1157,-1.0654,-1.0283,-1.0039,-0.9862,-0.9744,-0.9605,-0.9525,-0.9417,-0.9317,-0.9297,-0.9317,-3.3694,-3.3455,-3.299,-3.259,-3.2228,-3.1311,-3.0723,-3.0324,-2.9779,-2.9719,-2.9952,-3.0135,-3.0582,-3.1294,-3.1508,-3.1766,-3.2079,-3.1898,-3.1798,-3.1826,-3.1811,-3.1826,-3.1736,-3.1132,-3.0606,-3.003,-2.9334,-2.8831,-2.8577,-2.8184,-2.7619,-2.7076,-2.6722,-2.6213,-2.5307,-2.4829,-2.435,-2.3977,-2.3729,-2.3595,-2.3595,-2.3595,-2.3415,-2.3086,-2.292,-2.2488,-2.1757,-2.1076,-2.0284,-1.9328,-1.8761,-1.8341,-1.8023,-1.7788,-1.7591,-1.7494,-1.7308,-1.7141,-1.7086,-1.6968,-1.6897,-1.6803,-1.6782,-1.6705,-1.662,-1.6565,-1.6577,-1.6522,-1.6513,-1.6513,-1.6513,-1.6513,-1.6513,-1.6513,-1.65,-1.6513,-1.6513,-1.6513,-1.6513,-1.6513,-1.6513,-1.6513,-1.6513,-1.6513,-1.6513,-1.6513,-1.6513,-1.6513,-1.6513,-1.6513,-1.6513,-1.6513,-1.6513,-1.6426,-1.6297,-1.61,-1.5881,-1.5484,-1.5055,-1.4482,-1.3792,-1.3279,-1.2634,-1.1507,-1.0814,-1.039,-1.0127,-1.001,-0.9902,-0.9803,-0.9713,-0.9645,-0.9576,-0.9536,-0.9556,-3.3633,-3.3492,-3.3346,-3.294,-3.2418,-3.2228,-3.1716,-3.1109,-3.0779,-3.0668,-3.0748,-3.1045,-3.1378,-3.1555,-3.1937,-3.2089,-3.2025,-3.1898,-3.1756,-3.1655,-3.1626,-3.1626,-3.1478,-3.1012,-3.07,-3.0492,-2.9951,-2.9355,-2.8936,-2.8622,-2.8278,-2.766,-2.7076,-2.6602,-2.6228,-2.5277,-2.4679,-2.4455,-2.3939,-2.361,-2.3595,-2.3595,-2.358,-2.3535,-2.3448,-2.3109,-2.2492,-2.2108,-2.1341,-2.0001,-1.8984,-1.84,-1.8222,-1.8023,-1.7808,-1.7699,-1.7515,-1.7337,-1.7199,-1.7115,-1.7002,-1.6939,-1.6897,-1.6854,-1.674,-1.6718,-1.6654,-1.6543,-1.6522,-1.6534,-1.65,-1.6513,-1.6513,-1.6513,-1.6513,-1.6513,-1.6513,-1.6513,-1.6513,-1.6522,-1.65,-1.6513,-1.6534,-1.6522,-1.6556,-1.6556,-1.6556,-1.6577,-1.6513,-1.6513,-1.6513,-1.6513,-1.65,-1.6436,-1.634,-1.621,-1.5969,-1.569,-1.5329,-1.4888,-1.435,-1.3861,-1.3119,-1.2006,-1.1085,-1.0646,-1.0303,-1.0224,-1.0087,-0.9951,-0.9902,-0.9902,-0.9842,-0.9774,-0.9794,-3.3555,-3.3346,-3.3335,-3.3198,-3.2961,-3.2529,-3.2136,-3.173,-3.1101,-3.1088,-3.1289,-3.1369,-3.1717,-3.2121,-3.2167,-3.2178,-3.2122,-3.201,-3.194,-3.1883,-3.1868,-3.1741,-3.1539,-3.1331,-3.1212,-3.1107,-3.0582,-3.0178,-2.9939,-2.9071,-2.8532,-2.8323,-2.763,-2.7061,-2.6527,-2.5779,-2.5083,-2.4575,-2.3954,-2.361,-2.3595,-2.3595,-2.3595,-2.3595,-2.3588,-2.3448,-2.3132,-2.2539,-2.1451,-1.9936,-1.8979,-1.8445,-1.8301,-1.8049,-1.7889,-1.7808,-1.7625,-1.7461,-1.7365,-1.7316,-1.7233,-1.7128,-1.7044,-1.6939,-1.6854,-1.6846,-1.6782,-1.6663,-1.6633,-1.6624,-1.6547,-1.655,-1.6538,-1.6513,-1.6538,-1.6513,-1.6513,-1.6513,-1.6513,-1.6534,-1.6599,-1.6599,-1.6607,-1.6671,-1.6769,-1.6748,-1.6727,-1.6727,-1.6607,-1.65,-1.65,-1.6522,-1.65,-1.6457,-1.6371,-1.6253,-1.6078,-1.5836,-1.5557,-1.5276,-1.4801,-1.4395,-1.3465,-1.2424,-1.1665,-1.1125,-1.0765,-1.0517,-1.0331,-1.0184,-1.0019,-0.999,-0.997,-0.9921,-1.001,-3.3555,-3.3309,-3.3293,-3.3293,-3.3261,-3.285,-3.2615,-3.2421,-3.2029,-3.183,-3.1997,-3.1948,-3.2083,-3.2367,-3.2315,-3.2247,-3.2206,-3.2122,-3.2066,-3.1996,-3.1996,-3.187,-3.1655,-3.1553,-3.1496,-3.1481,-3.1107,-3.0748,-3.0372,-2.9475,-2.8906,-2.8487,-2.7929,-2.7405,-2.7061,-2.6348,-2.5689,-2.5046,-2.4365,-2.3902,-2.3625,-2.3595,-2.3595,-2.3595,-2.3595,-2.3566,-2.3398,-2.2664,-2.1574,-2.0399,-1.9504,-1.8962,-1.8781,-1.8325,-1.8029,-1.7955,-1.7774,-1.7632,-1.7543,-1.7481,-1.7399,-1.7308,-1.7191,-1.7086,-1.6981,-1.6952,-1.691,-1.6803,-1.6973,-1.7057,-1.7077,-1.7163,-1.7289,-1.7292,-1.6832,-1.6538,-1.6513,-1.662,-1.665,-1.6684,-1.6727,-1.6812,-1.6778,-1.6876,-1.6931,-1.6952,-1.6867,-1.6833,-1.6735,-1.6629,-1.6543,-1.6599,-1.6543,-1.6479,-1.6392,-1.6297,-1.6178,-1.5925,-1.5625,-1.5413,-1.504,-1.4663,-1.3913,-1.2964,-1.2254,-1.1662,-1.1324,-1.0961,-1.0703,-1.0516,-1.0261,-1.0126,-1.0165,-1.03,-1.036,-3.3555,-3.3335,-3.3293,-3.3293,-3.3293,-3.3293,-3.315,-3.3107,-3.2986,-3.2826,-3.2668,-3.2617,-3.2516,-3.2468,-3.2496,-3.2385,-3.2247,-3.2274,-3.2163,-3.2094,-3.2053,-3.1968,-3.187,-3.1683,-3.1611,-3.1582,-3.1568,-3.1224,-3.0728,-3.0026,-2.934,-2.8786,-2.8109,-2.769,-2.7375,-2.6856,-2.6288,-2.5674,-2.4874,-2.4276,-2.3864,-2.3699,-2.3595,-2.3595,-2.3595,-2.3566,-2.3354,-2.2774,-2.2009,-2.1209,-2.0343,-1.9837,-1.9561,-1.8873,-1.8448,-1.826,-1.8167,-1.7997,-1.7754,-1.7611,-1.7509,-1.7453,-1.747,-1.74,-1.731,-1.7337,-1.7398,-1.7316,-1.7564,-1.776,-1.7805,-1.8155,-1.8236,-1.8098,-1.7301,-1.6785,-1.669,-1.6909,-1.7055,-1.6991,-1.7093,-1.717,-1.7099,-1.7125,-1.7093,-1.7086,-1.7023,-1.6981,-1.6926,-1.6829,-1.6791,-1.6808,-1.6688,-1.6513,-1.6426,-1.6318,-1.62,-1.6003,-1.5681,-1.5379,-1.5006,-1.4606,-1.4144,-1.3502,-1.2913,-1.2401,-1.1961,-1.1613,-1.1209,-1.0968,-1.0787,-1.0604,-1.0488,-1.0723,-1.0842,-3.3607,-3.3466,-3.3361,-3.3293,-3.3293,-3.3293,-3.3293,-3.3256,-3.315,-3.3069,-3.2962,-3.2881,-3.28,-3.2788,-3.2746,-3.2691,-3.2539,-3.2511,-3.2441,-3.2315,-3.2191,-3.2135,-3.2094,-3.1981,-3.1912,-3.184,-3.1784,-3.1637,-3.1321,-3.0636,-2.9968,-2.9352,-2.8648,-2.8124,-2.7555,-2.7016,-2.6557,-2.6198,-2.5232,-2.459,-2.4298,-2.3834,-2.3595,-2.3595,-2.3595,-2.3566,-2.348,-2.331,-2.3024,-2.244,-2.144,-2.0632,-2.0323,-2.0027,-1.9579,-1.9134,-1.8879,-1.857,-1.8052,-1.7916,-1.7774,-1.7751,-1.8009,-1.8123,-1.8013,-1.8332,-1.8466,-1.8436,-1.8497,-1.8526,-1.8534,-1.8526,-1.8657,-1.8571,-1.8204,-1.7808,-1.7708,-1.7983,-1.8228,-1.8202,-1.8219,-1.8089,-1.7379,-1.7705,-1.7605,-1.7308,-1.7157,-1.7136,-1.712,-1.7083,-1.6994,-1.6982,-1.6709,-1.6513,-1.6448,-1.6318,-1.6156,-1.5981,-1.5703,-1.5379,-1.5006,-1.4731,-1.4311,-1.4011,-1.3661,-1.3127,-1.2521,-1.2057,-1.1619,-1.1484,-1.133,-1.1215,-1.1159,-1.1269,-1.1353,-3.372,-3.3581,-3.3529,-3.3477,-3.3477,-3.3477,-3.345,-3.3372,-3.3319,-3.3203,-3.3112,-3.3032,-3.2951,-3.2912,-3.2912,-3.2843,-3.2773,-3.2746,-3.2718,-3.2621,-3.2539,-3.2527,-3.2499,-3.2345,-3.2206,-3.2038,-3.194,-3.1883,-3.1645,-3.1063,-3.0301,-2.9672,-2.8974,-2.8244,-2.769,-2.7225,-2.6926,-2.6452,-2.563,-2.4933,-2.456,-2.3969,-2.3595,-2.3595,-2.3595,-2.3588,-2.3545,-2.3516,-2.3407,-2.3106,-2.2403,-2.1629,-2.1098,-2.0749,-2.0295,-1.9929,-1.9747,-1.9467,-1.9009,-1.8878,-1.8821,-1.8584,-1.8879,-1.8842,-1.8804,-1.9038,-1.9076,-1.9058,-1.9172,-1.9397,-1.9538,-1.9507,-1.9494,-1.9446,-1.9263,-1.9101,-1.907,-1.9354,-1.9374,-1.9091,-1.8804,-1.8689,-1.8509,-1.8506,-1.8519,-1.8375,-1.7342,-1.7261,-1.7517,-1.744,-1.7177,-1.7012,-1.6697,-1.6534,-1.647,-1.6318,-1.6091,-1.5903,-1.5647,-1.5322,-1.4983,-1.4777,-1.4593,-1.4197,-1.3787,-1.3474,-1.2906,-1.2461,-1.2111,-1.1896,-1.1792,-1.1782,-1.177,-1.1755,-1.1833,-3.3822,-3.372,-3.371,-3.3694,-3.3694,-3.3694,-3.3633,-3.3529,-3.3529,-3.3398,-3.3229,-3.3176,-3.3176,-3.3085,-3.3043,-3.3032,-3.3005,-3.2978,-3.2978,-3.2935,-3.2881,-3.287,-3.2843,-3.2691,-3.2499,-3.2165,-3.2053,-3.201,-3.183,-3.1336,-3.0754,-2.9988,-2.9218,-2.8569,-2.7944,-2.76,-2.733,-2.6806,-2.6138,-2.5427,-2.4829,-2.4193,-2.3819,-2.3595,-2.3595,-2.3595,-2.3566,-2.356,-2.3509,-2.3502,-2.3282,-2.2754,-2.2091,-2.1427,-2.0841,-2.0634,-2.057,-2.0336,-1.9961,-1.9925,-1.9866,-1.9778,-1.9843,-1.9737,-1.9584,-1.9676,-1.9727,-1.9728,-1.9872,-2.0244,-2.067,-2.0517,-2.0481,-2.0484,-2.0359,-2.0283,-2.0334,-2.0536,-2.0219,-1.9744,-1.9547,-1.9462,-1.9381,-1.9329,-1.9394,-1.9237,-1.8166,-1.7499,-1.7795,-1.7721,-1.7397,-1.7054,-1.6748,-1.6522,-1.6448,-1.6377,-1.6137,-1.5903,-1.5669,-1.5345,-1.5028,-1.4846,-1.4638,-1.4161,-1.3763,-1.3498,-1.328,-1.2946,-1.2616,-1.2371,-1.2302,-1.237,-1.2323,-1.223,-1.2393,-3.3873,-3.3848,-3.3745,-3.3694,-3.3694,-3.3694,-3.371,-3.3684,-3.3668,-3.3642,-3.3591,-3.3581,-3.3555,-3.3529,-3.3555,-3.3503,-3.3361,-3.3282,-3.3229,-3.3203,-3.315,-3.3112,-3.3069,-3.2962,-3.2816,-3.2679,-3.2416,-3.2234,-3.2135,-3.1886,-3.1301,-3.0631,-2.9897,-2.9155,-2.8404,-2.7944,-2.7565,-2.724,-2.6656,-2.6004,-2.5322,-2.4605,-2.4007,-2.3655,-2.3595,-2.3595,-2.3595,-2.3573,-2.3566,-2.3509,-2.3451,-2.3216,-2.2863,-2.2532,-2.2052,-2.1554,-2.1396,-2.1152,-2.0661,-2.0435,-2.0221,-2.013,-2.0423,-2.0548,-2.0487,-2.0664,-2.0677,-2.0644,-2.0651,-2.0828,-2.0945,-2.0873,-2.0886,-2.0825,-2.0687,-2.0599,-2.0649,-2.0772,-2.0845,-2.0407,-2.0343,-2.028,-2.0147,-2.0013,-1.9921,-1.9751,-1.9081,-1.8451,-1.8389,-1.8018,-1.7457,-1.7118,-1.6812,-1.6586,-1.6414,-1.6346,-1.6183,-1.5981,-1.5736,-1.5468,-1.5176,-1.4949,-1.4638,-1.4231,-1.3844,-1.3552,-1.3372,-1.3263,-1.3104,-1.2819,-1.2866,-1.297,-1.2922,-1.2884,-1.3211,-3.4,-3.4,-3.394,-3.3899,-3.3899,-3.3899,-3.3873,-3.3813,-3.3797,-3.3761,-3.372,-3.3694,-3.3694,-3.3694,-3.3694,-3.3642,-3.3607,-3.3555,-3.3503,-3.3477,-3.345,-3.3398,-3.3398,-3.3282,-3.3176,-3.3043,-3.2784,-3.2539,-3.2413,-3.2274,-3.1769,-3.1019,-3.0285,-2.9501,-2.8733,-2.8046,-2.771,-2.749,-2.6956,-2.6288,-2.557,-2.4687,-2.3939,-2.3714,-2.3595,-2.3595,-2.3595,-2.3595,-2.3573,-2.3545,-2.3531,-2.3444,-2.3305,-2.312,-2.2831,-2.2326,-2.2187,-2.2034,-2.1623,-2.1522,-2.1439,-2.1251,-2.1434,-2.1421,-2.1303,-2.1387,-2.1458,-2.1253,-2.1046,-2.0997,-2.0997,-2.1021,-2.0985,-2.0936,-2.0799,-2.0774,-2.0873,-2.1071,-2.1082,-2.1008,-2.0853,-2.0737,-2.0741,-2.0596,-2.0426,-2.0149,-1.9819,-1.9479,-1.9127,-1.8629,-1.8079,-1.7959,-1.7743,-1.732,-1.7058,-1.6762,-1.6556,-1.6278,-1.5921,-1.563,-1.5324,-1.5108,-1.4764,-1.4361,-1.3999,-1.3681,-1.3505,-1.3382,-1.3317,-1.3266,-1.3243,-1.324,-1.344,-1.361,-1.381,-3.4192,-3.4176,-3.4176,-3.4176,-3.4176,-3.4176,-3.4126,-3.4025,-3.4025,-3.3991,-3.3873,-3.3873,-3.3899,-3.3873,-3.3873,-3.3873,-3.3848,-3.3873,-3.3873,-3.3873,-3.3822,-3.3797,-3.372,-3.3642,-3.3487,-3.3372,-3.3266,-3.3016,-3.2676,-3.2496,-3.2062,-3.1481,-3.0662,-2.9845,-2.912,-2.8439,-2.8011,-2.7525,-2.7121,-2.6452,-2.551,-2.4492,-2.3714,-2.361,-2.3595,-2.3595,-2.3595,-2.3595,-2.3595,-2.3588,-2.3545,-2.3531,-2.3487,-2.3385,-2.3201,-2.2962,-2.2886,-2.2789,-2.2663,-2.2566,-2.2324,-2.2126,-2.2244,-2.2123,-2.1921,-2.1738,-2.1674,-2.1496,-2.1326,-2.1204,-2.1253,-2.1193,-2.1169,-2.1057,-2.0959,-2.086,-2.0959,-2.1131,-2.1361,-2.1313,-2.1204,-2.1106,-2.1019,-2.0921,-2.0697,-2.0671,-2.0353,-2.0298,-1.9959,-1.9648,-1.9253,-1.9173,-1.8889,-1.8346,-1.7911,-1.7412,-1.7165,-1.6892,-1.642,-1.5992,-1.5624,-1.5303,-1.4902,-1.4477,-1.4221,-1.3905,-1.3716,-1.3525,-1.3467,-1.3409,-1.3433,-1.3491,-1.3621,-1.381,-1.3999,-3.4448,-3.4431,-3.4431,-3.4448,-3.4431,-3.4423,-3.4431,-3.4399,-3.4399,-3.4423,-3.4349,-3.4374,-3.4349,-3.4349,-3.4349,-3.4374,-3.4374,-3.4325,-3.43,-3.4275,-3.4226,-3.4126,-3.405,-3.3924,-3.3797,-3.3684,-3.3633,-3.3335,-3.2989,-3.273,-3.2492,-3.2047,-3.1343,-3.0628,-2.9735,-2.8975,-2.8393,-2.7856,-2.753,-2.6826,-2.5734,-2.4859,-2.4186,-2.3804,-2.361,-2.3595,-2.3595,-2.3595,-2.3595,-2.3595,-2.3573,-2.3545,-2.3531,-2.3487,-2.3385,-2.3268,-2.3135,-2.3,-2.2896,-2.2834,-2.2735,-2.2592,-2.2546,-2.2431,-2.2208,-2.1959,-2.1841,-2.1783,-2.1688,-2.164,-2.1602,-2.165,-2.1568,-2.1447,-2.1288,-2.1082,-2.1021,-2.1385,-2.1626,-2.1674,-2.1602,-2.135,-2.1142,-2.1057,-2.0983,-2.097,-2.0955,-2.0873,-2.0693,-2.036,-2.0111,-1.9936,-1.9633,-1.9111,-1.8612,-1.814,-1.7717,-1.744,-1.6927,-1.6394,-1.6021,-1.5626,-1.5017,-1.4616,-1.4361,-1.408,-1.3834,-1.3668,-1.3586,-1.3563,-1.3563,-1.3634,-1.3763,-1.3952,-1.4186,-3.4643,-3.448,-3.448,-3.448,-3.448,-3.448,-3.448,-3.448,-3.448,-3.448,-3.448,-3.448,-3.448,-3.4505,-3.448,-3.4497,-3.4497,-3.4521,-3.4497,-3.4521,-3.4448,-3.4374,-3.4325,-3.425,-3.4151,-3.3949,-3.3899,-3.372,-3.3372,-3.3081,-3.285,-3.2442,-3.1805,-3.0922,-3.0228,-2.9418,-2.8606,-2.7906,-2.73,-2.6761,-2.6048,-2.5211,-2.447,-2.4163,-2.3804,-2.3625,-2.3595,-2.3595,-2.3595,-2.3595,-2.3595,-2.3573,-2.3566,-2.3545,-2.3501,-2.348,-2.3363,-2.3268,-2.3142,-2.3037,-2.2902,-2.2797,-2.2729,-2.2644,-2.2431,-2.2254,-2.2077,-2.2044,-2.1973,-2.1902,-2.1855,-2.1793,-2.1746,-2.165,-2.1626,-2.153,-2.1423,-2.1688,-2.1949,-2.1959,-2.1959,-2.1698,-2.1482,-2.1447,-2.1375,-2.1326,-2.1288,-2.1234,-2.1086,-2.0837,-2.0639,-2.053,-2.0171,-1.9713,-1.9247,-1.8752,-1.8236,-1.7883,-1.7436,-1.692,-1.6515,-1.602,-1.5416,-1.4843,-1.451,-1.4219,-1.396,-1.3787,-1.3716,-1.3716,-1.3705,-1.381,-1.3952,-1.414,-1.4419,-3.4763,-3.4611,-3.4594,-3.4611,-3.4594,-3.4594,-3.4594,-3.4594,-3.4643,-3.4643,-3.4643,-3.4707,-3.4715,-3.4691,-3.4715,-3.4739,-3.4715,-3.4691,-3.4691,-3.4691,-3.4667,-3.4635,-3.4594,-3.4546,-3.4423,-3.4201,-3.4201,-3.4025,-3.3797,-3.3565,-3.3251,-3.2753,-3.223,-3.1446,-3.0622,-2.9847,-2.9007,-2.7846,-2.731,-2.689,-2.6417,-2.5457,-2.4889,-2.444,-2.4007,-2.3595,-2.3595,-2.3595,-2.3595,-2.3595,-2.3595,-2.3595,-2.3573,-2.3573,-2.3573,-2.3566,-2.3516,-2.3458,-2.3326,-2.3231,-2.3098,-2.3008,-2.2888,-2.2766,-2.2652,-2.2546,-2.2454,-2.2301,-2.2231,-2.2137,-2.2044,-2.2006,-2.1983,-2.1959,-2.1912,-2.1888,-2.1949,-2.2161,-2.2254,-2.2254,-2.2231,-2.2161,-2.1973,-2.1926,-2.1807,-2.1688,-2.1616,-2.1568,-2.1375,-2.1131,-2.0934,-2.0761,-2.0544,-2.0136,-1.9771,-1.9293,-1.8783,-1.8376,-1.7934,-1.758,-1.7228,-1.6572,-1.5891,-1.5345,-1.4893,-1.4735,-1.4682,-1.4267,-1.3868,-1.3844,-1.3868,-1.3999,-1.4163,-1.4406,-1.4877,-3.4899,-3.4859,-3.4875,-3.4875,-3.4875,-3.4875,-3.4875,-3.4875,-3.4994,-3.5034,-3.5041,-3.5152,-3.5175,-3.5182,-3.5135,-3.5175,-3.5222,-3.5245,-3.5175,-3.5152,-3.5128,-3.4987,-3.4875,-3.4739,-3.4618,-3.4497,-3.4448,-3.43,-3.4101,-3.3975,-3.3642,-3.3261,-3.2716,-3.2144,-3.1292,-3.0262,-2.9164,-2.8117,-2.7634,-2.7249,-2.6711,-2.5929,-2.5315,-2.4619,-2.4044,-2.361,-2.3595,-2.3595,-2.3595,-2.3595,-2.3595,-2.3595,-2.3595,-2.3595,-2.3595,-2.3595,-2.3588,-2.3551,-2.3501,-2.3385,-2.3297,-2.3194,-2.3061,-2.2888,-2.2826,-2.2698,-2.2592,-2.2569,-2.25,-2.2486,-2.244,-2.2426,-2.2263,-2.224,-2.217,-2.2137,-2.2254,-2.2546,-2.2638,-2.2569,-2.25,-2.237,-2.2324,-2.2208,-2.1996,-2.1855,-2.1712,-2.1664,-2.1434,-2.1191,-2.0995,-2.0835,-2.0749,-2.0484,-2.0219,-1.9788,-1.9409,-1.9083,-1.8695,-1.8371,-1.8084,-1.7332,-1.6746,-1.6198,-1.5851,-1.5617,-1.5354,-1.4977,-1.4583,-1.4161,-1.4131,-1.4545,-1.4898,-1.5228,-1.5776,-3.4899,-3.4923,-3.4994,-3.5034,-3.5018,-3.5018,-3.5065,-3.5152,-3.5198,-3.5222,-3.5222,-3.5285,-3.5308,-3.5308,-3.5308,-3.5308,-3.5308,-3.5308,-3.5308,-3.5308,-3.5222,-3.5198,-3.5088,-3.4994,-3.4859,-3.4756,-3.4667,-3.4546,-3.4349,-3.4226,-3.4025,-3.3668,-3.3251,-3.244,-3.159,-3.0443,-2.9164,-2.8398,-2.7955,-2.7659,-2.7349,-2.6654,-2.597,-2.5241,-2.4575,-2.3992,-2.3663,-2.361,-2.3595,-2.3595,-2.3595,-2.3595,-2.3595,-2.3595,-2.3595,-2.3595,-2.3595,-2.3595,-2.3573,-2.348,-2.3385,-2.3297,-2.3194,-2.3098,-2.3007,-2.2925,-2.2834,-2.2789,-2.2743,-2.2743,-2.2592,-2.2486,-2.2379,-2.2402,-2.2417,-2.237,-2.25,-2.2775,-2.2843,-2.2729,-2.2661,-2.2569,-2.2523,-2.25,-2.2231,-2.1996,-2.1878,-2.1736,-2.153,-2.1323,-2.1153,-2.097,-2.0885,-2.0699,-2.0422,-2.0233,-2.0029,-1.9697,-1.9354,-1.8999,-1.8683,-1.8638,-1.8035,-1.7422,-1.683,-1.6618,-1.6283,-1.5795,-1.5403,-1.5056,-1.5135,-1.5444,-1.5779,-1.6053,-1.6587,-3.5018,-3.5018,-3.5111,-3.5152,-3.5111,-3.5152,-3.5205,-3.5291,-3.5337,-3.5383,-3.5367,-3.5406,-3.5406,-3.5406,-3.5406,-3.5406,-3.5406,-3.5389,-3.5406,-3.5383,-3.54,-3.5377,-3.5331,-3.5222,-3.5065,-3.497,-3.4875,-3.4756,-3.4546,-3.4333,-3.4201,-3.4,-3.3688,-3.2997,-3.205,-3.05,-2.9275,-2.8679,-2.8213,-2.7995,-2.7775,-2.7112,-2.6621,-2.5826,-2.5084,-2.4425,-2.3962,-2.3767,-2.3595,-2.3595,-2.3595,-2.3595,-2.3595,-2.3595,-2.3595,-2.3595,-2.3595,-2.3595,-2.3573,-2.353,-2.3473,-2.3385,-2.3363,-2.329,-2.3201,-2.3157,-2.3068,-2.2992,-2.2947,-2.288,-2.2752,-2.2669,-2.2623,-2.2661,-2.2601,-2.2578,-2.2646,-2.2843,-2.2865,-2.2843,-2.2789,-2.2735,-2.2652,-2.2606,-2.2431,-2.2208,-2.2067,-2.1949,-2.1817,-2.1589,-2.1334,-2.1177,-2.1033,-2.0822,-2.0598,-2.041,-2.022,-1.9914,-1.9594,-1.9386,-1.9192,-1.9146,-1.8963,-1.827,-1.7789,-1.7595,-1.735,-1.7037,-1.6559,-1.6025,-1.6149,-1.6277,-1.6525,-1.6811,-1.7303,-3.5268,-3.5308,-3.5291,-3.5222,-3.5135,-3.5245,-3.5314,-3.536,-3.5429,-3.552,-3.5554,-3.5577,-3.5577,-3.5571,-3.5549,-3.5549,-3.5549,-3.5571,-3.5571,-3.5549,-3.5498,-3.5475,-3.5429,-3.536,-3.5228,-3.5111,-3.5018,-3.4899,-3.4715,-3.4602,-3.4448,-3.4226,-3.3984,-3.3566,-3.3061,-3.1462,-3.0196,-2.9375,-2.8581,-2.8213,-2.7868,-2.73,-2.6965,-2.638,-2.5595,-2.4949,-2.4395,-2.4014,-2.3789,-2.361,-2.3595,-2.3595,-2.3595,-2.3595,-2.3595,-2.3595,-2.3595,-2.3595,-2.3595,-2.3595,-2.3545,-2.3494,-2.3473,-2.3407,-2.3319,-2.3297,-2.3275,-2.3179,-2.3187,-2.3179,-2.3068,-2.2955,-2.2902,-2.2865,-2.2806,-2.276,-2.282,-2.2941,-2.3,-2.3008,-2.2954,-2.2847,-2.2787,-2.2689,-2.2569,-2.2431,-2.2278,-2.2161,-2.203,-2.1827,-2.1551,-2.1323,-2.118,-2.097,-2.0772,-2.0599,-2.0372,-2.0105,-1.9849,-1.9604,-1.9408,-1.9251,-1.9044,-1.8814,-1.8598,-1.8234,-1.8322,-1.837,-1.7742,-1.7123,-1.6945,-1.7029,-1.7286,-1.7666,-1.8203,-3.5308,-3.5308,-3.54,-3.54,-3.5377,-3.5406,-3.5452,-3.5503,-3.5532,-3.5577,-3.56,-3.5616,-3.5616,-3.5616,-3.5616,-3.5616,-3.5616,-3.5616,-3.5616,-3.5616,-3.5571,-3.5571,-3.5526,-3.5475,-3.5383,-3.5314,-3.5222,-3.5065,-3.4954,-3.4811,-3.4667,-3.4513,-3.4143,-3.3549,-3.258,-3.1315,-3.0322,-2.9555,-2.8854,-2.8356,-2.8107,-2.7829,-2.7452,-2.6985,-2.6283,-2.5611,-2.492,-2.45,-2.414,-2.3781,-2.3706,-2.3655,-2.361,-2.3595,-2.3595,-2.3595,-2.3595,-2.3595,-2.3595,-2.3595,-2.3595,-2.3566,-2.3545,-2.3501,-2.3466,-2.3444,-2.34,-2.3341,-2.3341,-2.3275,-2.3209,-2.3149,-2.3105,-2.309,-2.3031,-2.2896,-2.291,-2.3075,-2.3187,-2.3209,-2.3149,-2.3074,-2.2992,-2.2872,-2.2743,-2.2615,-2.2477,-2.2301,-2.2137,-2.1983,-2.1756,-2.1506,-2.1302,-2.1131,-2.0934,-2.0774,-2.0574,-2.0347,-2.0054,-1.9759,-1.9578,-1.9408,-1.9186,-1.9006,-1.8951,-1.8869,-1.8827,-1.8774,-1.8614,-1.8251,-1.8031,-1.7999,-1.8265,-1.8718,-1.9283,-3.5389,-3.5412,-3.5498,-3.5543,-3.556,-3.5543,-3.5549,-3.56,-3.5616,-3.5616,-3.5616,-3.5616,-3.5616,-3.5616,-3.5616,-3.5616,-3.5616,-3.5616,-3.5616,-3.5616,-3.5616,-3.5616,-3.5594,-3.5566,-3.5498,-3.5469,-3.5337,-3.5198,-3.5065,-3.4923,-3.478,-3.4594,-3.4284,-3.3781,-3.2809,-3.1817,-3.0729,-3.0045,-2.9386,-2.8549,-2.8381,-2.8192,-2.7981,-2.7509,-2.6979,-2.643,-2.575,-2.5198,-2.4747,-2.4251,-2.3989,-2.3863,-2.3751,-2.361,-2.361,-2.3595,-2.3595,-2.3595,-2.3595,-2.3595,-2.3595,-2.3573,-2.3595,-2.3588,-2.356,-2.3538,-2.3494,-2.3451,-2.3407,-2.3385,-2.3363,-2.3305,-2.3282,-2.3275,-2.3209,-2.3053,-2.3098,-2.3275,-2.337,-2.337,-2.3319,-2.3253,-2.3179,-2.306,-2.2925,-2.2812,-2.2675,-2.2477,-2.2278,-2.2137,-2.1983,-2.1746,-2.1496,-2.1302,-2.1131,-2.0934,-2.0749,-2.0574,-2.0309,-2.0003,-1.9773,-1.9604,-1.9408,-1.9225,-1.9172,-1.9119,-1.9131,-1.9042,-1.8982,-1.9022,-1.908,-1.9118,-1.9265,-1.9604,-2.0016,-3.5532,-3.5566,-3.5549,-3.5549,-3.5583,-3.5594,-3.56,-3.5616,-3.5616,-3.5616,-3.5616,-3.5616,-3.5616,-3.5616,-3.5616,-3.5616,-3.5616,-3.5616,-3.5616,-3.5616,-3.5616,-3.5616,-3.5616,-3.5616,-3.5549,-3.552,-3.5429,-3.5314,-3.5152,-3.5041,-3.4923,-3.4691,-3.4399,-3.4078,-3.3401,-3.2309,-3.1297,-3.0613,-2.9579,-2.8864,-2.8589,-2.8477,-2.8319,-2.7953,-2.7527,-2.712,-2.6601,-2.6221,-2.5599,-2.5115,-2.4829,-2.4364,-2.4019,-2.3699,-2.367,-2.3714,-2.3804,-2.3819,-2.364,-2.364,-2.3989,-2.4116,-2.3869,-2.3721,-2.3573,-2.3566,-2.3566,-2.3545,-2.3523,-2.3523,-2.3494,-2.3451,-2.3444,-2.3385,-2.3326,-2.3304,-2.3341,-2.3429,-2.3523,-2.3523,-2.3451,-2.3363,-2.3312,-2.3201,-2.3105,-2.3037,-2.288,-2.2698,-2.25,-2.2278,-2.2161,-2.2053,-2.1793,-2.1496,-2.1326,-2.1131,-2.0934,-2.0774,-2.0598,-2.0334,-2.008,-1.9824,-1.9656,-1.9512,-1.942,-1.9368,-1.9342,-1.9394,-1.9434,-1.9539,-1.9656,-1.9708,-1.9708,-1.9939,-2.0271,-3.4336,-3.4793,-3.481,-3.5131,-3.5566,-3.56,-3.5616,-3.5616,-3.5616,-3.5616,-3.5616,-3.5616,-3.5616,-3.5616,-3.5616,-3.5616,-3.5616,-3.5616,-3.5616,-3.5616,-3.5616,-3.5616,-3.5616,-3.5616,-3.5594,-3.5549,-3.552,-3.5452,-3.5337,-3.5205,-3.5041,-3.4828,-3.4594,-3.4472,-3.3811,-3.2668,-3.1878,-3.0958,-2.9777,-2.9116,-2.8803,-2.8684,-2.8589,-2.8354,-2.8132,-2.7723,-2.7238,-2.6961,-2.6366,-2.5796,-2.5675,-2.5395,-2.5251,-2.5176,-2.5168,-2.5031,-2.4941,-2.4732,-2.4006,-2.4567,-2.5191,-2.5122,-2.488,-2.4167,-2.3854,-2.3655,-2.3655,-2.3595,-2.3595,-2.3566,-2.3566,-2.3523,-2.3523,-2.348,-2.3443,-2.3458,-2.348,-2.3501,-2.3595,-2.3573,-2.3501,-2.3473,-2.3407,-2.3334,-2.3223,-2.3201,-2.309,-2.2888,-2.2684,-2.25,-2.237,-2.2301,-2.2053,-2.1783,-2.1544,-2.135,-2.1155,-2.0972,-2.0822,-2.0635,-2.0384,-2.0156,-1.9965,-1.9823,-1.9707,-1.9603,-1.9512,-1.9617,-1.9746,-1.9901,-2.0016,-2.008,-2.0182,-2.0372,-2.0523,-3.3677,-3.4032,-3.4066,-3.4336,-3.467,-3.4721,-3.4721,-3.4822,-3.5312,-3.5616,-3.5616,-3.5616,-3.5616,-3.5616,-3.5616,-3.5616,-3.5616,-3.5616,-3.5616,-3.5616,-3.5616,-3.5616,-3.5616,-3.5616,-3.5616,-3.5594,-3.5549,-3.552,-3.5452,-3.5291,-3.5111,-3.497,-3.4851,-3.4715,-3.4218,-3.3289,-3.2319,-3.1309,-3.0258,-2.9358,-2.9014,-2.892,-2.8826,-2.8708,-2.8565,-2.8215,-2.7818,-2.7616,-2.7216,-2.6603,-2.6497,-2.6244,-2.6008,-2.5848,-2.5848,-2.5673,-2.565,-2.528,-2.483,-2.5296,-2.6122,-2.6458,-2.5963,-2.5243,-2.4535,-2.4146,-2.3848,-2.3595,-2.3595,-2.3595,-2.3595,-2.3595,-2.3595,-2.3573,-2.3573,-2.3573,-2.3573,-2.3573,-2.3595,-2.3595,-2.3566,-2.356,-2.3494,-2.3444,-2.3378,-2.3334,-2.3246,-2.3068,-2.2865,-2.2661,-2.2615,-2.2592,-2.2324,-2.2044,-2.1807,-2.1592,-2.1423,-2.1253,-2.1131,-2.0945,-2.0709,-2.0459,-2.0232,-2.0105,-1.9965,-1.9913,-1.9875,-1.9914,-2.0016,-2.0195,-2.0372,-2.0498,-2.0623,-2.0797,-2.0896,-3.3233,-3.3301,-3.3389,-3.3491,-3.3406,-3.3491,-3.3491,-3.3541,-3.4754,-3.5447,-3.5447,-3.5481,-3.5498,-3.5566,-3.5616,-3.5616,-3.5616,-3.5616,-3.5616,-3.5616,-3.5616,-3.5616,-3.5616,-3.5616,-3.5616,-3.5616,-3.5594,-3.5549,-3.5475,-3.536,-3.5245,-3.5128,-3.5018,-3.4899,-3.4615,-3.3797,-3.287,-3.1918,-3.0741,-2.971,-2.9284,-2.9137,-2.906,-2.8873,-2.8803,-2.8708,-2.8614,-2.8425,-2.8238,-2.7625,-2.7224,-2.6933,-2.661,-2.6335,-2.632,-2.6296,-2.6394,-2.6272,-2.6051,-2.631,-2.7038,-2.7277,-2.6994,-2.6275,-2.5553,-2.4866,-2.4446,-2.4243,-2.4289,-2.4086,-2.4019,-2.3721,-2.3595,-2.3595,-2.3595,-2.3595,-2.3595,-2.3595,-2.3595,-2.3595,-2.3573,-2.3566,-2.3566,-2.3501,-2.3494,-2.3487,-2.34,-2.3223,-2.3075,-2.2888,-2.2797,-2.282,-2.2615,-2.2347,-2.2091,-2.1878,-2.1712,-2.1568,-2.1423,-2.1229,-2.097,-2.0734,-2.051,-2.0397,-2.0283,-2.0296,-2.0283,-2.0296,-2.0359,-2.0548,-2.0723,-2.0921,-2.1068,-2.1215,-2.1361,-3.187,-3.247,-3.3128,-3.3389,-3.3389,-3.3389,-3.3355,-3.3423,-3.3723,-3.4235,-3.4675,-3.4776,-3.5047,-3.538,-3.5481,-3.5498,-3.5532,-3.5583,-3.56,-3.5616,-3.5616,-3.5616,-3.5616,-3.5616,-3.5616,-3.5616,-3.56,-3.5577,-3.5549,-3.5475,-3.5463,-3.54,-3.5245,-3.5128,-3.4961,-3.4164,-3.3387,-3.2426,-3.1508,-3.0344,-2.9647,-2.9434,-2.9298,-2.9114,-2.9021,-2.8944,-2.8826,-2.8716,-2.8583,-2.8317,-2.8293,-2.8042,-2.7743,-2.7561,-2.7504,-2.7519,-2.7415,-2.733,-2.7363,-2.7405,-2.7869,-2.7849,-2.7533,-2.7125,-2.6558,-2.5842,-2.5372,-2.5198,-2.5055,-2.4799,-2.4401,-2.4019,-2.3714,-2.3714,-2.3684,-2.3684,-2.367,-2.3595,-2.3595,-2.3595,-2.3595,-2.3595,-2.3595,-2.3595,-2.3588,-2.356,-2.3494,-2.3385,-2.3319,-2.315,-2.3,-2.2955,-2.2865,-2.2646,-2.237,-2.2161,-2.1996,-2.1769,-2.1602,-2.141,-2.1215,-2.0945,-2.0698,-2.066,-2.061,-2.0598,-2.0636,-2.066,-2.0759,-2.0896,-2.1044,-2.124,-2.1458,-2.1602,-2.1817,-3.1167,-3.1631,-3.21,-3.2326,-3.2343,-3.2405,-3.2425,-3.2425,-3.2425,-3.2831,-3.3525,-3.3863,-3.4269,-3.4742,-3.4945,-3.5148,-3.5216,-3.5481,-3.5566,-3.5616,-3.5616,-3.5616,-3.5616,-3.5616,-3.5616,-3.5616,-3.5616,-3.56,-3.56,-3.5571,-3.552,-3.5492,-3.5423,-3.5314,-3.5131,-3.4595,-3.3821,-3.2729,-3.2116,-3.1232,-3.0152,-2.9776,-2.9592,-2.9412,-2.9298,-2.9176,-2.8998,-2.892,-2.8826,-2.8755,-2.8653,-2.8566,-2.8321,-2.8209,-2.8189,-2.8165,-2.8174,-2.8299,-2.8341,-2.8405,-2.8493,-2.8278,-2.8146,-2.779,-2.7883,-2.7211,-2.6436,-2.6283,-2.6779,-2.6634,-2.5569,-2.4995,-2.4867,-2.4852,-2.4642,-2.4522,-2.4044,-2.3595,-2.3595,-2.3595,-2.3595,-2.3595,-2.3595,-2.3595,-2.3588,-2.3588,-2.3545,-2.3553,-2.3473,-2.3392,-2.3253,-2.312,-2.3053,-2.2902,-2.2681,-2.2468,-2.2278,-2.2044,-2.1817,-2.1602,-2.1399,-2.1131,-2.0909,-2.0896,-2.0908,-2.0896,-2.0921,-2.0981,-2.1055,-2.1142,-2.1337,-2.152,-2.1759,-2.1987,-2.218,-3.0851,-3.0892,-3.0989,-3.1029,-3.1032,-3.1148,-3.1241,-3.1258,-3.1241,-3.1579,-3.2226,-3.2831,-3.3152,-3.3626,-3.4015,-3.4286,-3.4624,-3.5081,-3.5351,-3.56,-3.5616,-3.5616,-3.5616,-3.5616,-3.5616,-3.5616,-3.5616,-3.5616,-3.56,-3.5577,-3.5549,-3.5537,-3.5492,-3.5446,-3.536,-3.5147,-3.4509,-3.3295,-3.2453,-3.1769,-3.0892,-3.0049,-2.9864,-2.9726,-2.9592,-2.9428,-2.9252,-2.9137,-2.906,-2.8897,-2.8818,-2.8723,-2.866,-2.8565,-2.8517,-2.8493,-2.8517,-2.8573,-2.8605,-2.866,-2.8755,-2.8771,-2.8685,-2.8669,-2.8693,-2.8342,-2.7581,-2.7534,-2.7996,-2.767,-2.658,-2.5894,-2.5818,-2.553,-2.5288,-2.5255,-2.4567,-2.4073,-2.4148,-2.4118,-2.3924,-2.3939,-2.3759,-2.3744,-2.3774,-2.3759,-2.3699,-2.3655,-2.3618,-2.3545,-2.3436,-2.3348,-2.3275,-2.3127,-2.29,-2.2718,-2.25,-2.2324,-2.2091,-2.1855,-2.1592,-2.1326,-2.118,-2.1204,-2.1204,-2.1229,-2.1253,-2.1288,-2.1361,-2.1474,-2.1626,-2.1845,-2.208,-2.2306,-2.2507,-3.063,-3.0753,-3.0871,-3.0952,-3.0995,-3.1015,-3.1112,-3.119,-3.119,-3.1292,-3.1461,-3.1613,-3.2171,-3.3372,-3.3508,-3.3778,-3.4206,-3.4658,-3.5182,-3.5515,-3.5566,-3.56,-3.5616,-3.5616,-3.5616,-3.5616,-3.5616,-3.5616,-3.5616,-3.56,-3.56,-3.5594,-3.5594,-3.5543,-3.5475,-3.5211,-3.4745,-3.3634,-3.2882,-3.2267,-3.1065,-3.0371,-3.0087,-2.9935,-2.9804,-2.971,-2.9576,-2.948,-2.9275,-2.9091,-2.892,-2.8865,-2.8794,-2.8755,-2.8732,-2.8676,-2.8708,-2.8732,-2.8779,-2.8826,-2.892,-2.892,-2.8842,-2.8865,-2.8912,-2.8967,-2.8404,-2.8179,-2.8333,-2.7804,-2.6933,-2.6412,-2.6176,-2.5553,-2.5145,-2.5556,-2.5473,-2.5794,-2.6168,-2.5674,-2.5136,-2.4837,-2.441,-2.4462,-2.4627,-2.4567,-2.4455,-2.4335,-2.3655,-2.361,-2.367,-2.3575,-2.3502,-2.3238,-2.2986,-2.2863,-2.2689,-2.2523,-2.2347,-2.2091,-2.1807,-2.153,-2.141,-2.1447,-2.1568,-2.164,-2.1664,-2.1568,-2.176,-2.1883,-2.2001,-2.2189,-2.2447,-2.2748,-2.3121]},{"header":{"parameterUnit":"m.s-1","parameterCategory":1,"la1":31.0,"la2":29.5877,"lo1":-88.7671,"lo2":-86.6584,"dy":0.0162,"dx":0.0185,"nx":115,"ny":88,"refTime":"2024-03-11T12:00:00:Z","depth":0,"parameterNumber":3,"parameterNumberName":"V-component_of_WINDS"},"data":[0.0,0.0,0.0,0.0,0.0,0.0,0.0,0.0,0.0,0.0,0.0,0.0,0.0,0.0,0.0,0.0,0.0,0.0,0.0,0.0,0.0,0.0,0.0,0.0,0.0,0.0,0.0,0.0,0.0,0.0,0.0,0.0,0.0,0.0,0.0,0.0,0.0,0.0,0.0,0.0,0.0,0.0,0.0,0.0,0.0,0.0,0.0,0.0,0.0,0.0,0.0,0.0,0.0,0.0,0.0,0.0,0.0,0.0,0.0,0.0,0.0,0.0,0.0,0.0,0.0,0.0,0.0,0.0,0.0,0.0,0.0,0.0,0.0,0.0,0.0,0.0,0.0,0.0,0.0,0.0,0.0,0.0,0.0,0.0,0.0,0.0,0.0,0.0,0.0,0.0,0.0,0.0,0.0,0.0,0.0,0.0,0.0,0.0,0.0,0.0,0.0,0.0,0.0,0.0,0.0,0.0,0.0,0.0,0.0,0.0,0.0,0.0,0.0,0.0,0.0,0.0,0.0,0.0,0.0,0.0,0.0,0.0,0.0,0.0,0.0,0.0,0.0,0.0,0.0,0.0,0.0,0.0,0.0,0.0,0.0,0.0,0.0,0.0,0.0,0.0,0.0,0.0,0.0,0.0,0.0,0.0,0.0,0.0,0.0,0.0,0.0,0.0,0.0,0.0,0.0,0.0,0.0,0.0,0.0,0.0,0.0,0.0,0.0,0.0,0.0,0.0,0.0,0.0,0.0,0.0,0.0,0.0,0.0,0.0,0.0,0.0,0.0,0.0,0.0,0.0,0.0,0.0,0.0,0.0,0.0,0.0,0.0,0.0,0.0,0.0,0.0,0.0,0.0,0.0,0.0,0.0,0.0,0.0,0.0,0.0,0.0,0.0,0.0,0.0,0.0,0.0,0.0,0.0,0.0,0.0,0.0,0.0,0.0,0.0,0.0,0.0,0.0,0.0,0.0,0.0,0.0,0.0,0.0,0.0,0.0,0.0,0.0,0.0,0.0,0.0,0.0,0.0,0.0,0.0,0.0,0.0,0.0,0.0,0.0,0.0,0.0,0.0,0.0,0.0,0.0,0.0,0.0,0.0,0.0,0.0,0.0,0.0,0.0,0.0,0.0,0.0,0.0,0.0,0.0,0.0,0.0,0.0,0.0,0.0,0.0,0.0,0.0,0.0,0.0,0.0,0.0,0.0,0.0,0.0,0.0,0.0,0.0,0.0,0.0,0.0,0.0,0.0,0.0,0.0,0.0,0.0,0.0,0.0,0.0,0.0,0.0,0.0,0.0,0.0,0.0,0.0,0.0,0.0,0.0,0.0,0.0,0.0,0.0,0.0,0.0,0.0,0.0,0.0,0.0,0.0,0.0,0.0,0.0,0.0,0.0,0.0,0.0,0.0,0.0,0.0,0.0,0.0,0.0,0.0,0.0,0.0,0.0,0.0,0.0,0.0,0.0,0.0,0.0,0.0,0.0,0.0,0.0,0.0,0.0,0.0,0.0,0.0,0.0,0.0,0.0,0.0,0.0,0.0,0.0,0.0,0.0,0.0,0.0,0.0,0.0,0.0,0.0,0.0,0.0,0.0,0.0,0.0,0.0,0.0,0.0,0.0,0.0,0.0,0.0,0.0,0.0,0.0,0.0,0.0,0.0,0.0,0.0,0.0,0.0,0.0,0.0,0.0,0.0,0.0,0.0,0.0,0.0,0.0,0.0,0.0,0.0,0.0,0.0,0.0,0.0,0.0,0.0,0.0,0.0,0.0,0.0,0.0,0.0,0.0,0.0,0.0,0.0,0.0,0.0,0.0,0.0,0.0,0.0,0.0,0.0,0.0,0.0,0.0,0.0,0.0,0.0,0.0,0.0,0.0,0.0,0.0,0.0,0.0,0.0,0.0,0.0,0.0,0.0,0.0,0.0,0.0,0.0,0.0,0.0,0.0,0.0,0.0,0.0,0.0,0.0,0.0,0.0,0.0,0.0,0.0,0.0,0.0,0.0,0.0,0.0,0.0,0.0,0.0,0.0,0.0,0.0,0.0,0.0,0.0,0.0,0.0,0.0,0.0,0.0,0.0,0.0,0.0,0.0,0.0,0.0,0.0,0.0,0.0,0.0,0.0,0.0,0.0,0.0,0.0,0.0,0.0,0.0,0.0,0.0,0.0,0.0,0.0,0.0,0.0,0.0,0.0,0.0,0.0,0.0,0.0,0.0,0.0,0.0,0.0,0.0,0.0,0.0,0.0,0.0,0.0,0.0,0.0,0.0,0.0,0.0,0.0,0.0,0.0,0.0,0.0,0.0,0.0,0.0,0.0,0.0,0.0,0.0,0.0,0.0,0.0,0.0,0.0,0.0,0.0,0.0,0.0,0.0,0.0,0.0,0.0,0.0,0.0,0.0,0.0,0.0,0.0,0.0,0.0,0.0,0.0,0.0,0.0,0.0,0.0,0.0,0.0,0.0,0.0,0.0,0.0,0.0,0.0,0.0,0.0,0.0,0.0,0.0,0.0,0.0,0.0,0.0,0.0,0.0,0.0,0.0,0.0,0.0,0.0,0.0,0.0,0.0,0.0,0.0,0.0,0.0,0.0,0.0,0.0,0.0,0.0,0.0,0.0,0.0,0.0,0.0,0.0,0.0,0.0,0.0,0.0,0.0,0.0,0.0,0.0,0.0,0.0,0.0,0.0,0.0,0.0,0.0,0.0,0.0,0.0,0.0,0.0,0.0,0.0,0.0,0.0,0.0,0.0,0.0,0.0,0.0,0.0,0.0,0.0,0.0,0.0,0.0,0.0,0.0,0.0,0.0,0.0,0.0,0.0,0.0,0.0,0.0,0.0,0.0,0.0,0.0,0.0,0.0,0.0,0.0,0.0,0.0,0.0,0.0,0.0,0.0,0.0,0.0,0.0,0.0,0.0,0.0,0.0,0.0,0.0,0.0,0.0,0.0,0.0,0.0,0.0,0.0,0.0,0.0,0.0,0.0,0.0,0.0,0.0,0.0,0.0,0.0,0.0,0.0,0.0,0.0,0.0,0.0,0.0,0.0,0.0,0.0,0.0,0.0,0.0,0.0,0.0,0.0,0.0,0.0,0.0,0.0,0.0,0.0,0.0,0.0,0.0,0.0,0.0,0.0,0.0,0.0,0.0,0.0,0.0,0.0,0.0,0.0,0.0,0.0,0.0,0.0,0.0,0.0,0.0,0.0,0.0,0.0,0.0,0.0,0.0,0.0,0.0,0.0,0.0,0.0,0.0,0.0,0.0,0.0,0.0,0.0,0.0,0.0,0.0,0.0,0.0,0.0,0.0,0.0,0.0,0.0,0.0,0.0,0.0,0.0,0.0,0.0,0.0,0.0,0.0,0.0,0.0,0.0,0.0,0.0,0.0,0.0,0.0,0.0,0.0,0.0,0.0,0.0,0.0,0.0,0.0,0.0,0.0,0.0,0.0,0.0,0.0,0.0,0.0,0.0,0.0,0.0,0.0,0.0,0.0,0.0,0.0,0.0,0.0,0.0,0.0,0.0,0.0,0.0,0.0,0.0,0.0,0.0,0.0,0.0,0.0,0.0,0.0,0.0,0.0,0.0,0.0,0.0,0.0,0.0,0.0,0.0,0.0,0.0,0.0,0.0,0.0,0.0,0.0,0.0,0.0,0.0,0.0,0.0,0.0,0.0,0.0,0.0,0.0,0.0,0.0,0.0,0.0,0.0,0.0,0.0,0.0,0.0,0.0,0.0,0.0,0.0,0.0,0.0,0.0,0.0,0.0,0.0,0.0,0.0,0.0,0.0,0.0,0.0,0.0,0.0,0.0,0.0,0.0,0.0,0.0,0.0,0.0,0.0,0.0,0.0,0.0,0.0,0.0,0.0,0.0,0.0,0.0,0.0,0.0,0.0,0.0,0.0,0.0,0.0,0.0,0.0,0.0,0.0,0.0,0.0,0.0,0.0,0.0,0.0,0.0,0.0,0.0,0.0,0.0,0.0,0.0,0.0,0.0,0.0,0.0,0.0,0.0,0.0,0.0,0.0,0.0,0.0,0.0,0.0,0.0,0.0,0.0,0.0,0.0,0.0,0.0,0.0,0.0,0.0,0.0,0.0,0.0,0.0,0.0,0.0,0.0,0.0,0.0,0.0,0.0,0.0,0.0,0.0,0.0,0.0,0.0,0.0,0.0,0.0,0.0,0.0,0.0,0.0,0.0,0.0,0.0,0.0,0.0,0.0,0.0,0.0,0.0,0.0,0.0,0.0,0.0,0.0,0.0,0.0,0.0,0.4229,0.0,0.0,0.0,0.0,0.0,0.0,0.0,0.0,0.0,0.0,0.0,0.0,0.0,0.0,0.0,0.0,0.0,0.0,0.0,0.0,0.0,0.0,0.0,0.0,0.0,0.0,0.0,0.0,0.0,0.0,0.0,0.0,0.0,0.0,0.0,0.0,0.0,0.0,0.0,0.0,0.0,0.0,0.0,0.0,0.0,0.0,0.0,0.0,0.0,0.0,0.0,0.0,0.0,0.0,0.0,0.0,0.0,0.0,0.0,0.0,0.0,0.0,0.0,0.0,0.0,0.0,0.0,0.0,0.0,0.0,0.0,0.0,0.0,0.0,0.0,0.0,0.0,0.0,0.0,0.0,0.0,0.0,0.0,0.0,0.0,0.0,0.0,0.0,0.0,0.0,0.0,0.0,0.0,0.0,0.0,0.0,0.0,0.0,0.0,0.0,0.0,0.0,0.0,0.0,0.0,0.0,0.0,0.0,0.0,0.0,0.4448,0.4933,0.5262,0.5296,0.5081,0.0,0.0,0.0,0.0,0.0,0.0,0.0,0.0,0.0,0.0,0.0,0.0,0.0,0.0,0.0,0.0,0.0,0.0,0.0,0.0,0.0,0.0,0.0,0.0,0.0,0.0,0.0,0.0,0.0,0.0,0.0,0.0,0.0,0.0,0.0,0.0,0.0,0.0,0.0,0.0,0.0,0.0,0.0,0.0,0.0,0.0,0.0,0.0,0.0,0.0,0.0,0.0,0.0,0.0,0.0,0.0,0.0,0.0,0.0,0.0,0.0,0.0,0.0,0.0,0.0,0.0,0.0,0.0,0.0,0.0,0.0,0.0,0.0,0.0,0.0,0.0,0.0,0.0,0.0,0.0,0.0,0.0,0.0,0.0,0.0,0.0,0.0,0.0,0.0,0.0,0.0,0.0,0.0,0.0,0.0,0.0,0.0,0.0,0.0,0.0,0.0,0.0,0.0,0.0,0.0,0.0,0.0,0.0,0.0,0.0,0.0,0.0,0.539,0.5485,0.6011,0.0,0.0,0.0,0.0,0.0,0.0,0.0,0.0,0.0,0.0,0.0,0.0,0.0,0.0,0.0,0.0,0.0,0.0,0.0,0.0,0.0,0.0,0.0,0.0,0.0,0.0,0.0,0.0,0.0,0.0,0.0,0.0,0.0,0.0,0.0,0.0,0.0,0.0,0.0,0.0,0.0,0.0,0.0,0.0,0.0,0.0,0.0,0.0,0.0,0.0,0.0,0.0,0.0,0.0,0.0,0.0,0.0,0.0,0.0,0.0,0.0,0.0,0.0,0.0,0.0,0.0,0.0,0.0,0.0,0.0,0.0,0.0,0.0,0.0,0.0,0.0,0.0,0.0,0.0,0.0,0.0,0.0,0.0,0.0,0.0,0.0,0.0,0.0,0.0,0.0,0.0,0.0,0.0,0.0,0.0,0.0,0.0,0.0,0.0,0.0,0.0,0.0,0.0,0.0,0.0,0.0,0.0,0.0,0.0,0.0,0.4804,0.4997,0.5576,0.0,0.6084,0.0,0.0,0.0,0.0,0.0,0.0,0.0,0.0,0.0,0.0,0.0,0.0,0.0,0.0,0.0,0.0,0.0,0.0,0.0,0.0,0.0,0.0,0.0,0.0,0.0,0.0,0.0,0.0,0.0,0.0,0.0,0.0,0.0,0.0,0.0,0.0,0.0,0.0,0.0,0.0,0.0,0.0,0.0,0.0,0.0,0.0,0.0,0.0,0.0,0.0,0.0,0.0,0.0,0.0,0.0,0.0,0.0,0.0,0.0,0.0,0.0,0.0,0.0,0.0,0.0,0.0,0.0,0.0,0.0,0.0,0.0,0.0,0.0,0.0,0.0,0.0,0.0,0.0,0.0,0.0,0.0,0.0,0.0,0.0,0.0,0.0,0.0,0.0,0.0,0.0,0.0,0.0,0.0,0.0,0.0,0.0,0.0,0.0,0.0,0.0,0.0,0.0,0.0,0.0,0.0,0.0,0.0,0.0,0.0,0.0,0.5078,0.5546,0.5503,0.5669,0.0,0.0,0.0,0.0,0.0,0.0,0.0,0.0,0.0,0.0,0.0,0.0,0.0,0.0,0.0,0.0,0.0,0.0,0.0,0.0,0.0,0.0,0.0,0.0,0.0,0.0,0.0,0.0,0.0,0.0,0.0,0.0,0.0,0.0,0.0,0.0,0.0,0.0,0.0,0.0,0.0,0.0,0.0,0.0,0.0,0.0,0.0,0.0,0.0,0.0,0.0,0.0,0.0,0.0,0.0,0.0,0.0,0.0,0.0,0.0,0.0,0.0,0.0,0.0,0.0,0.0,0.0,0.0,0.0,0.0,0.0,0.0,0.0,0.0,0.0,0.0,0.0,0.0,0.0,0.0,0.0,0.0,0.0,0.0,0.0,0.0,0.0,0.0,0.0,0.0,0.0,0.0,0.0,0.0,0.0,0.0,0.0,0.0,0.0,0.0,0.0,0.0,0.0,0.0,0.0,0.0,0.0,0.0,0.0,0.0,0.4947,0.5269,0.5992,0.566,0.5569,0.5849,0.0,0.0,0.0,0.0,0.0,0.0,0.0,0.0,0.0,0.0,0.0,0.0,0.0,0.0,0.0,0.0,0.0,0.0,0.0,0.0,0.0,0.0,0.0,0.0,0.0,0.0,0.0,0.0,0.0,0.0,0.0,0.0,0.0,0.0,0.0,0.0,0.0,0.0,0.0,0.0,0.0,0.0,0.0,0.0,0.0,0.0,0.0,0.0,0.0,0.0,0.0,0.0,0.0,0.0,0.0,0.0,0.0,0.0,0.0,0.0,0.0,0.0,0.0,0.0,0.0,0.0,0.0,0.0,0.0,0.0,0.0,0.0,0.0,0.0,0.0,0.0,0.0,0.0,0.0,0.0,0.0,0.0,0.0,0.0,0.0,0.0,0.0,0.0,0.0,0.0,0.0,0.0,0.0,0.0,0.0,0.0,0.0,0.0,0.0,0.0,0.0,0.0,0.0,0.0,0.0,0.0,0.0,0.0,0.5555,0.5159,0.5316,0.6187,0.6231,0.5942,0.0,0.0,0.0,0.0,0.0,0.0,0.0,0.0,0.0,0.0,0.0,0.0,0.0,0.0,0.0,0.0,0.0,0.0,0.0,0.0,0.0,0.0,0.0,0.0,0.0,0.0,0.0,0.0,0.0,0.0,0.0,0.0,0.0,0.0,0.0,0.0,0.0,0.0,0.0,0.0,0.0,0.0,0.0,0.0,0.0,0.0,0.0,0.0,0.0,0.0,0.0,0.0,0.0,0.0,0.0,0.0,0.0,0.0,0.0,0.0,0.0,0.0,0.0,0.0,0.0,0.0,0.0,0.0,0.0,0.0,0.0,0.0,0.0,0.0,0.0,0.0,0.0,0.0,0.0,0.0,0.0,0.0,0.0,0.0,0.0,0.0,0.0,0.0,0.0,0.0,0.0,0.0,0.0,0.0,0.0,0.0,0.0,0.0,0.0,0.0,0.0,0.0,0.0,0.0,0.0,0.0,0.0,0.0,0.0,0.4462,0.4794,0.5592,0.682,0.6057,0.5722,0.0,0.0,0.0,0.0,0.0,0.0,0.0,0.0,0.0,0.0,0.0,0.0,0.0,0.0,0.0,0.0,0.0,0.0,0.0,0.0,0.0,0.0,0.0,0.0,0.0,0.0,0.0,0.0,0.0,0.0,0.0,0.0,0.0,0.0,0.0,0.0,0.0,0.0,0.0,0.0,0.0,0.0,0.0,0.0,0.0,0.0,0.0,0.0,0.0,0.0,0.0,0.0,0.0,0.0,0.0,0.0,0.0,0.0,0.0,0.0,0.0,0.0,0.0,0.0,0.0,0.0,0.0,0.0,0.0,0.0,0.0,0.0,0.0,0.0,0.0,0.0,0.0,0.0,0.0,0.0,0.0,0.0,0.0,0.0,0.0,0.0,0.0,0.0,0.0,0.0,0.0,0.0,0.0,0.0,0.0,0.0,0.0,0.0,0.0,0.0,0.0,0.0,0.0,0.0,0.0,0.0,0.0,0.0,0.0,0.4515,0.0,0.6054,0.6895,0.6071,0.5616,0.0,0.0,0.0,0.0,0.0,0.0,0.0,0.0,0.0,0.0,0.0,0.0,0.0,0.0,0.0,0.0,0.0,0.0,0.0,0.0,0.0,0.0,0.0,0.0,0.0,0.0,0.0,0.0,0.0,0.0,0.0,0.0,0.0,0.0,0.0,0.0,0.0,0.0,0.0,0.0,0.0,0.0,0.0,0.0,0.0,0.0,0.0,0.0,0.0,0.0,0.0,0.0,0.0,0.0,0.0,0.0,0.0,0.0,0.0,0.0,0.0,0.0,0.0,0.0,0.0,0.0,0.0,0.0,0.0,0.0,0.0,0.0,0.0,0.0,0.0,0.0,0.0,0.0,0.0,0.0,0.0,0.0,0.0,0.0,0.0,0.0,0.0,0.0,0.0,0.0,0.0,0.0,0.0,0.0,0.0,0.0,0.0,0.0,0.0,0.0,0.0,0.0,0.0,0.0,0.0,0.0,0.0,0.0,0.453,0.5905,0.6499,0.6668,0.6345,0.6361,0.5756,0.0,0.0,0.0,0.0,0.0,0.0,0.0,0.0,0.0,0.0,0.0,0.0,0.0,0.0,0.0,0.0,0.0,0.0,0.0,0.0,0.0,0.0,0.0,0.0,0.0,0.0,0.0,0.0,0.0,0.0,0.0,0.0,0.0,0.0,0.0,0.0,0.0,0.0,0.0,0.0,0.0,0.0,0.0,0.0,0.0,0.0,0.0,0.0,0.0,0.0,0.0,0.0,0.0,0.0,0.0,0.0,0.0,0.0,0.0,0.0,0.0,0.0,0.0,0.0,0.0,0.0,0.0,0.0,0.0,0.0,0.0,0.0,0.0,0.0,0.0,0.0,0.0,0.0,0.0,0.0,0.0,0.0,0.0,0.0,0.0,0.0,0.0,0.0,0.0,0.0,0.0,0.0,0.0,0.0,0.0,0.0,0.0,0.0,0.0,0.0,0.0,0.0,0.0,0.0,0.0,0.0,0.0,0.0,0.0,0.5371,0.5976,0.655,0.7087,0.6663,0.6241,0.0,0.0,0.0,0.0,0.0,0.0,0.0,0.0,0.0,0.0,0.0,0.0,0.0,0.0,0.0,0.0,0.0,0.0,0.0,0.0,0.0,0.0,0.0,0.0,0.0,0.0,0.0,0.0,0.0,0.0,0.0,0.0,0.0,0.0,0.0,0.0,0.0,0.0,0.0,0.0,0.0,0.0,0.0,0.0,0.0,0.0,0.0,0.0,0.0,0.0,0.0,0.0,0.0,0.0,0.0,0.0,0.0,0.0,0.0,0.0,0.0,0.0,0.0,0.0,0.0,0.0,0.0,0.0,0.0,0.0,0.0,0.0,0.0,0.0,0.0,0.0,0.0,0.0,0.0,0.0,0.0,0.0,0.0,0.0,0.0,0.0,0.0,0.0,0.0,0.0,0.0,0.0,0.0,0.0,0.0,0.0,0.0,0.0,0.0,0.0,0.0,0.0,0.0,0.0,0.0,0.0,0.0,0.0,0.0,0.6307,0.6903,0.7581,0.8343,0.7649,0.7179,0.6996,0.0,0.0,0.0,0.0,0.0,0.0,0.0,0.0,0.0,0.0,0.0,0.0,0.0,0.0,0.0,0.0,0.0,0.0,0.0,0.0,0.0,0.0,0.0,0.0,0.0,0.0,0.0,0.0,0.0,0.0,0.0,0.0,0.0,0.0,0.0,0.0,0.0,0.0,0.0,0.0,0.0,0.0,0.0,0.0,0.0,0.0,0.0,0.0,0.0,0.0,0.0,0.0,0.0,0.0,0.0,0.0,0.0,0.0,0.0,0.0,0.0,0.0,0.0,0.0,0.0,0.0,0.0,0.0,0.0,0.0,0.0,0.0,0.0,0.0,0.0,0.0,0.0,0.0,0.0,0.0,0.0,0.0,0.0,0.0,0.0,0.0,0.0,0.0,0.0,0.0,0.0,0.0,0.0,0.0,0.0,0.0,0.0,0.0,0.0,0.0,0.0,0.0,0.0,0.0,0.0,0.0,0.0,0.0,0.8404,0.9077,0.9581,0.9824,0.9193,0.851,0.0,0.0,0.0,0.0,0.0,0.0,0.0,0.0,0.0,0.0,0.0,0.0,0.0,0.0,0.0,0.0,0.0,0.0,0.0,0.0,0.0,0.0,0.0,0.0,0.0,0.0,0.0,0.0,0.0,0.0,0.0,0.0,0.0,0.0,0.0,0.0,0.0,0.0,0.0,0.0,0.0,0.0,0.0,0.0,0.0,0.0,0.0,0.0,0.0,0.0,0.0,0.0,0.0,0.0,0.0,0.0,0.0,0.0,0.0,0.0,0.0,0.0,0.0,0.0,0.0,0.0,0.0,0.0,0.0,0.0,0.0,0.0,0.0,0.0,0.0,0.0,0.0,0.0,0.0,0.0,0.0,0.0,0.0,0.0,0.0,0.0,0.0,0.0,0.0,0.0,0.0,0.0,0.0,0.0,0.0,0.0,0.0,0.0,0.0,0.0,0.0,0.0,0.0,0.0,0.0,0.0,0.0,0.0,0.0,0.9796,1.0752,1.1032,1.0643,1.047,0.9825,0.0,0.0,0.0,0.0,0.0,0.0,0.0,0.0,0.0,0.0,0.0,0.0,0.0,0.0,0.0,0.0,0.0,0.0,0.0,0.0,0.0,0.0,0.0,0.0,0.0,0.0,0.0,0.0,0.0,0.0,0.0,0.0,0.0,0.0,0.0,0.0,0.0,0.0,0.0,0.0,0.0,0.0,0.0,0.0,0.0,0.0,0.0,0.0,0.0,0.0,0.0,0.0,0.0,0.0,0.0,0.0,0.0,0.0,0.0,0.0,0.0,0.0,0.0,0.0,0.0,0.0,0.0,0.0,0.0,0.0,0.0,0.0,0.0,0.0,0.0,0.0,0.0,0.0,0.0,0.0,0.0,0.0,0.0,0.0,0.0,0.0,0.0,0.0,0.0,0.0,0.0,0.0,0.0,0.0,0.0,0.0,0.0,0.0,0.0,0.0,0.0,0.0,0.0,0.0,0.0,0.0,0.0,0.0,0.8806,1.035,1.1736,1.2257,1.1889,1.1669,1.1016,0.0,0.0,0.0,0.0,0.0,0.0,0.0,0.0,0.0,0.0,0.0,0.0,0.0,0.0,0.0,0.0,0.0,0.0,0.0,0.0,0.0,0.0,0.0,0.0,0.0,0.0,0.0,0.0,0.0,0.0,0.0,0.0,0.0,0.0,0.0,0.0,0.0,0.0,0.0,0.0,0.0,0.0,0.0,0.0,0.0,0.0,0.0,0.0,0.0,0.0,0.0,0.0,0.0,0.0,0.0,0.0,0.0,0.0,0.0,0.0,0.0,0.0,0.0,0.0,0.0,0.0,0.0,0.0,0.0,0.0,0.0,0.0,0.0,0.0,0.0,0.0,0.0,0.0,0.0,0.0,0.0,0.0,0.0,0.0,0.0,0.0,0.0,0.0,0.0,0.0,0.0,0.0,0.0,0.0,0.0,0.0,0.0,0.0,0.0,0.0,0.0,0.0,0.0,0.0,0.0,0.0,0.0,0.0,0.9663,1.0444,1.2238,1.321,1.3193,1.2612,1.1949,0.0,0.0,0.0,0.0,0.0,0.0,0.0,0.0,0.0,0.0,0.0,0.0,0.0,0.0,0.0,0.0,0.0,0.0,0.0,0.0,0.0,0.0,0.0,0.0,0.0,0.0,0.0,0.0,0.0,0.0,0.0,0.0,0.0,0.0,0.0,0.0,0.0,0.0,0.0,0.0,0.0,0.0,0.0,0.0,0.0,0.0,0.0,0.0,0.0,0.0,0.0,0.0,0.0,0.0,0.0,0.0,0.0,0.0,0.0,0.0,0.0,0.0,0.0,0.0,0.0,0.0,0.0,0.0,0.0,0.0,0.0,0.0,0.0,0.0,0.0,0.0,0.0,0.0,0.0,0.0,0.0,0.0,0.0,0.0,0.0,0.0,0.0,0.0,0.0,0.0,0.0,0.0,0.0,0.0,0.0,0.0,0.0,0.0,0.0,0.0,0.0,0.0,0.0,0.0,0.0,0.0,0.0,0.0,0.9931,1.138,1.2586,1.3234,1.3278,1.2652,1.1923,0.0,0.0,0.0,0.0,0.0,0.0,0.0,0.0,0.0,0.0,0.0,0.0,0.0,0.0,0.0,0.0,0.0,0.0,0.0,0.0,0.0,0.0,0.0,0.0,0.0,0.0,0.0,0.0,0.0,0.0,0.0,0.0,0.0,0.0,0.0,0.0,0.0,0.0,0.0,0.0,0.0,0.0,0.0,0.0,0.0,0.0,0.0,0.0,0.5614,0.0,0.0,0.0,0.0,0.0,0.0,0.0,0.0,0.0,0.0,0.0,0.0,0.0,0.0,0.0,0.0,0.0,0.0,0.0,0.0,0.0,0.0,0.0,0.0,0.0,0.0,0.0,0.0,0.0,0.0,0.0,0.0,0.0,0.0,0.0,0.0,0.0,0.0,0.0,0.0,0.0,0.0,0.0,0.0,0.0,0.0,0.0,0.0,0.0,0.0,0.0,0.0,0.0,0.0,0.0,0.0,0.0,0.0,0.0,1.017,1.1579,1.2633,1.3233,1.3278,1.2684,1.1984,0.0,0.0,0.0,0.0,0.0,0.0,0.0,0.0,0.0,0.0,0.0,0.0,0.0,0.0,0.0,0.0,0.0,0.0,0.0,0.0,0.0,0.0,0.0,0.0,0.0,0.0,0.0,0.0,0.0,0.0,0.0,0.0,0.0,0.0,0.0,0.0,0.0,0.0,0.0,0.0,0.0,0.0,0.0,0.0,0.0,0.0,0.0,0.0,0.0,0.0,0.0,0.0,0.0,0.0,0.0,0.0,0.0,0.0,0.0,0.0,0.0,0.0,0.0,0.0,0.0,0.0,0.0,0.0,0.0,0.0,0.0,0.0,0.0,0.0,0.0,0.0,0.0,0.0,0.0,0.0,0.0,0.0,0.0,0.0,0.0,0.0,0.0,0.0,0.0,0.0,0.0,0.0,0.0,0.0,0.0,0.0,0.0,0.0,0.0,0.0,0.0,0.0,0.0,0.0,0.0,0.0,0.0,0.8875,1.0393,1.1666,1.2663,1.3208,1.3303,1.2709,1.2006,1.1216,0.0,0.0,0.0,0.0,0.0,0.0,0.0,0.0,0.0,0.0,0.0,0.0,0.0,0.0,0.0,0.0,0.0,0.0,0.0,0.0,0.0,0.0,0.0,0.0,0.0,0.0,0.0,0.0,0.0,0.0,0.0,0.0,0.0,0.0,0.0,0.0,0.0,0.0,0.5147,0.5774,0.0,0.0,0.0,0.0,0.0,0.0,0.0,0.0,0.6854,0.0,0.0,0.0,0.0,0.0,0.0,0.0,0.0,0.0,0.0,0.0,0.0,0.0,0.0,0.0,0.0,0.0,0.0,0.0,0.0,0.0,0.0,0.0,0.0,0.0,0.0,0.0,0.0,0.0,0.0,0.0,0.0,0.0,0.0,0.0,0.0,0.0,0.0,0.0,0.0,0.0,0.0,0.0,0.0,0.0,0.0,0.0,0.0,0.0,0.0,0.0,0.0,0.0,0.0,0.0,0.0,0.8828,0.9436,1.062,1.243,1.2847,1.3129,1.3354,1.2628,1.1917,1.1165,0.0,0.0,0.0,0.0,0.0,0.0,0.0,0.0,0.0,0.0,0.0,0.0,0.0,0.0,0.0,0.0,0.0,0.0,0.0,0.0,0.0,0.0,0.0,0.0,0.0,0.0,0.0,0.0,0.0,0.0,0.0,0.0,0.0,0.0,0.0,0.0,0.0,0.0,0.0,0.6607,0.6414,0.0,0.0,0.0,0.0,0.0,0.0,0.0,0.0,0.8245,0.0,0.0,0.0,0.0,0.0,0.0,0.0,0.0,0.0,0.0,0.0,0.0,0.0,0.0,0.0,0.0,0.0,0.0,0.0,0.0,0.0,0.0,0.0,0.0,0.0,0.0,0.0,0.0,0.0,0.0,0.0,0.0,0.0,0.0,0.0,0.0,0.0,0.0,0.0,0.0,0.0,0.0,0.0,0.0,0.0,0.0,0.0,0.0,0.0,0.0,0.0,0.0,0.0,0.0,0.0,0.8747,0.9778,1.1034,1.2543,1.2825,1.3043,1.3286,1.2547,1.1823,0.0,0.0,0.0,0.0,0.0,0.0,0.0,0.0,0.0,0.0,0.0,0.0,0.0,0.0,0.0,0.0,0.0,0.0,0.0,0.0,0.0,0.0,0.0,0.0,0.0,0.0,0.0,0.0,0.0,0.0,0.0,0.0,0.0,0.0,0.0,0.0,0.0,0.0,0.0,0.0,0.7421,0.7711,0.8276,0.0,0.0,0.0,0.0,0.0,0.0,0.9299,0.9063,0.0,0.0,0.0,0.0,0.0,0.0,0.0,0.0,0.0,0.0,0.0,0.0,0.0,0.0,0.0,0.0,0.0,0.0,0.0,0.0,0.0,0.0,0.0,0.0,0.0,0.0,0.0,0.0,0.0,0.0,0.0,0.0,0.0,0.0,0.0,0.0,0.0,0.0,0.0,0.0,0.0,0.0,0.0,0.0,0.0,0.0,0.0,0.0,0.0,0.0,0.0,0.0,0.0,0.0,0.0,0.8495,0.999,1.1307,1.2427,1.2741,1.2971,1.3158,1.2315,1.1603,0.0,0.0,0.0,0.0,0.0,0.0,0.0,0.0,0.0,0.0,0.0,0.0,0.0,0.0,0.0,0.0,0.0,0.0,0.0,0.0,0.0,0.0,0.0,0.0,0.0,0.0,0.0,0.0,0.0,0.0,0.0,0.0,0.0,0.0,0.0,0.0,0.0,0.0,0.0,0.0,0.0,0.9476,1.0506,1.0502,0.0,0.0,0.0,0.0,1.0244,1.03,0.0,0.0,0.0,0.0,0.0,0.0,0.0,0.0,0.0,0.0,0.0,0.0,0.0,0.0,0.0,0.0,0.0,0.0,0.0,0.0,0.0,0.0,0.0,0.0,0.0,0.0,0.0,0.0,0.0,0.0,0.0,0.0,0.0,0.0,0.0,0.0,0.0,0.0,0.0,0.0,0.0,0.0,0.0,0.0,0.0,0.0,0.0,0.0,0.0,0.0,0.0,0.0,0.0,0.0,0.0,0.0,0.879,0.9958,1.1157,1.2346,1.2662,1.2915,1.308,1.172,1.0998,0.0,0.0,0.0,0.0,0.0,0.0,0.0,0.0,0.0,0.0,0.0,0.0,0.0,0.0,0.0,0.0,0.0,0.0,0.0,0.0,0.0,0.0,0.0,0.0,0.0,0.0,0.0,0.0,0.0,0.0,0.0,0.0,0.0,0.0,0.0,0.0,0.0,0.0,0.0,0.0,0.0,1.1839,1.399,1.4306,1.3201,0.0,0.0,1.2135,1.191,1.2597,0.0,0.0,0.0,0.0,0.0,0.0,0.0,0.0,0.0,0.0,0.0,0.0,0.0,0.0,0.0,0.0,0.0,0.0,0.0,0.0,0.0,0.0,0.0,0.0,0.0,0.0,0.0,0.0,0.0,0.0,0.0,0.0,0.0,0.0,0.0,0.0,0.0,0.0,0.0,0.0,0.0,0.0,0.0,0.0,0.0,0.0,0.0,0.0,0.0,0.0,0.0,0.0,0.0,0.0,0.0,0.7637,0.885,1.0334,1.1495,1.221,1.2481,1.2747,1.2971,1.1482,1.0787,0.0,0.0,0.0,0.0,0.0,0.0,0.0,0.0,0.0,0.0,0.0,0.0,0.0,0.0,0.0,0.0,0.0,0.0,0.0,0.0,0.0,0.0,0.0,0.0,0.0,0.0,0.0,0.0,0.0,0.0,0.0,0.0,0.0,0.0,0.0,0.0,0.0,0.0,0.0,0.0,0.0,0.0,1.3281,1.4358,0.0,0.0,0.0,1.2079,1.1586,0.0,0.0,0.0,0.0,0.0,0.0,0.0,0.0,0.0,0.0,0.0,0.0,0.0,0.0,0.0,0.0,0.0,0.0,0.0,0.0,0.0,0.0,0.0,0.0,0.0,0.0,0.0,0.0,0.0,0.0,0.0,0.0,0.0,0.0,0.0,0.0,0.0,0.0,0.0,0.0,0.0,0.0,0.0,0.0,0.0,0.0,0.0,0.0,0.0,0.0,0.0,0.0,0.0,0.0,0.0,0.0,0.0,0.8745,1.0588,1.1714,1.2034,1.2317,1.2559,1.2818,1.1586,0.0,0.0,0.0,0.0,0.0,0.0,0.0,0.0,0.0,0.0,0.0,0.0,0.0,0.0,0.0,0.0,0.0,0.0,0.0,0.0,0.0,0.0,0.0,0.0,0.0,0.0,0.0,0.4608,0.0,0.0,0.0,0.0,0.0,0.0,0.0,0.0,0.0,0.0,0.0,0.0,0.0,0.0,1.1839,1.2405,1.3952,1.3975,0.0,0.0,1.2214,1.1779,1.3033,1.3469,0.0,0.0,0.0,0.0,0.0,0.0,0.0,0.0,0.0,0.0,0.0,0.0,0.0,0.0,0.0,0.0,0.0,0.0,0.0,0.0,0.0,0.0,0.0,0.0,0.0,0.0,0.0,0.0,0.0,0.0,0.0,0.0,0.0,0.0,0.0,0.0,0.0,0.0,0.0,0.0,0.0,0.0,0.0,0.0,0.0,0.0,0.0,0.0,0.0,0.0,0.0,0.0,0.0,0.0,0.0,0.8557,1.0425,1.1578,1.1917,1.2164,1.2447,1.2703,1.2073,1.1417,0.0,0.0,0.0,0.0,0.0,0.0,0.0,0.0,0.0,0.0,0.0,0.0,0.0,0.0,0.0,0.0,0.0,0.0,0.0,0.0,0.0,0.0,0.0,0.0,0.0,0.0,0.0,0.0,0.0,0.0,0.0,0.0,0.0,0.0,0.0,0.0,0.0,0.0,0.0,0.0,0.0,1.2617,1.2658,1.4118,1.4568,0.0,0.0,1.2805,1.3495,1.4427,1.4502,1.2773,0.0,0.0,0.0,0.0,0.0,0.0,0.0,0.0,0.0,0.0,0.0,0.0,0.0,0.0,0.0,0.0,0.0,0.0,0.0,0.0,0.0,0.0,0.0,0.0,0.0,0.0,0.0,0.0,0.0,0.0,0.0,0.0,0.0,0.0,0.0,0.0,0.0,0.0,0.0,0.0,0.0,0.0,0.0,0.0,0.0,0.0,0.0,0.0,0.0,0.0,0.0,0.0,0.0,0.8062,0.8351,1.0205,1.1339,1.1703,1.1976,1.2256,1.2577,1.196,1.1307,0.0,0.0,0.0,0.0,0.0,0.0,0.0,0.0,0.0,0.0,0.0,0.0,0.0,0.0,0.0,0.0,0.0,0.0,0.0,0.0,0.0,0.0,0.0,0.0,0.0,0.0,0.0,0.0,0.6857,0.7228,0.6938,0.0,0.0,0.0,0.0,0.0,0.0,0.0,0.0,0.0,0.0,1.2757,1.2764,1.4233,0.0,0.0,1.3691,1.404,1.3238,1.3877,1.3887,1.2144,1.1875,0.0,0.0,0.0,0.0,0.0,0.0,0.0,0.0,0.0,0.0,0.0,0.0,0.0,0.0,0.0,0.0,0.0,0.0,0.0,0.0,0.0,0.0,0.0,0.0,0.0,0.0,0.0,0.0,0.0,0.0,0.0,0.0,0.0,0.0,0.0,0.0,0.0,0.0,0.0,0.0,0.0,0.0,0.0,0.0,0.0,0.0,0.0,0.0,0.0,0.0,0.0,0.0,0.8116,0.8114,0.9987,1.1129,1.1505,1.1772,1.206,1.2347,1.2021,1.1516,0.0,0.0,0.0,0.0,0.0,0.0,0.0,0.0,0.0,0.0,0.0,0.0,0.0,0.0,0.0,0.0,0.0,0.0,0.0,0.0,0.0,0.0,0.0,0.0,0.0,0.0,0.0,0.0,0.7219,0.7217,0.6592,0.0,0.0,0.0,0.0,0.0,0.0,0.0,0.0,0.0,0.0,1.3026,1.2598,1.4169,1.4715,1.2847,1.3727,1.4141,1.292,1.3244,1.3294,1.2344,0.0,0.0,0.0,0.0,0.0,0.0,0.0,0.0,0.0,0.0,0.0,0.0,0.0,0.0,0.0,0.0,0.0,0.0,0.0,0.0,0.0,0.0,0.0,0.0,0.0,0.0,0.0,0.0,0.0,0.0,0.4423,0.0,0.0,0.0,0.0,0.0,0.0,0.0,0.0,0.0,0.0,0.0,0.0,0.0,0.0,0.0,0.0,0.0,0.0,0.0,0.0,0.0,0.0,0.8028,0.793,0.9872,1.1027,1.1282,1.156,1.1833,1.2107,1.2394,1.2249,1.1576,0.0,0.0,0.0,0.0,0.0,0.0,0.0,0.0,0.0,0.0,0.0,0.0,0.0,0.0,0.0,0.0,0.0,0.0,0.0,0.0,0.0,0.0,0.0,0.0,0.0,0.0,0.6855,0.6913,0.6893,0.0,0.0,0.0,0.0,0.0,0.0,0.0,0.0,0.0,0.0,1.3135,1.3549,1.2214,1.3917,1.4528,1.2229,1.2413,1.2788,1.2843,1.2846,1.3064,0.0,0.0,0.0,0.0,0.0,0.0,0.0,0.0,0.0,0.0,0.0,0.0,0.0,0.0,0.0,0.0,0.0,0.0,0.0,0.0,0.0,0.0,0.0,0.0,0.0,0.0,0.0,0.7402,0.7287,0.0,0.0,0.0,0.0,0.0,0.0,0.0,0.0,0.0,0.0,0.0,0.9333,0.9524,0.0,0.0,0.0,0.0,0.0,0.0,0.0,0.0,0.0,0.0,0.0,0.0,0.7743,0.7777,0.9626,1.0791,1.1099,1.1362,1.1652,1.1955,1.2251,1.2221,1.1816,0.0,0.0,0.0,0.0,0.0,0.0,0.0,0.0,0.0,0.0,0.0,0.0,0.0,0.0,0.0,0.0,0.0,0.0,0.0,0.0,0.0,0.0,0.0,0.0,0.0,0.6443,0.0,0.0,0.0,0.0,0.0,0.0,0.0,0.0,0.0,0.0,0.0,1.117,1.1989,1.2059,1.2556,1.4016,1.3875,1.3663,0.0,0.0,0.0,0.0,0.0,0.0,0.0,0.0,0.0,0.0,0.0,0.0,0.0,0.0,1.4623,1.2254,1.2266,1.249,1.1899,0.0,0.0,0.0,0.0,0.0,0.0,0.0,0.0,0.0,0.0,0.0,0.0,0.0,0.0,0.8756,0.0,0.8603,0.0,0.0,0.0,0.0,0.0,0.0,0.0,0.0,0.9769,1.0478,1.0927,1.1171,1.1268,0.0,1.0342,0.9304,0.0,0.0,0.0,0.0,0.0,0.0,0.0,0.0,0.8084,0.8132,1.0021,1.1187,1.1442,1.1756,1.2086,1.2424,1.2588,1.2528,1.221,1.1151,1.0058,0.0,0.0,0.0,0.0,0.0,0.0,0.0,0.0,0.0,0.0,0.0,0.0,0.0,0.0,0.0,0.0,0.0,0.0,0.0,0.0,0.0,0.0,0.0,0.6937,0.0,0.0,0.0,0.0,0.0,0.0,0.0,0.0,0.0,0.9679,1.0758,1.1813,1.2436,1.2074,1.2378,1.4002,0.0,0.0,0.0,0.0,0.0,0.0,0.0,1.3882,1.3934,1.421,1.4651,1.5263,1.403,1.359,1.5482,0.0,0.0,1.4271,1.4097,1.4303,1.3747,1.3639,1.3631,1.3576,1.3584,1.3503,0.0,0.0,0.0,0.0,0.0,0.0,0.0,0.0,0.9588,0.9299,0.0,0.9167,0.0,0.0,0.0,0.0,0.0,0.8901,0.0,0.0,1.2112,1.2962,1.2796,1.2796,1.2819,1.2754,1.1464,1.0817,1.0804,0.9513,0.0,0.0,0.0,0.0,0.0,0.0,0.9046,0.9003,1.099,1.2154,1.2271,1.2678,1.3035,1.3377,1.3382,1.3194,1.2831,1.2278,1.1716,1.1087,0.9117,0.0,0.0,0.0,0.0,0.0,0.0,0.0,0.0,0.0,0.0,0.0,0.0,0.0,0.0,0.0,0.0,0.0,0.0,0.0,0.0,0.7198,0.0,0.0,0.0,0.0,0.0,0.0,0.0,0.0,0.0,0.0,1.3033,1.2636,1.2417,1.2928,0.0,0.0,0.0,0.0,1.4431,1.2429,1.4909,1.5939,1.2877,1.3173,1.4342,1.603,0.0,0.0,1.7805,1.788,1.7636,1.6899,1.8717,1.9359,1.6198,1.5624,1.5547,1.5468,1.5466,1.5483,1.548,1.5431,1.519,1.2824,0.0,0.0,0.0,0.0,1.1305,1.17,1.2411,1.2193,1.2059,1.1955,1.189,0.0,0.0,0.0,0.0,0.0,0.0,1.1053,1.1677,1.2326,1.2865,1.3274,1.3285,1.3325,1.3343,1.2978,1.2782,1.2779,1.24,1.076,0.7976,0.0,0.0,0.0,0.0,0.914,0.9869,1.1217,1.2036,1.2239,1.2566,1.3008,1.3521,1.3315,1.321,1.3303,1.2869,1.2141,1.1081,1.0586,0.0,0.0,0.0,0.0,0.0,0.0,0.0,0.0,0.0,0.0,0.0,0.0,0.0,0.0,0.0,0.0,0.0,0.0,0.0,0.8051,0.8876,0.8993,0.0,0.0,0.0,0.0,0.0,0.0,0.0,0.0,0.0,1.3188,1.1949,1.1075,0.0,0.0,1.1211,1.1835,1.2345,1.3236,1.487,1.5998,0.0,0.0,1.6399,1.6422,1.6923,1.7863,1.8551,1.8565,1.9191,1.9585,1.9267,1.9789,1.994,1.9194,1.8483,1.7913,1.7374,1.7223,1.7245,1.7246,1.7246,1.7168,1.5544,1.453,1.3043,1.2597,1.2896,1.2811,1.3201,1.3902,1.3691,1.3486,1.331,1.3314,1.2753,1.1735,1.1438,0.0,0.0,0.0,1.2077,1.2954,1.3016,1.3387,1.3987,1.3998,1.4041,1.4061,1.391,1.3828,1.3828,1.3388,1.2076,0.9939,0.0,0.0,0.8431,0.9341,1.0098,1.0772,1.1861,1.2527,1.2749,1.323,1.3601,1.3783,1.374,1.3757,1.3787,1.3371,1.2894,1.2257,1.1579,1.0434,0.0,0.0,0.0,0.0,0.0,0.0,0.0,0.0,0.0,0.0,0.0,0.6555,0.0,0.0,0.0,0.0,0.8433,0.8654,0.9192,0.9703,0.0,0.0,0.0,0.0,0.0,0.0,0.0,1.2073,1.2626,1.308,1.3413,1.2502,1.1954,1.2391,1.1914,1.1805,1.2585,0.0,1.3273,1.6307,1.7143,1.7483,1.7612,1.7638,1.7757,1.8226,1.8839,1.9283,1.9325,1.986,2.0246,2.0212,2.0174,2.0152,2.03,1.9903,1.9478,1.901,1.8929,1.8959,1.8968,1.8717,1.8484,1.7775,1.7434,1.3961,1.2998,1.3742,1.3672,1.4025,1.4631,1.4493,1.409,1.3557,1.3829,1.3204,1.193,1.1536,0.0,1.2296,1.2328,1.2963,1.4071,1.4094,1.4384,1.4842,1.4832,1.482,1.4832,1.4406,1.4257,1.4211,1.3225,1.2648,1.2606,1.2159,1.1251,1.0046,1.0979,1.157,1.1717,1.2663,1.3323,1.3619,1.4319,1.4498,1.417,1.4509,1.4549,1.4264,1.3875,1.379,1.4002,1.2323,1.1368,1.1323,0.0,0.0,0.0,0.0,0.0,0.0,0.0,0.0,0.0,0.0,0.0,0.0,0.0,0.0,0.0,1.0015,0.0,1.0201,1.0254,0.0,0.0,0.0,1.1299,1.0195,1.1291,1.3374,1.668,0.0,0.0,1.3984,1.4076,1.4475,1.5511,1.4571,1.3854,1.4056,1.3675,1.4305,1.7001,1.8207,1.8322,1.7199,1.7627,1.8506,1.9426,1.983,1.9824,1.9839,1.9972,2.0089,2.0065,2.0016,2.0035,2.0159,2.0129,2.0227,2.0261,2.0325,2.0346,2.034,1.98,1.9297,1.7548,1.7133,1.6221,1.6193,1.6738,1.6623,1.6604,1.6677,1.6526,1.608,1.5452,1.5395,1.4835,1.3904,1.3817,1.3806,1.3881,1.4127,1.4385,1.4694,1.4952,1.515,1.5261,1.4993,1.493,1.5004,1.4659,1.4575,1.4722,1.4473,1.3834,1.2943,1.2818,1.2196,1.1075,1.1351,1.1895,1.2668,1.2669,1.3067,1.3885,1.4287,1.4584,1.4769,1.4572,1.4584,1.4803,1.4416,1.4125,1.3955,1.3632,1.2782,1.1319,1.02,0.0,0.0,0.0,0.0,0.0,0.0,0.0,0.0,0.0,0.7905,0.7549,0.0,0.8672,0.0,1.1264,1.247,1.2624,1.3187,0.0,0.0,1.3397,1.3214,1.1826,1.2985,1.5092,1.8209,1.7194,1.6084,1.577,1.6167,1.68,1.7657,1.5871,1.4736,1.5435,1.5488,1.6,1.7683,1.8389,1.8564,1.8306,1.8619,1.9049,1.9434,1.9545,1.9631,1.9732,1.9871,1.9936,1.989,1.9894,1.9947,1.9966,2.002,2.0079,2.0148,2.0239,2.0341,2.0418,2.0238,2.0112,1.8184,1.7714,1.7702,1.7893,1.811,1.7579,1.7302,1.7216,1.7093,1.6757,1.6307,1.6052,1.5674,1.5222,1.515,1.5042,1.4942,1.5117,1.5171,1.5117,1.5307,1.542,1.5372,1.5209,1.5196,1.5311,1.5184,1.5246,1.5453,1.5321,1.4983,1.4415,1.4254,1.3669,1.27,1.1815,1.1692,1.2374,1.2835,1.3458,1.4192,1.4513,1.4533,1.4207,1.411,1.4054,1.4104,1.3673,1.3455,1.35,1.3388,1.2869,1.1925,1.1147,1.0257,0.0,0.0,0.0,0.0,0.0,0.0,0.0,0.0,0.0,0.0,0.0,1.0727,0.0,1.3187,1.41,1.382,1.4205,1.4415,1.4283,1.4362,1.4367,1.4285,1.4965,1.6316,1.8565,1.8306,1.7781,1.7338,1.7572,1.7928,1.835,1.7114,1.6387,1.6941,1.713,1.7427,1.812,1.8338,1.8514,1.8715,1.8905,1.9084,1.9238,1.9316,1.9394,1.9509,1.9675,1.9801,1.9731,1.9744,1.9776,1.9806,1.99,1.9963,2.002,2.0097,2.018,2.029,2.0311,2.0244,1.9127,1.8744,1.8705,1.8705,1.8635,1.7622,1.719,1.7145,1.7006,1.6846,1.6626,1.6193,1.5993,1.5968,1.5862,1.576,1.5646,1.5648,1.5613,1.5505,1.5516,1.5537,1.5511,1.5484,1.552,1.5681,1.573,1.5939,1.6185,1.5905,1.5828,1.5963,1.5612,1.4965,1.405,1.2316,1.1537,1.1752,1.3146,1.4037,1.4338,1.4511,1.4113,1.3098,1.3287,1.3274,1.2952,1.2557,1.2512,1.2883,1.2533,1.2466,1.2767,1.2072,1.1499,0.0,1.0401,0.0,0.0,0.0,0.0,0.0,0.0,0.0,0.0,1.3068,1.3433,1.4311,1.5015,1.5166,1.454,1.4545,1.4929,1.5637,1.5246,1.5488,1.6935,1.6971,1.7262,1.8344,1.8495,1.8505,1.8403,1.8385,1.8304,1.8166,1.795,1.7804,1.8149,1.8238,1.8248,1.8097,1.8138,1.8329,1.8574,1.8707,1.8843,1.9009,1.9125,1.9196,1.9277,1.9475,1.9625,1.9576,1.9569,1.9592,1.9661,1.9795,1.9873,1.987,1.9926,2.0015,2.0128,2.0037,1.9795,1.9569,1.9489,1.9309,1.9228,1.9182,1.8448,1.8027,1.789,1.7852,1.7448,1.6736,1.621,1.5931,1.5836,1.5811,1.5774,1.577,1.594,1.5977,1.5972,1.6133,1.621,1.6178,1.5934,1.5854,1.5972,1.5751,1.5826,1.6207,1.6132,1.5733,1.5003,1.4902,1.4228,1.3051,0.0,0.0,0.0,1.3645,1.4044,1.3512,1.2889,1.2421,1.2164,1.2343,0.0,1.2609,1.2864,1.2849,1.2547,1.2727,0.0,0.0,0.0,0.0,0.0,0.0,0.0,0.0,0.0,0.0,0.0,1.4727,1.4067,1.3691,1.3497,1.381,1.4767,1.4912,1.5207,1.5843,1.6498,1.6952,1.7105,1.7661,1.815,1.843,1.8243,1.8186,1.8236,1.8187,1.8135,1.816,1.8121,1.8059,1.796,1.7833,1.7794,1.7889,1.8009,1.8031,1.7911,1.8005,1.817,1.8358,1.8469,1.8612,1.8752,1.8878,1.9008,1.9111,1.9219,1.9303,1.9338,1.9409,1.9453,1.9529,1.9653,1.9738,1.9738,1.9788,1.9879,1.9995,1.9516,1.902,1.9637,0.0,1.9287,1.9246,0.0,1.8888,1.8641,1.8463,1.8052,1.7609,1.713,1.6779,1.66,1.6535,1.6546,1.6661,1.6797,1.6897,1.6853,1.6694,1.6793,1.6678,1.6392,1.6276,1.6318,1.6446,1.6439,1.6616,1.6923,1.6792,1.6548,1.6221,1.5956,1.5452,1.4749,1.4668,1.4325,1.3689,1.4445,1.4762,1.4625,1.4308,1.3838,1.3262,0.0,0.0,0.0,0.0,0.0,0.0,0.0,0.0,0.0,0.0,0.0,1.5378,1.5092,1.4886,1.4944,1.5775,1.6757,1.7821,1.7746,1.7141,1.6023,1.6549,1.702,1.7133,1.7114,1.7126,1.7274,1.7644,1.7891,1.7934,1.8382,1.8687,1.862,1.8287,1.8025,1.7939,1.7883,1.7905,1.7849,1.7788,1.7726,1.7653,1.7577,1.7547,1.7601,1.7732,1.7777,1.7704,1.7845,1.7999,1.8138,1.8266,1.8378,1.8489,1.8642,1.8762,1.8834,1.8958,1.906,1.9152,1.9196,1.9259,1.9375,1.9475,1.9548,1.9567,1.9633,1.9712,1.9769,1.9209,1.8548,1.9775,1.9365,1.9334,1.9334,1.9334,1.9204,1.9036,1.8835,0.0,0.0,0.0,1.7603,1.7558,1.7529,1.7558,1.7679,1.7932,1.7943,1.7795,1.7518,1.7489,1.7147,1.6613,1.6707,1.6796,1.6835,1.7166,1.7445,1.77,1.7469,1.7499,1.7723,1.7373,1.7122,1.696,1.6683,1.6133,1.5305,1.5271,1.5439,1.5762,1.5774,1.5312,1.4348,1.4533,1.4438,1.4029,1.4305,1.459,1.4902,1.5194,1.561,1.6106,1.6304,1.6573,1.697,1.7061,1.7498,1.8348,1.8537,1.9015,1.9935,2.0117,1.9706,1.85,1.9659,2.016,1.9538,1.9515,1.9186,1.8492,1.8405,1.8347,1.8215,1.8328,1.8406,1.8345,1.7905,1.7554,1.7542,1.7635,1.7658,1.7537,1.7462,1.742,1.7353,1.7429,1.7396,1.7398,1.7467,1.7542,1.7559,1.7647,1.78,1.7911,1.8074,1.8156,1.8229,1.842,1.8555,1.8566,1.8698,1.887,1.8967,1.9017,1.9101,1.9202,1.9303,1.9376,1.9357,1.9468,1.955,1.9492,1.902,1.8317,2.0544,2.0456,2.0296,2.0189,2.0156,1.959,1.9111,1.8706,1.8605,1.8539,1.855,1.8509,1.849,1.852,1.848,1.8534,1.8559,1.846,1.8369,1.8309,1.8176,1.782,1.7374,1.7352,1.7226,1.7015,1.7211,1.7445,1.7711,1.7879,1.7924,1.7843,1.7828,1.7783,1.764,1.7285,1.7087,1.7,1.5764,1.5057,1.4878,1.4171,1.3631,1.3271,1.3543,1.365,1.3695,1.4141,1.4388,1.4574,1.4994,1.5682,1.6623,1.6995,1.7591,1.8489,1.871,1.9004,1.9598,1.9835,2.0285,2.1073,2.1277,2.0872,1.9761,1.9908,2.0026,1.9907,1.992,1.9619,1.8941,1.8822,1.8568,1.7952,1.7955,1.8027,1.7905,1.7571,1.7359,1.7441,1.7353,1.7365,1.7379,1.7298,1.7273,1.7227,1.7662,1.7831,1.7518,1.7333,1.7333,1.7362,1.7448,1.7577,1.767,1.7833,1.7949,1.8037,1.8215,1.8341,1.8341,1.8508,1.8678,1.8797,1.8878,1.893,1.8974,1.9119,1.9216,1.924,1.9334,1.942,1.9416,1.8828,1.8042,2.0378,2.0378,2.0281,2.0248,2.0226,1.991,1.9649,1.9484,1.9579,1.926,1.8709,1.8698,1.8778,1.8879,1.8868,1.9042,1.9346,1.9285,1.9214,1.9133,1.906,1.8738,1.8243,1.827,1.8086,1.7689,1.7945,1.8008,1.7943,1.8177,1.8293,1.8339,1.8336,1.8311,1.8326,1.7937,1.7631,1.7385,1.6374,1.5852,1.5773,1.5457,1.5293,1.5293,1.5574,1.5813,1.5931,1.6341,1.6647,1.6825,1.7205,1.7728,1.84,1.871,1.9122,1.972,1.9924,2.0144,2.0368,2.0511,2.0766,2.1198,2.1325,2.119,2.0654,2.0829,2.0802,2.0421,2.0384,2.0087,1.9369,1.9273,1.9093,1.8668,1.8091,1.7663,1.7549,1.7273,1.7361,1.7979,1.7883,1.7799,1.8151,1.809,1.8008,1.8029,1.8291,1.8337,1.8197,1.8133,1.7853,1.7349,1.7285,1.7365,1.7437,1.7612,1.7726,1.7777,1.7988,1.8121,1.8191,1.8338,1.8487,1.8611,1.8715,1.877,1.8825,1.8948,1.906,1.9145,1.9192,1.9256,1.9211,1.8706,1.7646,2.0118,2.0118,2.0118,2.0118,2.0118,2.0118,2.0107,2.0183,2.0302,1.9947,1.9203,1.9149,1.9229,1.9382,1.9382,1.9655,2.003,2.0064,2.0013,1.993,1.993,1.9612,1.9119,1.9155,1.8929,1.8536,1.8775,1.8691,1.8357,1.8542,1.8743,1.8881,1.8823,1.8844,1.897,1.8583,1.8179,1.7739,1.7061,1.6681,1.6654,1.6803,1.6939,1.7115,1.7406,1.7692,1.7862,1.8228,1.8523,1.8741,1.9064,1.9398,1.9696,1.9965,2.0206,2.0409,2.0595,2.0727,2.0745,2.0778,2.0844,2.0973,2.1054,2.1087,2.1103,2.1387,2.1387,2.0924,2.084,2.0527,1.9887,1.9723,1.9616,1.9301,1.8421,1.7716,1.7355,1.7249,1.7602,1.8573,1.8392,1.8323,1.8741,1.8813,1.8756,1.8866,1.8917,1.8948,1.918,1.9087,1.8513,1.8093,1.762,1.7452,1.7449,1.746,1.7541,1.7554,1.7766,1.7911,1.8009,1.8142,1.8266,1.8413,1.8514,1.8593,1.8705,1.8825,1.8905,1.901,1.906,1.9125,1.9188,1.8631,1.7546,2.0096,2.0118,2.014,2.0118,2.0118,2.0118,2.0216,2.0346,2.0399,2.0474,2.0447,2.0534,2.0501,2.0534,2.0501,2.0523,2.0643,2.0623,2.0611,2.0611,2.0602,2.0322,1.9862,1.9829,1.9571,1.9227,1.9456,1.9379,1.8907,1.9281,1.9371,1.9204,1.9267,1.9362,1.9467,1.9146,1.8907,1.8832,1.784,1.7049,1.6559,1.6654,1.6782,1.6918,1.7136,1.7399,1.772,1.8043,1.8321,1.8537,1.8893,1.9228,1.9417,1.9696,1.9927,2.0133,2.0339,2.0491,2.061,2.0578,2.0578,2.0644,2.0711,2.0744,2.076,2.0844,2.1007,2.1117,2.1227,2.0855,2.0271,2.0158,1.9872,1.9317,1.9066,1.845,1.7492,1.7794,1.8421,1.8484,1.8606,1.8573,1.8746,1.8748,1.8858,1.9358,1.942,1.9576,2.0015,1.9638,1.9435,1.9609,1.8988,1.806,1.7928,1.7537,1.7424,1.7434,1.7542,1.7681,1.7822,1.7933,1.807,1.8218,1.8349,1.8435,1.8553,1.8658,1.8806,1.8861,1.8931,1.9035,1.9018,1.8575,1.7673,2.0828,2.061,2.0566,2.0468,2.0259,2.0281,2.0378,2.0572,2.0658,2.0743,2.085,2.1031,2.0999,2.0818,2.0818,2.0946,2.1126,2.1094,2.1169,2.1276,2.1288,2.1161,2.0976,2.0953,2.0688,2.0245,2.0361,2.0193,1.9858,1.9821,1.9664,1.9377,1.9473,1.9591,1.9683,1.9559,1.9321,1.8995,1.8556,1.7928,1.7099,1.6818,1.6761,1.6897,1.7107,1.7303,1.7584,1.7882,1.8129,1.8372,1.8606,1.8908,1.9213,1.9435,1.9639,1.9851,2.0061,2.025,2.0392,2.0407,2.0409,2.0461,2.056,2.0578,2.0561,2.0595,2.0679,2.0811,2.0909,2.0863,2.0575,2.0544,2.04,2.0083,2.016,1.992,1.9185,1.931,1.9569,1.9538,1.9185,1.9123,1.9495,1.9538,1.9546,1.9774,1.9803,1.9977,2.0294,2.0064,2.0031,2.0207,1.9783,1.9015,1.8237,1.7842,1.76,1.7371,1.7365,1.7531,1.7624,1.776,1.7911,1.8037,1.8187,1.8342,1.8502,1.8534,1.8648,1.8705,1.8843,1.8958,1.8982,1.8746,1.8391,2.1419,2.1091,2.0983,2.0743,2.041,2.0443,2.0561,2.0754,2.0871,2.0967,2.1063,2.1305,2.1305,2.1126,2.1126,2.1253,2.1474,2.1463,2.1549,2.1698,2.171,2.1698,2.171,2.1698,2.1498,2.12,2.1172,2.1021,2.0691,2.0245,1.9927,1.9731,1.9651,1.9656,1.9798,1.9798,1.9623,1.9246,1.9096,1.8607,1.7852,1.7216,1.6905,1.6922,1.7044,1.722,1.7468,1.7706,1.7969,1.8206,1.8392,1.8673,1.9059,1.9228,1.9417,1.969,1.9815,2.0008,2.02,2.0218,2.0235,2.0289,2.034,2.0373,2.0357,2.0375,2.0375,2.0375,2.051,2.0611,2.0696,2.0712,2.0695,2.0676,2.0809,2.076,2.0482,2.034,2.0172,2.0156,1.9669,1.9564,2.01,2.0104,2.0002,1.998,1.9993,2.0041,2.0198,2.0235,2.0283,2.0304,2.0326,1.9799,1.8579,1.8247,1.8017,1.7633,1.7555,1.7609,1.7527,1.7618,1.7772,1.79,1.8048,1.8204,1.8342,1.8423,1.8524,1.8658,1.8761,1.8852,1.8896,1.8869,1.8878,2.1616,2.1529,2.1205,2.0853,2.0454,2.0616,2.0765,2.0903,2.0935,2.1083,2.1325,2.142,2.1506,2.1659,2.1682,2.1679,2.171,2.1769,2.1792,2.1836,2.18,2.1733,2.171,2.171,2.1698,2.1714,2.1768,2.1721,2.1437,2.0673,2.0286,2.0387,1.9915,1.9694,1.9798,1.9798,1.9786,1.9673,1.9284,1.8958,1.8782,1.7901,1.7257,1.697,1.6918,1.7078,1.737,1.761,1.7808,1.8008,1.8307,1.8653,1.8974,1.9064,1.9288,1.9621,1.9708,1.9815,1.9973,2.0023,2.0008,2.0041,2.0043,2.0041,2.0076,2.0111,2.0129,2.0041,2.0129,2.0252,2.0475,2.0494,2.0478,2.0477,2.0407,2.0407,2.0477,2.0168,2.0041,2.0041,1.9969,1.9941,2.0025,2.0005,1.9973,1.9988,1.9988,2.0005,2.0005,2.0167,2.024,2.0266,2.026,2.013,1.9625,1.9086,1.8567,1.8132,1.7917,1.7906,1.7646,1.7491,1.7635,1.7772,1.7944,1.8091,1.8215,1.8332,1.8475,1.8584,1.865,1.8733,1.8779,1.8852,1.8878,2.241,2.2165,2.1439,2.1141,2.1216,2.0933,2.0946,2.1094,2.1178,2.1305,2.142,2.1632,2.1958,2.234,2.2468,2.2468,2.2376,2.2672,2.2936,2.3013,2.3045,2.3045,2.3009,2.2711,2.2564,2.2599,2.2373,2.2061,2.1815,2.1535,2.1076,2.0551,2.0396,2.0161,1.9874,1.9798,1.9798,1.9773,1.9597,1.9346,1.902,1.8631,1.8073,1.733,1.7012,1.7023,1.7267,1.7481,1.7693,1.7915,1.8183,1.842,1.8673,1.8946,1.9228,1.9487,1.9596,1.9687,1.978,1.9848,1.9902,1.9937,1.9973,1.9988,2.0005,2.0023,2.0023,2.0005,2.0023,2.0111,2.0163,2.0183,2.0168,2.0168,2.0166,2.0163,2.0096,1.994,1.9815,1.9902,1.9919,1.9884,1.9866,1.9815,1.9797,1.9815,1.9797,1.9812,1.983,1.9884,1.997,1.9973,2.0148,2.0261,2.0145,1.9672,1.9181,1.8649,1.8329,1.8154,1.7927,1.7608,1.7652,1.7663,1.7833,1.8016,1.8123,1.827,1.8416,1.8514,1.8565,1.8593,1.865,1.8705,1.8732,2.289,2.2526,2.1987,2.17,2.1663,2.1365,2.1211,2.1244,2.1336,2.1431,2.1561,2.1966,2.2408,2.2842,2.3328,2.3517,2.3386,2.3589,2.3761,2.386,2.3938,2.3971,2.3911,2.3595,2.3361,2.3225,2.28,2.2438,2.2238,2.2176,2.179,2.1144,2.0878,2.0503,2.0112,1.9899,1.9798,1.9798,1.9798,1.9623,1.9296,1.9083,1.8705,1.8044,1.7632,1.7321,1.7175,1.7344,1.7584,1.7821,1.8003,1.8222,1.8498,1.8851,1.9134,1.9288,1.9413,1.956,1.969,1.9741,1.9744,1.9815,1.9866,1.9902,1.9902,1.9902,1.9917,1.9917,1.9902,1.9902,1.9902,1.9902,1.9919,1.9973,2.0005,1.9988,1.9919,1.978,1.9762,1.9797,1.9797,1.9762,1.9762,1.9726,1.9708,1.9723,1.9723,1.9723,1.9726,1.9714,1.9717,1.9744,1.9922,2.0113,2.0143,1.9928,1.9672,1.9183,1.8965,1.8688,1.8237,1.7913,1.7628,1.7614,1.7709,1.7917,1.8081,1.8201,1.8315,1.8416,1.8438,1.844,1.8497,1.8536,1.8573,2.3021,2.2731,2.296,2.2536,2.1889,2.1817,2.1617,2.1337,2.138,2.1561,2.1839,2.2408,2.2806,2.3244,2.4156,2.4696,2.4648,2.4332,2.4195,2.4195,2.4336,2.439,2.4415,2.4296,2.3997,2.3575,2.3127,2.2916,2.2896,2.2543,2.228,2.2054,2.1255,2.0805,2.0666,2.0125,1.9836,1.9811,1.9798,1.9773,1.9736,1.9296,1.9008,1.8906,1.8656,1.8077,1.7144,1.7345,1.7561,1.7679,1.7842,1.8089,1.8478,1.8807,1.9017,1.9116,1.9213,1.9417,1.9621,1.9632,1.9632,1.969,1.9708,1.9726,1.9726,1.9726,1.9726,1.9744,1.9726,1.9741,1.9726,1.9744,1.9797,1.9937,1.9884,1.9866,1.9902,1.983,1.9723,1.9741,1.9708,1.9723,1.9723,1.9708,1.9723,1.9723,1.9723,1.9723,1.9723,1.9708,1.9708,1.9723,1.978,1.9904,2.0061,2.0172,1.9992,1.9798,1.9687,1.947,1.8806,1.8349,1.7844,1.7726,1.7703,1.7884,1.8027,1.8155,1.8229,1.8294,1.8297,1.832,1.8398,1.8445,1.8435,2.3356,2.3433,2.3213,2.3025,2.2788,2.217,2.1889,2.1846,2.1693,2.1886,2.2396,2.2747,2.3287,2.4011,2.4592,2.501,2.5326,2.5433,2.5428,2.5301,2.5348,2.5382,2.5308,2.5013,2.4637,2.4236,2.3848,2.3666,2.3553,2.312,2.2681,2.2284,2.197,2.138,2.0767,2.0503,2.0225,1.9836,1.9798,1.9798,1.9798,1.9648,1.9397,1.9045,1.8991,1.8703,1.8151,1.8,1.7816,1.7603,1.7781,1.8083,1.8459,1.8736,1.8908,1.9021,1.9191,1.9321,1.9413,1.9468,1.9505,1.9593,1.9629,1.9669,1.969,1.9708,1.9708,1.9708,1.9723,1.9723,1.9723,1.9723,1.9759,1.978,1.9762,1.9762,1.9795,1.9744,1.9723,1.9723,1.9723,1.9723,1.9723,1.9723,1.9723,1.9723,1.9723,1.9723,1.9723,1.9723,1.9723,1.9723,1.9726,1.9762,1.9955,2.0146,2.0138,2.006,2.0051,1.9953,1.9333,1.8859,1.8317,1.7855,1.782,1.7811,1.7972,1.807,1.8134,1.8208,1.825,1.8284,1.8335,1.8345,1.8335,2.3593,2.3863,2.364,2.3461,2.3361,2.2697,2.2475,2.249,2.2339,2.2548,2.2983,2.3386,2.3893,2.4504,2.4895,2.5324,2.5746,2.6062,2.6154,2.6119,2.6107,2.6119,2.6045,2.5549,2.5174,2.492,2.4505,2.4192,2.3979,2.3597,2.3175,2.2669,2.2422,2.1995,2.1282,2.088,2.0478,2.0163,1.9911,1.9798,1.9798,1.9798,1.9648,1.9371,1.9447,1.9291,1.8913,1.877,1.8424,1.7906,1.7882,1.8063,1.838,1.8581,1.8741,1.8884,1.9055,1.9205,1.9228,1.9306,1.9395,1.9501,1.952,1.956,1.9632,1.9654,1.9669,1.969,1.9723,1.9723,1.9723,1.9723,1.9723,1.9723,1.9708,1.9723,1.9723,1.9723,1.9723,1.9723,1.9723,1.9723,1.9723,1.9723,1.9723,1.9723,1.9723,1.9723,1.9723,1.9723,1.9723,1.9723,1.9723,1.9795,1.9902,2.0061,2.0235,2.027,2.03,2.0162,1.9789,1.9502,1.9088,1.8282,1.7997,1.7817,1.79,1.7966,1.8048,1.8102,1.8172,1.8187,1.8201,1.8222,1.8211,2.3714,2.3945,2.4116,2.3877,2.3499,2.3361,2.3202,2.3072,2.3089,2.3268,2.3647,2.4092,2.446,2.4709,2.5234,2.5639,2.5875,2.6062,2.6236,2.6327,2.6361,2.6361,2.6355,2.5907,2.5703,2.5586,2.5076,2.4632,2.428,2.4017,2.3728,2.3158,2.2669,2.2322,2.2008,2.1257,2.0754,2.0566,2.0087,1.9811,1.9798,1.9798,1.9786,1.9748,1.9851,1.9737,1.9466,1.9431,1.9089,1.8328,1.8015,1.8003,1.8183,1.838,1.8562,1.8692,1.8865,1.9003,1.9101,1.9176,1.9302,1.9358,1.9395,1.9431,1.9556,1.9574,1.9629,1.9672,1.969,1.9705,1.9708,1.9723,1.9723,1.9723,1.9723,1.9723,1.9723,1.9723,1.9723,1.969,1.9708,1.9723,1.9705,1.969,1.9687,1.9687,1.9687,1.9669,1.9723,1.9723,1.9723,1.9723,1.9708,1.9762,1.9866,1.9973,2.0166,2.0309,2.0388,2.0351,2.0304,2.0121,1.9727,1.8937,1.8267,1.8029,1.789,1.8025,1.8012,1.7999,1.8048,1.8048,1.8081,1.8095,1.8085,2.3824,2.4116,2.4164,2.412,2.3948,2.3579,2.3455,2.3479,2.3277,2.3587,2.4064,2.4344,2.4724,2.5095,2.5415,2.5653,2.5723,2.5863,2.598,2.605,2.6037,2.6223,2.6465,2.6348,2.6248,2.616,2.5661,2.5322,2.5121,2.4393,2.3941,2.3766,2.3133,2.2656,2.2259,2.1631,2.1094,2.0666,2.01,1.9811,1.9798,1.9798,1.9798,1.9798,1.9837,1.9851,1.98,1.968,1.923,1.8428,1.805,1.7929,1.8103,1.8327,1.8484,1.8562,1.8736,1.8889,1.895,1.9021,1.9097,1.9191,1.9265,1.9358,1.9431,1.9465,1.952,1.9596,1.9647,1.968,1.972,1.9768,1.9753,1.9723,1.9753,1.9723,1.9723,1.9723,1.9723,1.9705,1.965,1.965,1.9617,1.9563,1.9505,1.9523,1.9541,1.9541,1.9617,1.9708,1.9708,1.969,1.9708,1.9744,1.9815,1.9937,2.0078,2.027,2.0412,2.055,2.0655,2.075,2.0248,1.9596,1.8942,1.8607,1.8367,1.8308,1.8167,1.8092,1.7983,1.8022,1.8033,1.8037,1.7966,2.3824,2.42,2.4189,2.4189,2.4166,2.3867,2.3859,2.399,2.3863,2.4095,2.4553,2.4681,2.4953,2.5288,2.5418,2.5535,2.5618,2.5723,2.5793,2.591,2.591,2.6097,2.6327,2.6418,2.6487,2.6474,2.616,2.5858,2.5485,2.4732,2.4255,2.3904,2.3384,2.2945,2.2656,2.2108,2.1556,2.1016,2.049,2.0101,1.9823,1.9798,1.9798,1.9798,1.9798,1.9862,1.994,1.9745,1.9298,1.8733,1.8347,1.8152,1.8256,1.8245,1.8347,1.8392,1.8567,1.8702,1.8812,1.887,1.8946,1.9055,1.9134,1.9228,1.9321,1.9372,1.9409,1.9501,1.9742,1.9927,2.0039,2.0273,2.0422,2.0471,2.0015,1.9753,1.9723,1.9632,1.9581,1.9578,1.9541,1.9468,1.9472,1.9413,1.9391,1.9372,1.9446,1.945,1.9508,1.9599,1.9672,1.965,1.9672,1.9726,1.9797,1.9902,2.0023,2.02,2.0409,2.0594,2.0844,2.1087,2.0724,2.0155,1.9611,1.9219,1.9034,1.8795,1.8538,1.8398,1.8183,1.8035,1.8058,1.8251,1.8127,2.3824,2.4164,2.4189,2.4189,2.4189,2.4189,2.4251,2.4442,2.4409,2.4624,2.4898,2.5028,2.5063,2.5253,2.5218,2.5359,2.5535,2.55,2.5641,2.5758,2.584,2.5945,2.6097,2.6292,2.6349,2.6383,2.643,2.6142,2.567,2.5139,2.4619,2.4155,2.3534,2.3183,2.292,2.2535,2.2058,2.1543,2.0918,2.0415,2.0024,1.9886,1.9798,1.9798,1.9798,1.9862,1.9902,1.9797,1.9514,1.9265,1.8764,1.862,1.8685,1.8385,1.8288,1.842,1.8567,1.8677,1.8667,1.8721,1.8817,1.8922,1.9065,1.9156,1.9395,1.9553,1.9708,1.9832,2.016,2.043,2.0572,2.107,2.1258,2.1144,2.0437,2.0004,1.9803,1.9668,1.9619,1.9675,1.9664,1.9493,1.9242,1.9272,1.9405,1.9228,1.9284,1.9321,1.9343,1.9402,1.9487,1.9549,1.9626,1.9723,1.9795,1.9884,2.0005,2.0163,2.039,2.0595,2.0892,2.1055,2.0969,2.0692,2.0466,2.0187,1.9906,1.9567,1.9125,1.8949,1.8873,1.8505,1.8211,1.8572,1.8638,2.3751,2.3982,2.4127,2.4189,2.4189,2.4189,2.4189,2.4273,2.4418,2.4526,2.467,2.4778,2.4885,2.4933,2.4957,2.5028,2.5194,2.523,2.5288,2.5418,2.5606,2.5676,2.5758,2.5898,2.6015,2.6072,2.6201,2.6195,2.5934,2.5536,2.5146,2.4575,2.3985,2.3547,2.307,2.2619,2.2284,2.1983,2.1219,2.0679,2.0388,1.9999,1.9798,1.9798,1.9798,1.9862,1.9965,1.9953,2.0015,1.9941,1.9475,1.9114,1.9244,1.9214,1.9032,1.8844,1.8879,1.8856,1.8652,1.8674,1.8648,1.8911,1.9312,1.9606,1.9787,2.0182,2.0509,2.0746,2.0953,2.1032,2.118,2.1265,2.1462,2.1458,2.1362,2.1083,2.0733,2.0779,2.0877,2.0847,2.0729,2.0401,1.9386,1.9749,1.9681,1.9265,1.9139,1.9157,1.9224,1.9309,1.9335,1.945,1.9608,1.9723,1.9777,1.9884,2.0041,2.0181,2.0373,2.0595,2.0892,2.1087,2.1068,2.1269,2.1495,2.1161,2.0685,2.0166,1.9677,1.9643,1.9575,1.928,1.9087,1.9226,1.9131,2.3556,2.3787,2.3861,2.3934,2.3934,2.3934,2.397,2.408,2.4152,2.4345,2.4502,2.461,2.4718,2.4801,2.4801,2.4861,2.4921,2.4957,2.4992,2.5087,2.5194,2.5242,2.5277,2.5442,2.5618,2.5828,2.598,2.605,2.597,2.5663,2.5145,2.4678,2.4205,2.3647,2.3183,2.2794,2.2543,2.2196,2.1506,2.0968,2.0654,2.0112,1.9798,1.9798,1.9798,1.9837,1.9888,1.9952,2.008,2.013,1.9952,1.9732,1.9674,1.9561,1.9386,1.9288,1.9279,1.934,1.9218,1.921,1.9321,1.9413,1.9807,2.003,2.0253,2.0595,2.0773,2.1027,2.1293,2.159,2.1987,2.2146,2.2131,2.2173,2.2306,2.2266,2.2034,2.202,2.1898,2.1626,2.1254,2.0939,2.0602,2.0553,2.0567,2.0407,1.9261,1.9255,1.9498,1.954,1.933,1.9398,1.9593,1.9705,1.9759,1.9884,2.0093,2.0218,2.0392,2.0613,2.086,2.1055,2.1183,2.145,2.1693,2.1774,2.132,2.079,2.0407,2.0398,2.0322,2.0102,1.9883,1.971,1.9549,2.3409,2.3556,2.3604,2.3593,2.3593,2.3593,2.3714,2.3861,2.3861,2.4043,2.4309,2.4381,2.4381,2.4538,2.4562,2.461,2.4646,2.4682,2.4682,2.4706,2.4778,2.4825,2.4861,2.5028,2.5277,2.57,2.584,2.5863,2.5775,2.5546,2.5239,2.4665,2.4247,2.3866,2.3396,2.3108,2.2882,2.2443,2.1933,2.1383,2.088,2.03,1.9987,1.9798,1.9798,1.9798,1.9862,1.9901,1.999,2.0029,2.0284,2.0264,2.0066,1.9807,1.952,1.971,1.9692,1.9682,1.9702,1.9795,1.9909,2.0215,2.037,2.0527,2.0727,2.0962,2.1155,2.1341,2.1686,2.214,2.2756,2.2736,2.2847,2.295,2.3113,2.3231,2.3187,2.3008,2.2505,2.217,2.1901,2.1662,2.1525,2.1467,2.154,2.1365,2.0175,1.9435,1.972,1.9682,1.9448,1.9361,1.9523,1.969,1.9777,1.9911,2.0106,2.0218,2.0375,2.0596,2.0828,2.1006,2.1199,2.1497,2.1708,2.1759,2.1778,2.1387,2.1152,2.1161,2.1043,2.0844,2.0508,2.0154,2.0076,2.3335,2.3372,2.3519,2.3593,2.3593,2.3593,2.3604,2.3641,2.3629,2.3666,2.374,2.3787,2.3824,2.3861,2.3824,2.3897,2.4127,2.4236,2.4309,2.4345,2.4418,2.4502,2.4526,2.467,2.4897,2.5076,2.5383,2.5583,2.5676,2.5706,2.5404,2.5082,2.4591,2.414,2.3729,2.3396,2.3027,2.2807,2.2318,2.182,2.1295,2.0691,2.0189,1.9849,1.9798,1.9798,1.9798,1.9824,1.9862,1.999,2.0029,2.0181,2.0317,2.0422,2.034,2.0187,2.0127,2.0072,1.9908,1.9777,1.9828,2.0086,2.0512,2.091,2.1215,2.1586,2.179,2.2089,2.2243,2.2532,2.2609,2.2729,2.2743,2.2826,2.2925,2.2978,2.2933,2.2768,2.2649,2.2467,2.2446,2.2424,2.2228,2.2033,2.1932,2.1744,2.1007,2.0313,2.0289,1.9967,1.9473,1.9434,1.9468,1.9636,1.978,1.9962,2.0119,2.0181,2.0323,2.0527,2.0745,2.0957,2.1199,2.145,2.1679,2.1794,2.1768,2.1697,2.1702,2.16,2.1572,2.1532,2.1242,2.0922,2.104,2.315,2.315,2.3272,2.3298,2.3298,2.3298,2.3335,2.3457,2.3446,2.353,2.3556,2.3593,2.3593,2.3593,2.3593,2.3666,2.3751,2.3824,2.3897,2.3934,2.397,2.4043,2.4043,2.4236,2.4381,2.4562,2.4873,2.5194,2.5324,2.55,2.5383,2.5007,2.4579,2.4211,2.3791,2.3274,2.3097,2.2965,2.2569,2.2058,2.1455,2.0715,2.0087,1.9899,1.9798,1.9798,1.9798,1.9798,1.9824,1.9888,1.9965,2.0067,2.0258,2.041,2.0557,2.0503,2.051,2.0502,2.0341,2.0335,2.0479,2.0702,2.1018,2.1281,2.1537,2.1811,2.2123,2.2347,2.2569,2.2615,2.2615,2.2592,2.2652,2.2698,2.2797,2.282,2.2729,2.2546,2.2509,2.2578,2.2509,2.2483,2.2585,2.2427,2.2291,2.1989,2.1629,2.1304,2.0965,2.0599,2.0122,2.0255,2.0367,2.019,2.0285,2.0379,2.0446,2.0419,2.0377,2.0601,2.0709,2.0939,2.1135,2.1341,2.1556,2.1736,2.1823,2.1784,2.1893,2.1969,2.1824,2.1711,2.1772,2.1781,2.1678,2.29,2.2889,2.2889,2.2889,2.2889,2.2889,2.2964,2.3113,2.3113,2.3198,2.3335,2.3335,2.3298,2.3335,2.3335,2.3335,2.3372,2.3335,2.3335,2.3335,2.3409,2.3446,2.3556,2.3666,2.3886,2.408,2.4225,2.4598,2.5016,2.5218,2.5106,2.4929,2.4609,2.4222,2.3845,2.3443,2.3193,2.2892,2.2706,2.2196,2.1405,2.0552,1.9899,1.9811,1.9798,1.9798,1.9798,1.9798,1.9798,1.9837,1.9888,1.9965,2.0016,2.0105,2.0347,2.0675,2.0788,2.0837,2.0858,2.0906,2.0908,2.1089,2.1248,2.1458,2.1636,2.1738,2.1912,2.2114,2.2278,2.2394,2.2347,2.2431,2.2454,2.2532,2.2623,2.2715,2.2623,2.2463,2.2217,2.2263,2.2394,2.2486,2.254,2.2632,2.2439,2.2411,2.2066,2.1958,2.1686,2.1679,2.143,2.1528,2.1492,2.1059,2.0971,2.0982,2.1008,2.0953,2.0829,2.0841,2.0875,2.0918,2.1086,2.1262,2.1434,2.1617,2.1738,2.1857,2.1869,2.1882,2.1868,2.1855,2.1797,2.1678,2.1556,2.2478,2.2467,2.2467,2.2478,2.2467,2.2515,2.2467,2.2553,2.2553,2.2515,2.2628,2.259,2.2628,2.2628,2.2628,2.259,2.259,2.2665,2.2703,2.274,2.2815,2.2964,2.3075,2.3261,2.3446,2.3641,2.3714,2.4164,2.4634,2.4945,2.5158,2.5094,2.482,2.4527,2.4079,2.3621,2.3406,2.3014,2.2947,2.251,2.1594,2.0905,2.0339,1.9974,1.9811,1.9798,1.9798,1.9798,1.9798,1.9798,1.9824,1.9888,1.9965,2.0016,2.0105,2.0271,2.0423,2.0574,2.0661,2.0787,2.0924,2.1021,2.1071,2.1193,2.1399,2.1626,2.1746,2.1831,2.1926,2.1973,2.1983,2.1935,2.2044,2.2161,2.2287,2.2509,2.2592,2.2194,2.1959,2.1912,2.1983,2.2254,2.2426,2.2532,2.2601,2.2586,2.2521,2.2383,2.2337,2.2219,2.2287,2.2287,2.2191,2.1792,2.1553,2.157,2.154,2.1489,2.1375,2.1221,2.126,2.1262,2.1004,2.1167,2.1341,2.1527,2.1663,2.1768,2.1796,2.1811,2.1811,2.1766,2.1708,2.1587,2.1433,2.2176,2.2392,2.2392,2.2392,2.2392,2.2392,2.2392,2.2392,2.2392,2.2392,2.2392,2.2392,2.2392,2.2354,2.2392,2.2402,2.2402,2.2365,2.2402,2.2365,2.2478,2.259,2.2665,2.2777,2.2927,2.3224,2.3298,2.3556,2.408,2.4478,2.4754,2.5063,2.4737,2.4377,2.4152,2.3663,2.3269,2.2953,2.2705,2.2406,2.1857,2.1154,2.0578,2.0275,1.9974,1.9823,1.9798,1.9798,1.9798,1.9798,1.9798,1.9824,1.9862,1.9888,1.9939,1.9965,2.0131,2.0271,2.0385,2.0562,2.0712,2.0799,2.0873,2.1023,2.1193,2.135,2.1506,2.1568,2.164,2.1712,2.1759,2.1793,2.1841,2.1935,2.1959,2.2053,2.2184,2.1926,2.1664,2.1626,2.1626,2.1888,2.21,2.2161,2.2231,2.2278,2.2287,2.223,2.2317,2.2443,2.2573,2.2751,2.26,2.238,2.2191,2.2101,2.2024,2.1985,2.1969,2.1852,2.1817,2.1749,2.1415,2.1199,2.131,2.1482,2.1651,2.1693,2.1738,2.1738,2.1721,2.1678,2.1587,2.1464,2.1277,2.1987,2.2262,2.2252,2.2262,2.2252,2.2252,2.2252,2.2252,2.2176,2.2176,2.2176,2.2111,2.2063,2.2101,2.2063,2.2025,2.2063,2.2101,2.2101,2.2101,2.2138,2.2225,2.2252,2.2327,2.2515,2.2852,2.2852,2.3113,2.3446,2.3776,2.4213,2.485,2.4731,2.4403,2.4032,2.3689,2.3333,2.2903,2.2663,2.2464,2.2117,2.1408,2.093,2.0553,2.0189,1.9798,1.9798,1.9798,1.9798,1.9798,1.9798,1.9798,1.9824,1.9824,1.9824,1.9862,1.9952,1.9991,2.0144,2.0283,2.0435,2.0536,2.0699,2.0861,2.0985,2.1071,2.1169,2.1302,2.1375,2.1471,2.1568,2.1578,2.1602,2.1626,2.1674,2.1698,2.1664,2.1447,2.135,2.135,2.1375,2.1447,2.164,2.1688,2.1807,2.1926,2.1996,2.2044,2.2231,2.2463,2.2646,2.2806,2.2817,2.271,2.2744,2.2589,2.2534,2.2491,2.2496,2.2501,2.2502,2.2142,2.1722,2.1562,2.1569,2.1795,2.2183,2.1918,2.1664,2.1679,2.1664,2.1556,2.1449,2.1357,2.1247,2.1807,2.1835,2.1845,2.1845,2.1845,2.1845,2.1845,2.1845,2.1655,2.1627,2.1578,2.1436,2.1397,2.1349,2.1425,2.1397,2.132,2.1282,2.1397,2.1436,2.1474,2.1703,2.1845,2.2025,2.2214,2.2402,2.2478,2.2703,2.3001,2.3187,2.3666,2.4166,2.4542,2.4554,2.4284,2.3857,2.3355,2.2973,2.2729,2.2613,2.2314,2.1757,2.1242,2.0704,2.0175,1.9811,1.9798,1.9798,1.9798,1.9798,1.9798,1.9798,1.9798,1.9798,1.9798,1.9798,1.9837,1.985,1.9939,2.0105,2.0207,2.0296,2.0447,2.0699,2.0825,2.0936,2.1021,2.1046,2.112,2.1106,2.1155,2.1142,2.1313,2.1337,2.141,2.1471,2.135,2.1071,2.0972,2.1046,2.112,2.1229,2.1277,2.1399,2.1616,2.1759,2.1902,2.1949,2.2147,2.2379,2.2563,2.2737,2.2843,2.295,2.3157,2.3117,2.3029,2.3047,2.3087,2.3147,2.3198,2.2742,2.2426,2.2295,2.2377,2.2564,2.2603,2.2362,2.2085,2.1754,2.1657,2.1922,2.1778,2.1597,2.1467,2.1807,2.1769,2.1655,2.1627,2.1617,2.1617,2.154,2.1436,2.1359,2.132,2.132,2.1254,2.1215,2.1215,2.1215,2.1215,2.1215,2.1215,2.1215,2.1215,2.132,2.1359,2.1502,2.1655,2.1835,2.2035,2.2138,2.2327,2.2628,2.2815,2.3113,2.3629,2.4213,2.439,2.4185,2.3785,2.3198,2.2843,2.2739,2.2699,2.2645,2.2168,2.1647,2.1179,2.0666,2.0176,1.9899,1.9811,1.9798,1.9798,1.9798,1.9798,1.9798,1.9798,1.9798,1.9798,1.9798,1.9798,1.9824,1.9965,2.0105,2.0207,2.0296,2.0435,2.0625,2.0687,2.0787,2.0837,2.0886,2.0886,2.1021,2.1106,2.1191,2.1166,2.118,2.1229,2.112,2.0823,2.0749,2.0873,2.0947,2.1046,2.1095,2.112,2.1375,2.1616,2.1736,2.1878,2.2053,2.2226,2.2388,2.2586,2.2692,2.2888,2.3083,2.3275,2.3451,2.3526,2.3583,2.3619,2.3646,2.3856,2.3557,2.3384,2.3164,2.3245,2.3147,2.2821,2.2569,2.2427,2.2491,2.2683,2.2379,2.1894,2.1763,2.1617,2.1617,2.1464,2.1436,2.1464,2.1436,2.131,2.1205,2.1128,2.1051,2.1041,2.1012,2.1012,2.1012,2.1012,2.1012,2.1012,2.1002,2.1012,2.1051,2.1061,2.1099,2.1177,2.132,2.154,2.1693,2.1845,2.2035,2.2327,2.2617,2.2852,2.315,2.3534,2.3864,2.4096,2.3616,2.3027,2.271,2.2543,2.272,2.2743,2.235,2.1994,2.1575,2.1001,2.0541,2.0151,1.9987,1.9798,1.9798,1.9798,1.9798,1.9798,1.9798,1.9798,1.9798,1.9798,1.9798,1.9824,1.9875,2.0003,2.0105,2.0131,2.0246,2.0347,2.0398,2.0498,2.0612,2.0662,2.0737,2.0848,2.0909,2.0959,2.0947,2.0983,2.1008,2.0934,2.0749,2.0724,2.0749,2.0837,2.0924,2.0985,2.1035,2.1193,2.1399,2.1544,2.1664,2.1769,2.1969,2.2189,2.2365,2.2555,2.2723,2.2926,2.312,2.3312,2.3523,2.3612,2.3834,2.3966,2.4177,2.4271,2.3918,2.3768,2.3887,2.3825,2.3666,2.3431,2.3208,2.317,2.3032,2.2589,2.2108,2.2147,2.1244,2.1215,2.1205,2.132,2.1425,2.1282,2.1167,2.1089,2.0974,2.0819,2.0683,2.0644,2.0644,2.0693,2.0731,2.0731,2.0731,2.0693,2.0693,2.0731,2.0858,2.0896,2.0974,2.1089,2.1272,2.1464,2.1617,2.1807,2.2063,2.2203,2.2478,2.2815,2.3139,2.3503,2.4076,2.3708,2.3275,2.2899,2.2582,2.2543,2.2567,2.2305,2.2129,2.1795,2.1334,2.0888,2.0425,2.015,1.9962,1.9811,1.9798,1.9798,1.9798,1.9798,1.9798,1.9798,1.9798,1.9798,1.9798,1.9798,1.9888,1.9978,2.0003,2.008,2.0182,2.0207,2.0233,2.0372,2.0334,2.0372,2.0498,2.0624,2.0712,2.0724,2.0761,2.081,2.0774,2.0611,2.0574,2.0536,2.0713,2.0889,2.0926,2.0974,2.1046,2.1193,2.1326,2.1447,2.1554,2.1732,2.1978,2.2226,2.2417,2.2586,2.2768,2.2978,2.3179,2.3385,2.3603,2.3782,2.3967,2.4094,2.4158,2.4189,2.4183,2.4142,2.4369,2.4601,2.4142,2.3676,2.3322,2.3067,2.263,2.2459,2.258,2.1215,2.1215,2.1061,2.1061,2.1099,2.1012,2.0935,2.0809,2.0722,2.0644,2.0605,2.0615,2.0615,2.0615,2.0615,2.0615,2.0615,2.0615,2.0615,2.0615,2.0693,2.0693,2.077,2.0896,2.1051,2.1167,2.132,2.154,2.1683,2.1911,2.2138,2.2413,2.2868,2.322,2.3508,2.3384,2.311,2.273,2.2392,2.2204,2.2457,2.2335,2.2181,2.195,2.1666,2.1253,2.068,2.0421,2.0211,1.991,1.9848,1.9849,1.9811,1.9798,1.9798,1.9798,1.9798,1.9798,1.9798,1.9798,1.9798,1.9862,1.9888,1.9939,2.0042,2.0067,2.0118,2.0156,2.0156,2.0233,2.0309,2.0436,2.0486,2.0473,2.0511,2.0661,2.0674,2.046,2.0334,2.0309,2.0436,2.0549,2.0612,2.0775,2.0886,2.0997,2.1144,2.1302,2.1471,2.1602,2.1803,2.2077,2.2301,2.2463,2.2646,2.282,2.3,2.3201,2.3429,2.3653,2.3803,2.3967,2.412,2.4163,2.4256,2.4369,2.4426,2.4467,2.4368,2.4055,2.3658,2.351,2.3379,2.3219,2.3185,2.1002,2.0964,2.0858,2.078,2.079,2.078,2.0731,2.0605,2.0615,2.0615,2.0615,2.0615,2.0615,2.0615,2.0615,2.0615,2.0615,2.0615,2.0615,2.0615,2.0615,2.0615,2.0654,2.0741,2.0858,2.0945,2.1128,2.1359,2.154,2.1769,2.1997,2.2252,2.2692,2.3055,2.3187,2.3063,2.2894,2.2538,2.2244,2.1956,2.2173,2.2224,2.2207,2.2078,2.1896,2.1642,2.1085,2.0772,2.0582,2.017,1.9996,1.9935,1.9885,1.9811,1.9811,1.9798,1.9798,1.9798,1.9798,1.9798,1.9798,1.9824,1.9798,1.9837,1.9901,1.9926,1.9978,2.0029,2.008,2.0105,2.0131,2.0258,2.0284,2.0233,2.0309,2.0485,2.0435,2.0233,2.0093,2.0093,2.0182,2.0258,2.0372,2.0537,2.0687,2.0812,2.0961,2.1144,2.1326,2.1471,2.1602,2.1841,2.2114,2.2301,2.2463,2.2646,2.2843,2.3,2.3209,2.3421,2.3616,2.3782,2.3967,2.4114,2.4156,2.4198,2.4213,2.4209,2.4132,2.4076,2.388,2.3874,2.4057,2.3782,2.3436,2.0566,2.0586,2.0576,2.0576,2.0595,2.0654,2.0605,2.0615,2.0615,2.0615,2.0615,2.0615,2.0615,2.0615,2.0615,2.0615,2.0615,2.0615,2.0615,2.0615,2.0615,2.0615,2.0615,2.0615,2.0731,2.0819,2.0974,2.1167,2.1436,2.1578,2.1769,2.2101,2.2553,2.2824,2.2849,2.2676,2.2582,2.2395,2.1987,2.18,2.1937,2.2049,2.2125,2.2086,2.1994,2.1815,2.1493,2.128,2.0869,2.0566,2.0422,2.0218,2.0021,1.9886,1.9861,1.9899,1.9974,1.9987,1.9836,1.9836,1.9996,2.0057,1.9896,1.986,1.9824,1.9862,1.9862,1.9888,1.9914,1.9914,1.9978,2.0029,2.0067,2.0105,2.0144,2.0169,2.0156,2.0054,1.9914,1.9914,2.0029,2.0131,2.022,2.0347,2.0486,2.0562,2.0737,2.0936,2.112,2.1326,2.1447,2.153,2.1793,2.2114,2.2278,2.2463,2.2646,2.282,2.2926,2.3135,2.3355,2.3573,2.3739,2.3882,2.3982,2.4024,2.4046,2.4003,2.3946,2.3861,2.3739,2.3696,2.3696,2.3501,2.3216,1.9824,2.0088,2.0098,2.0283,2.0586,2.0605,2.0615,2.0615,2.0615,2.0615,2.0615,2.0615,2.0615,2.0615,2.0615,2.0615,2.0615,2.0615,2.0615,2.0615,2.0615,2.0615,2.0615,2.0615,2.0654,2.0731,2.0819,2.0935,2.1128,2.131,2.1578,2.1921,2.2252,2.244,2.2379,2.2087,2.227,2.2184,2.1684,2.1594,2.1655,2.1812,2.1937,2.1954,2.2078,2.1904,2.1666,2.1638,2.1256,2.0936,2.0837,2.0748,2.0862,2.0799,2.0839,2.1004,2.0928,2.0752,2.0099,2.0432,2.072,2.0526,2.0328,1.9966,1.9884,1.9849,1.9849,1.9798,1.9798,1.9862,1.9862,1.9914,1.9914,1.9965,1.9978,1.9991,1.9965,1.9939,1.9798,1.9824,1.9939,2.0003,2.008,2.0195,2.0322,2.0347,2.0473,2.0699,2.0923,2.112,2.1229,2.1302,2.153,2.1831,2.2067,2.2254,2.244,2.2638,2.2723,2.2867,2.3091,2.329,2.348,2.3625,2.3747,2.3833,2.3882,2.3797,2.3689,2.356,2.3436,2.3407,2.3319,2.3127,2.2994,1.9443,1.9648,1.9668,1.9824,2.0067,2.0096,2.0096,2.0155,2.0439,2.0615,2.0615,2.0615,2.0615,2.0615,2.0615,2.0615,2.0615,2.0615,2.0615,2.0615,2.0615,2.0615,2.0615,2.0615,2.0615,2.0654,2.0731,2.0819,2.0935,2.1205,2.1464,2.1693,2.1883,2.2063,2.2115,2.1929,2.18,2.172,2.1484,2.133,2.1371,2.1498,2.1624,2.1781,2.1968,2.1846,2.1783,2.1819,2.16,2.1304,2.1218,2.1158,2.1202,2.1119,2.1119,2.121,2.1145,2.0979,2.0696,2.0806,2.1153,2.1235,2.0884,2.0533,2.0225,2.0082,1.9922,1.9798,1.9798,1.9798,1.9798,1.9798,1.9798,1.9824,1.9824,1.9824,1.9824,1.9824,1.9798,1.9798,1.9862,1.9901,1.9978,2.0067,2.0144,2.0195,2.0296,2.0498,2.0724,2.0947,2.0997,2.1021,2.1277,2.1568,2.1807,2.202,2.2184,2.2347,2.2463,2.2609,2.2799,2.3024,2.3224,2.3385,2.3531,2.3575,2.3581,2.3523,2.3436,2.3282,2.3127,2.3016,2.2904,2.2746,2.2655,1.9235,1.9275,1.9277,1.9336,1.9287,1.9336,1.9336,1.9365,2.0116,2.0517,2.0517,2.0537,2.0546,2.0586,2.0615,2.0615,2.0615,2.0615,2.0615,2.0615,2.0615,2.0615,2.0615,2.0615,2.0615,2.0615,2.0654,2.0731,2.0896,2.1089,2.1282,2.1474,2.1617,2.1807,2.1893,2.1687,2.15,2.1276,2.1029,2.0803,2.1033,2.1169,2.1308,2.1561,2.1655,2.1683,2.1808,2.1861,2.1815,2.1681,2.1558,2.1423,2.1357,2.1326,2.1313,2.1342,2.1469,2.1465,2.1427,2.1449,2.1604,2.1649,2.1472,2.1088,2.0739,2.0407,2.0241,2.0118,2.0156,2.0032,2.0021,1.986,1.9798,1.9798,1.9798,1.9798,1.9798,1.9798,1.9798,1.9798,1.9824,1.9862,1.9862,1.9939,1.9978,2.0016,2.0118,2.0322,2.046,2.0699,2.0799,2.0774,2.0997,2.1253,2.152,2.1736,2.1902,2.2044,2.2184,2.237,2.2586,2.2777,2.2979,2.3105,2.3231,2.3246,2.3231,2.3194,2.3113,2.2971,2.2814,2.2632,2.2495,2.2356,2.2217,1.882,1.9031,1.9223,1.9277,1.9277,1.9277,1.9258,1.9297,1.9519,1.9766,2.0019,2.0078,2.0234,2.0478,2.0537,2.0546,2.0566,2.0595,2.0605,2.0615,2.0615,2.0615,2.0615,2.0615,2.0615,2.0615,2.0605,2.0644,2.0731,2.0896,2.0994,2.1061,2.1282,2.1474,2.1634,2.14,2.1167,2.0857,2.0657,2.0467,2.0519,2.0754,2.0946,2.1201,2.1328,2.1466,2.1624,2.1737,2.1784,2.1777,2.1808,2.1909,2.2068,2.217,2.2272,2.2284,2.2102,2.2082,2.201,2.1896,2.1971,2.1807,2.1608,2.1432,2.1173,2.0879,2.0683,2.0588,2.0516,2.0397,2.0204,2.0021,1.9899,1.9899,1.9874,1.9874,1.9861,1.9798,1.9798,1.9798,1.9798,1.9798,1.9798,1.9798,1.9837,1.9901,1.9978,2.0105,2.0182,2.0346,2.0574,2.0624,2.0724,2.0934,2.1229,2.1447,2.1616,2.1817,2.1983,2.217,2.2356,2.2609,2.2836,2.2844,2.2889,2.2926,2.2918,2.2844,2.2754,2.2655,2.2518,2.2333,2.2123,2.1983,2.1769,1.8588,1.8725,1.8814,1.8852,1.8862,1.8756,1.8721,1.8721,1.8721,1.8955,1.9355,1.9551,1.9785,2.0059,2.0176,2.0293,2.0332,2.0537,2.0586,2.0615,2.0615,2.0615,2.0615,2.0615,2.0615,2.0615,2.0615,2.0605,2.0605,2.0693,2.0819,2.0906,2.1022,2.1167,2.1318,2.1148,2.0878,2.0452,2.0362,2.0186,2.0052,2.0226,2.0529,2.0786,2.0946,2.1149,2.136,2.1498,2.1624,2.1718,2.1788,2.187,2.2027,2.2139,2.2322,2.2353,2.231,2.2309,2.2192,2.2142,2.2061,2.1796,2.1744,2.1565,2.1541,2.126,2.1075,2.1047,2.1397,2.1328,2.0844,2.0558,2.059,2.0578,2.0586,2.0577,2.0175,1.9798,1.9798,1.9798,1.9798,1.9798,1.9798,1.9798,1.9837,1.9837,1.9888,1.9939,2.0003,2.0067,2.0258,2.041,2.0485,2.0712,2.1012,2.1182,2.1326,2.1568,2.1769,2.1983,2.2208,2.2463,2.2669,2.2655,2.2618,2.2655,2.2632,2.2549,2.248,2.2426,2.224,2.2091,2.1855,2.1654,2.1512,1.8583,1.8516,1.8391,1.8323,1.8279,1.812,1.8037,1.8047,1.8037,1.8232,1.8559,1.8955,1.9141,1.9414,1.9639,1.9795,1.999,2.0254,2.041,2.0605,2.0615,2.0615,2.0615,2.0615,2.0615,2.0615,2.0615,2.0615,2.0605,2.0644,2.0731,2.0829,2.0906,2.0984,2.1089,2.1066,2.0838,2.0353,2.0082,1.9851,1.9775,1.9748,2.0096,2.0335,2.0529,2.0797,2.101,2.1169,2.1308,2.1529,2.1667,2.1792,2.1843,2.1968,2.203,2.2061,2.203,2.1925,2.1851,2.1843,2.1718,2.1632,2.1714,2.1702,2.1671,2.1552,2.1356,2.1512,2.1873,2.1813,2.1333,2.1063,2.1094,2.1045,2.1031,2.1192,2.0614,2.02,2.0263,2.0238,2.0075,2.0087,1.9936,1.9924,1.9949,1.9936,1.9886,1.9849,1.9862,1.9888,2.0016,2.0118,2.0233,2.0461,2.0801,2.1,2.112,2.1277,2.152,2.1759,2.202,2.2278,2.2417,2.2394,2.2394,2.237,2.2347,2.2287,2.2217,2.2189,2.1959,2.1797,2.1698,2.1494,2.1312,1.8908,1.8707,1.8549,1.8414,1.8303,1.8269,1.8144,1.8008,1.8008,1.8066,1.8164,1.8252,1.8574,1.9268,1.9346,1.9502,1.9699,2.001,2.0312,2.0556,2.0586,2.0605,2.0615,2.0615,2.0615,2.0615,2.0615,2.0615,2.0615,2.0605,2.0605,2.0654,2.0654,2.078,2.0896,2.0844,2.0671,2.0209,1.9904,1.9676,1.9318,1.9395,1.9726,1.9955,2.015,2.0324,2.0518,2.069,2.0978,2.1233,2.1498,2.1604,2.1698,2.1718,2.1749,2.1855,2.1781,2.1749,2.1686,2.1624,2.1498,2.1498,2.1537,2.1506,2.1443,2.1336,2.1307,2.1476,2.1692,2.1674,2.1328,2.1198,2.115,2.0924,2.0867,2.135,2.1327,2.1644,2.1958,2.1543,2.1091,2.084,2.0437,2.0526,2.0665,2.0614,2.0475,2.0374,1.9849,1.9811,1.9861,1.9913,2.0029,2.0245,2.0561,2.0813,2.0974,2.1095,2.1253,2.152,2.1807,2.2053,2.217,2.2161,2.2044,2.1973,2.1949,2.2044,2.2047,2.1979,2.1667,2.1474,2.1488,2.154,2.1514]}]]